[[{"header":{"parameterUnit":"m.s-1","parameterCategory":1,"la1":31.0,"la2":29.5877,"lo1":-88.7671,"lo2":-86.6584,"dy":0.0162,"dx":0.0185,"nx":115,"ny":88,"refTime":"2024-07-22T00:00:00:Z","depth":0,"parameterNumber":2,"parameterNumberName":"U-component_of_WINDS"},"data":[0.0,0.0,0.0,0.0,0.0,0.0,0.0,0.0,0.0,0.0,0.0,0.0,0.0,0.0,0.0,0.0,0.0,0.0,0.0,0.0,0.0,0.0,0.0,0.0,0.0,0.0,0.0,0.0,0.0,0.0,0.0,0.0,0.0,0.0,0.0,0.0,0.0,0.0,0.0,0.0,0.0,0.0,0.0,0.0,0.0,0.0,0.0,0.0,0.0,0.0,0.0,0.0,0.0,0.0,0.0,0.0,0.0,0.0,0.0,0.0,0.0,0.0,0.0,0.0,0.0,0.0,0.0,0.0,0.0,0.0,0.0,0.0,0.0,0.0,0.0,0.0,0.0,0.0,0.0,0.0,0.0,0.0,0.0,0.0,0.0,0.0,0.0,0.0,0.0,0.0,0.0,0.0,0.0,0.0,0.0,0.0,0.0,0.0,0.0,0.0,0.0,0.0,0.0,0.0,0.0,0.0,0.0,0.0,0.0,0.0,0.0,0.0,0.0,0.0,0.0,0.0,0.0,0.0,0.0,0.0,0.0,0.0,0.0,0.0,0.0,0.0,0.0,0.0,0.0,0.0,0.0,0.0,0.0,0.0,0.0,0.0,0.0,0.0,0.0,0.0,0.0,0.0,0.0,0.0,0.0,0.0,0.0,0.0,0.0,0.0,0.0,0.0,0.0,0.0,0.0,0.0,0.0,0.0,0.0,0.0,0.0,0.0,0.0,0.0,0.0,0.0,0.0,0.0,0.0,0.0,0.0,0.0,0.0,0.0,0.0,0.0,0.0,0.0,0.0,0.0,0.0,0.0,0.0,0.0,0.0,0.0,0.0,0.0,0.0,0.0,0.0,0.0,0.0,0.0,0.0,0.0,0.0,0.0,0.0,0.0,0.0,0.0,0.0,0.0,0.0,0.0,0.0,0.0,0.0,0.0,0.0,0.0,0.0,0.0,0.0,0.0,0.0,0.0,0.0,0.0,0.0,0.0,0.0,0.0,0.0,0.0,0.0,0.0,0.0,0.0,0.0,0.0,0.0,0.0,0.0,0.0,0.0,0.0,0.0,0.0,0.0,0.0,0.0,0.0,0.0,0.0,0.0,0.0,0.0,0.0,0.0,0.0,0.0,0.0,0.0,0.0,0.0,0.0,0.0,0.0,0.0,0.0,0.0,0.0,0.0,0.0,0.0,0.0,0.0,0.0,0.0,0.0,0.0,0.0,0.0,0.0,0.0,0.0,0.0,0.0,0.0,0.0,0.0,0.0,0.0,0.0,0.0,0.0,0.0,0.0,0.0,0.0,0.0,0.0,0.0,0.0,0.0,0.0,0.0,0.0,0.0,0.0,0.0,0.0,0.0,0.0,0.0,0.0,0.0,0.0,0.0,0.0,0.0,0.0,0.0,0.0,0.0,0.0,0.0,0.0,0.0,0.0,0.0,0.0,0.0,0.0,0.0,0.0,0.0,0.0,0.0,0.0,0.0,0.0,0.0,0.0,0.0,0.0,0.0,0.0,0.0,0.0,0.0,0.0,0.0,0.0,0.0,0.0,0.0,0.0,0.0,0.0,0.0,0.0,0.0,0.0,0.0,0.0,0.0,0.0,0.0,0.0,0.0,0.0,0.0,0.0,0.0,0.0,0.0,0.0,0.0,0.0,0.0,0.0,0.0,0.0,0.0,0.0,0.0,0.0,0.0,0.0,0.0,0.0,0.0,0.0,0.0,0.0,0.0,0.0,0.0,0.0,0.0,0.0,0.0,0.0,0.0,0.0,0.0,0.0,0.0,0.0,0.0,0.0,0.0,0.0,0.0,0.0,0.0,0.0,0.0,0.0,0.0,0.0,0.0,0.0,0.0,0.0,0.0,0.0,0.0,0.0,0.0,0.0,0.0,0.0,0.0,0.0,0.0,0.0,0.0,0.0,0.0,0.0,0.0,0.0,0.0,0.0,0.0,0.0,0.0,0.0,0.0,0.0,0.0,0.0,0.0,0.0,0.0,0.0,0.0,0.0,0.0,0.0,0.0,0.0,0.0,0.0,0.0,0.0,0.0,0.0,0.0,0.0,0.0,0.0,0.0,0.0,0.0,0.0,0.0,0.0,0.0,0.0,0.0,0.0,0.0,0.0,0.0,0.0,0.0,0.0,0.0,0.0,0.0,0.0,0.0,0.0,0.0,0.0,0.0,0.0,0.0,0.0,0.0,0.0,0.0,0.0,0.0,0.0,0.0,0.0,0.0,0.0,0.0,0.0,0.0,0.0,0.0,0.0,0.0,0.0,0.0,0.0,0.0,0.0,0.0,0.0,0.0,0.0,0.0,0.0,0.0,0.0,0.0,0.0,0.0,0.0,0.0,0.0,0.0,0.0,0.0,0.0,0.0,0.0,0.0,0.0,0.0,0.0,0.0,0.0,0.0,0.0,0.0,0.0,0.0,0.0,0.0,0.0,0.0,0.0,0.0,0.0,0.0,0.0,0.0,0.0,0.0,0.0,0.0,0.0,0.0,0.0,0.0,0.0,0.0,0.0,0.0,0.0,0.0,0.0,0.0,0.0,0.0,0.0,0.0,0.0,0.0,0.0,0.0,0.0,0.0,0.0,0.0,0.0,0.0,0.0,0.0,0.0,0.0,0.0,0.0,0.0,0.0,0.0,0.0,0.0,0.0,0.0,0.0,0.0,0.0,0.0,0.0,0.0,0.0,0.0,0.0,0.0,0.0,0.0,0.0,0.0,0.0,0.0,0.0,0.0,0.0,0.0,0.0,0.0,0.0,0.0,0.0,0.0,0.0,0.0,0.0,0.0,0.0,0.0,0.0,0.0,0.0,0.0,0.0,0.0,0.0,0.0,0.0,0.0,0.0,0.0,0.0,0.0,0.0,0.0,0.0,0.0,0.0,0.0,0.0,0.0,0.0,0.0,0.0,0.0,0.0,0.0,0.0,0.0,0.0,0.0,0.0,0.0,0.0,0.0,0.0,0.0,0.0,0.0,0.0,0.0,0.0,0.0,0.0,0.0,0.0,0.0,0.0,0.0,0.0,0.0,0.0,0.0,0.0,0.0,0.0,0.0,0.0,0.0,0.0,0.0,0.0,0.0,0.0,0.0,0.0,0.0,0.0,0.0,0.0,0.0,0.0,0.0,0.0,0.0,0.0,0.0,0.0,0.0,0.0,0.0,0.0,0.0,0.0,0.0,0.0,0.0,0.0,0.0,0.0,0.0,0.0,0.0,0.0,0.0,0.0,0.0,0.0,0.0,0.0,0.0,0.0,0.0,0.0,0.0,0.0,0.0,0.0,0.0,0.0,0.0,0.0,0.0,0.0,0.0,0.0,0.0,0.0,0.0,0.0,0.0,0.0,0.0,0.0,0.0,0.0,0.0,0.0,0.0,0.0,0.0,0.0,0.0,0.0,0.0,0.0,0.0,0.0,0.0,0.0,0.0,0.0,0.0,0.0,0.0,0.0,0.0,0.0,0.0,0.0,0.0,0.0,0.0,0.0,0.0,0.0,0.0,0.0,0.0,0.0,0.0,0.0,0.0,0.0,0.0,0.0,0.0,0.0,0.0,0.0,0.0,0.0,0.0,0.0,0.0,0.0,0.0,0.0,0.0,0.0,0.0,0.0,0.0,0.0,0.0,0.0,0.0,0.0,0.0,0.0,0.0,0.0,0.0,0.0,0.0,0.0,0.0,0.0,0.0,0.0,0.0,0.0,0.0,0.0,0.0,0.0,0.0,0.0,0.0,0.0,0.0,0.0,0.0,0.0,0.0,0.0,0.0,0.0,0.0,0.0,0.0,0.0,0.0,0.0,0.0,0.0,0.0,0.0,0.0,0.0,0.0,0.0,0.0,0.0,0.0,0.0,0.0,0.0,0.0,0.0,0.0,0.0,0.0,0.0,0.0,0.0,0.0,0.0,0.0,0.0,0.0,0.0,0.0,0.0,0.0,0.0,0.0,0.0,0.0,0.0,0.0,0.0,0.0,0.0,0.0,0.0,0.0,0.0,0.0,0.0,0.0,0.0,0.0,0.0,0.0,0.0,0.0,0.0,0.0,0.0,0.0,0.0,0.0,0.0,0.0,0.0,0.0,0.0,0.0,0.0,0.0,0.0,0.0,0.0,0.0,0.0,0.0,0.0,0.0,0.0,0.0,0.0,0.0,0.0,0.0,0.0,0.0,0.0,0.0,0.0,0.0,0.0,0.0,0.0,0.0,0.0,0.0,0.0,0.0,0.0,0.0,0.0,0.0,0.0,0.0,0.0,0.0,0.0,0.0,0.0,0.0,0.0,0.0,1.6652,0.0,0.0,0.0,0.0,0.0,0.0,0.0,0.0,0.0,0.0,0.0,0.0,0.0,0.0,0.0,0.0,0.0,0.0,0.0,0.0,0.0,0.0,0.0,0.0,0.0,0.0,0.0,0.0,0.0,0.0,0.0,0.0,0.0,0.0,0.0,0.0,0.0,0.0,0.0,0.0,0.0,0.0,0.0,0.0,0.0,0.0,0.0,0.0,0.0,0.0,0.0,0.0,0.0,0.0,0.0,0.0,0.0,0.0,0.0,0.0,0.0,0.0,0.0,0.0,0.0,0.0,0.0,0.0,0.0,0.0,0.0,0.0,0.0,0.0,0.0,0.0,0.0,0.0,0.0,0.0,0.0,0.0,0.0,0.0,0.0,0.0,0.0,0.0,0.0,0.0,0.0,0.0,0.0,0.0,0.0,0.0,0.0,0.0,0.0,0.0,0.0,0.0,0.0,0.0,0.0,0.0,0.0,0.0,0.0,0.0,1.6571,1.7194,1.7275,1.7319,1.7228,0.0,0.0,0.0,0.0,0.0,0.0,0.0,0.0,0.0,0.0,0.0,0.0,0.0,0.0,0.0,0.0,0.0,0.0,0.0,0.0,0.0,0.0,0.0,0.0,0.0,0.0,0.0,0.0,0.0,0.0,0.0,0.0,0.0,0.0,0.0,0.0,0.0,0.0,0.0,0.0,0.0,0.0,0.0,0.0,0.0,0.0,0.0,0.0,0.0,0.0,0.0,0.0,0.0,0.0,0.0,0.0,0.0,0.0,0.0,0.0,0.0,0.0,0.0,0.0,0.0,0.0,0.0,0.0,0.0,0.0,0.0,0.0,0.0,0.0,0.0,0.0,0.0,0.0,0.0,0.0,0.0,0.0,0.0,0.0,0.0,0.0,0.0,0.0,0.0,0.0,0.0,0.0,0.0,0.0,0.0,0.0,0.0,0.0,0.0,0.0,0.0,0.0,0.0,0.0,0.0,0.0,0.0,0.0,0.0,0.0,0.0,0.0,1.7915,1.7868,1.7542,0.0,0.0,0.0,0.0,0.0,0.0,0.0,0.0,0.0,0.0,0.0,0.0,0.0,0.0,0.0,0.0,0.0,0.0,0.0,0.0,0.0,0.0,0.0,0.0,0.0,0.0,0.0,0.0,0.0,0.0,0.0,0.0,0.0,0.0,0.0,0.0,0.0,0.0,0.0,0.0,0.0,0.0,0.0,0.0,0.0,0.0,0.0,0.0,0.0,0.0,0.0,0.0,0.0,0.0,0.0,0.0,0.0,0.0,0.0,0.0,0.0,0.0,0.0,0.0,0.0,0.0,0.0,0.0,0.0,0.0,0.0,0.0,0.0,0.0,0.0,0.0,0.0,0.0,0.0,0.0,0.0,0.0,0.0,0.0,0.0,0.0,0.0,0.0,0.0,0.0,0.0,0.0,0.0,0.0,0.0,0.0,0.0,0.0,0.0,0.0,0.0,0.0,0.0,0.0,0.0,0.0,0.0,0.0,0.0,0.0,1.771,1.813,1.8038,0.0,1.7743,0.0,0.0,0.0,0.0,0.0,0.0,0.0,0.0,0.0,0.0,0.0,0.0,0.0,0.0,0.0,0.0,0.0,0.0,0.0,0.0,0.0,0.0,0.0,0.0,0.0,0.0,0.0,0.0,0.0,0.0,0.0,0.0,0.0,0.0,0.0,0.0,0.0,0.0,0.0,0.0,0.0,0.0,0.0,0.0,0.0,0.0,0.0,0.0,0.0,0.0,0.0,0.0,0.0,0.0,0.0,0.0,0.0,0.0,0.0,0.0,0.0,0.0,0.0,0.0,0.0,0.0,0.0,0.0,0.0,0.0,0.0,0.0,0.0,0.0,0.0,0.0,0.0,0.0,0.0,0.0,0.0,0.0,0.0,0.0,0.0,0.0,0.0,0.0,0.0,0.0,0.0,0.0,0.0,0.0,0.0,0.0,0.0,0.0,0.0,0.0,0.0,0.0,0.0,0.0,0.0,0.0,0.0,0.0,0.0,0.0,0.0,1.7316,1.7293,1.7321,0.0,0.0,0.0,0.0,0.0,0.0,0.0,0.0,0.0,0.0,0.0,0.0,0.0,0.0,0.0,0.0,0.0,0.0,0.0,0.0,0.0,0.0,0.0,0.0,0.0,0.0,0.0,0.0,0.0,0.0,0.0,0.0,0.0,0.0,0.0,0.0,0.0,0.0,0.0,0.0,0.0,0.0,0.0,0.0,0.0,0.0,0.0,0.0,0.0,0.0,0.0,0.0,0.0,0.0,0.0,0.0,0.0,0.0,0.0,0.0,0.0,0.0,0.0,0.0,0.0,0.0,0.0,0.0,0.0,0.0,0.0,0.0,0.0,0.0,0.0,0.0,0.0,0.0,0.0,0.0,0.0,0.0,0.0,0.0,0.0,0.0,0.0,0.0,0.0,0.0,0.0,0.0,0.0,0.0,0.0,0.0,0.0,0.0,0.0,0.0,0.0,0.0,0.0,0.0,0.0,0.0,0.0,0.0,0.0,0.0,1.6986,0.0,1.6226,1.6259,1.6388,1.6638,0.0,0.0,0.0,0.0,0.0,0.0,0.0,0.0,0.0,0.0,0.0,0.0,0.0,0.0,0.0,0.0,0.0,0.0,0.0,0.0,0.0,0.0,0.0,0.0,0.0,0.0,0.0,0.0,0.0,0.0,0.0,0.0,0.0,0.0,0.0,0.0,0.0,0.0,0.0,0.0,0.0,0.0,0.0,0.0,0.0,0.0,0.0,0.0,0.0,0.0,0.0,0.0,0.0,0.0,0.0,0.0,0.0,0.0,0.0,0.0,0.0,0.0,0.0,0.0,0.0,0.0,0.0,0.0,0.0,0.0,0.0,0.0,0.0,0.0,0.0,0.0,0.0,0.0,0.0,0.0,0.0,0.0,0.0,0.0,0.0,0.0,0.0,0.0,0.0,0.0,0.0,0.0,0.0,0.0,0.0,0.0,0.0,0.0,0.0,0.0,0.0,0.0,0.0,0.0,0.0,0.0,0.0,0.0,0.0,1.6209,1.5169,1.4943,1.4951,1.5223,0.0,0.0,0.0,0.0,0.0,0.0,0.0,0.0,0.0,0.0,0.0,0.0,0.0,0.0,0.0,0.0,0.0,0.0,0.0,0.0,0.0,0.0,0.0,0.0,0.0,0.0,0.0,0.0,0.0,0.0,0.0,0.0,0.0,0.0,0.0,0.0,0.0,0.0,0.0,0.0,0.0,0.0,0.0,0.0,0.0,0.0,0.0,0.0,0.0,0.0,0.0,0.0,0.0,0.0,0.0,0.0,0.0,0.0,0.0,0.0,0.0,0.0,0.0,0.0,0.0,0.0,0.0,0.0,0.0,0.0,0.0,0.0,0.0,0.0,0.0,0.0,0.0,0.0,0.0,0.0,0.0,0.0,0.0,0.0,0.0,0.0,0.0,0.0,0.0,0.0,0.0,0.0,0.0,0.0,0.0,0.0,0.0,0.0,0.0,0.0,0.0,0.0,0.0,0.0,0.0,0.0,0.0,0.0,0.0,1.6245,1.4176,1.2847,1.2413,1.2731,1.3168,0.0,0.0,0.0,0.0,0.0,0.0,0.0,0.0,0.0,0.0,0.0,0.0,0.0,0.0,0.0,0.0,0.0,0.0,0.0,0.0,0.0,0.0,0.0,0.0,0.0,0.0,0.0,0.0,0.0,0.0,0.0,0.0,0.0,0.0,0.0,0.0,0.0,0.0,0.0,0.0,0.0,0.0,0.0,0.0,0.0,0.0,0.0,0.0,0.0,0.0,0.0,0.0,0.0,0.0,0.0,0.0,0.0,0.0,0.0,0.0,0.0,0.0,0.0,0.0,0.0,0.0,0.0,0.0,0.0,0.0,0.0,0.0,0.0,0.0,0.0,0.0,0.0,0.0,0.0,0.0,0.0,0.0,0.0,0.0,0.0,0.0,0.0,0.0,0.0,0.0,0.0,0.0,0.0,0.0,0.0,0.0,0.0,0.0,0.0,0.0,0.0,0.0,0.0,0.0,0.0,0.0,0.0,0.0,0.0,1.4219,0.0,1.1131,0.0,1.1086,1.1735,0.0,0.0,0.0,0.0,0.0,0.0,0.0,0.0,0.0,0.0,0.0,0.0,0.0,0.0,0.0,0.0,0.0,0.0,0.0,0.0,0.0,0.0,0.0,0.0,0.0,0.0,0.0,0.0,0.0,0.0,0.0,0.0,0.0,0.0,0.0,0.0,0.0,0.0,0.0,0.0,0.0,0.0,0.0,0.0,0.0,0.0,0.0,0.0,0.0,0.0,0.0,0.0,0.0,0.0,0.0,0.0,0.0,0.0,0.0,0.0,0.0,0.0,0.0,0.0,0.0,0.0,0.0,0.0,0.0,0.0,0.0,0.0,0.0,0.0,0.0,0.0,0.0,0.0,0.0,0.0,0.0,0.0,0.0,0.0,0.0,0.0,0.0,0.0,0.0,0.0,0.0,0.0,0.0,0.0,0.0,0.0,0.0,0.0,0.0,0.0,0.0,0.0,0.0,0.0,0.0,0.0,0.0,0.0,1.3444,1.1877,1.1111,1.0108,0.8971,1.0023,1.1004,0.0,0.0,0.0,0.0,0.0,0.0,0.0,0.0,0.0,0.0,0.0,0.0,0.0,0.0,0.0,0.0,0.0,0.0,0.0,0.0,0.0,0.0,0.0,0.0,0.0,0.0,0.0,0.0,0.0,0.0,0.0,0.0,0.0,0.0,0.0,0.0,0.0,0.0,0.0,0.0,0.0,0.0,0.0,0.0,0.0,0.0,0.0,0.0,0.0,0.0,0.0,0.0,0.0,0.0,0.0,0.0,0.0,0.0,0.0,0.0,0.0,0.0,0.0,0.0,0.0,0.0,0.0,0.0,0.0,0.0,0.0,0.0,0.0,0.0,0.0,0.0,0.0,0.0,0.0,0.0,0.0,0.0,0.0,0.0,0.0,0.0,0.0,0.0,0.0,0.0,0.0,0.0,0.0,0.0,0.0,0.0,0.0,0.0,0.0,0.0,0.0,0.0,0.0,0.0,0.0,0.0,0.0,0.0,0.0,1.0477,0.9368,0.822,0.7055,0.748,0.8155,0.0,0.0,0.0,0.0,0.0,0.0,0.0,0.0,0.0,0.0,0.0,0.0,0.0,0.0,0.0,0.0,0.0,0.0,0.0,0.0,0.0,0.0,0.0,0.0,0.0,0.0,0.0,0.0,0.0,0.0,0.0,0.0,0.0,0.0,0.0,0.0,0.0,0.0,0.0,0.0,0.0,0.0,0.0,0.0,0.0,0.0,0.0,0.0,0.0,0.0,0.0,0.0,0.0,0.0,0.0,0.0,0.0,0.0,0.0,0.0,0.0,0.0,0.0,0.0,0.0,0.0,0.0,0.0,0.0,0.0,0.0,0.0,0.0,0.0,0.0,0.0,0.0,0.0,0.0,0.0,0.0,0.0,0.0,0.0,0.0,0.0,0.0,0.0,0.0,0.0,0.0,0.0,0.0,0.0,0.0,0.0,0.0,0.0,0.0,0.0,0.0,0.0,0.0,0.0,0.0,0.0,0.0,0.0,0.0,0.808,0.7465,0.6572,0.5466,0.5693,0.6426,0.7793,0.0,0.0,0.0,0.0,0.0,0.0,0.0,0.0,0.0,0.0,0.0,0.0,0.0,0.0,0.0,0.0,0.0,0.0,0.0,0.0,0.0,0.0,0.0,0.0,0.0,0.0,0.0,0.0,0.0,0.0,0.0,0.0,0.0,0.0,0.0,0.0,0.0,0.0,0.0,0.0,0.0,0.0,0.0,0.0,0.0,0.0,0.0,0.0,0.0,0.0,0.0,0.0,0.0,0.0,0.0,0.0,0.0,0.0,0.0,0.0,0.0,0.0,0.0,0.0,0.0,0.0,0.0,0.0,0.0,0.0,0.0,0.0,0.0,0.0,0.0,0.0,0.0,0.0,0.0,0.0,0.0,0.0,0.0,0.0,0.0,0.0,0.0,0.0,0.0,0.0,0.0,0.0,0.0,0.0,0.0,0.0,0.0,0.0,0.0,0.0,0.0,0.0,0.0,0.0,0.0,0.0,0.0,0.0,0.4899,0.5277,0.5094,0.4205,0.4475,0.5666,0.0,0.0,0.0,0.0,0.0,0.0,0.0,0.0,0.0,0.0,0.0,0.0,0.0,0.0,0.0,0.0,0.0,0.0,0.0,0.0,0.0,0.0,0.0,0.0,0.0,0.0,0.0,0.0,0.0,0.0,0.0,0.0,0.0,0.0,0.0,0.0,0.0,0.0,0.0,0.0,0.0,0.0,0.0,0.0,0.0,0.0,0.0,0.0,0.0,0.0,0.0,0.0,0.0,0.0,0.0,0.0,0.0,0.0,0.0,0.0,0.0,0.0,0.0,0.0,0.0,0.0,0.0,0.0,0.0,0.0,0.0,0.0,0.0,0.0,0.0,0.0,0.0,0.0,0.0,0.0,0.0,0.0,0.0,0.0,0.0,0.0,0.0,0.0,0.0,0.0,0.0,0.0,0.0,0.0,0.0,0.0,0.0,0.0,0.0,0.0,0.0,0.0,0.0,0.0,0.0,0.0,0.0,0.0,0.0,0.3382,0.2592,0.2309,0.2601,0.2992,0.3777,0.0,0.0,0.0,0.0,0.0,0.0,0.0,0.0,0.0,0.0,0.0,0.0,0.0,0.0,0.0,0.0,0.0,0.0,0.0,0.0,0.0,0.0,0.0,0.0,0.0,0.0,0.0,0.0,0.0,0.0,0.0,0.0,0.0,0.0,0.0,0.0,0.0,0.0,0.0,0.0,0.0,0.0,0.0,0.0,0.0,0.0,0.0,0.0,0.0,0.0,0.0,0.0,0.0,0.0,0.0,0.0,0.0,0.0,0.0,0.0,0.0,0.0,0.0,0.0,0.0,0.0,0.0,0.0,0.0,0.0,0.0,0.0,0.0,0.0,0.0,0.0,0.0,0.0,0.0,0.0,0.0,0.0,0.0,0.0,0.0,0.0,0.0,0.0,0.0,0.0,0.0,0.0,0.0,0.0,0.0,0.0,0.0,0.0,0.0,0.0,0.0,0.0,0.0,0.0,0.0,0.0,0.0,0.0,0.2837,0.1745,0.0695,0.0276,0.0637,0.1392,0.2426,0.0,0.0,0.0,0.0,0.0,0.0,0.0,0.0,0.0,0.0,0.0,0.0,0.0,0.0,0.0,0.0,0.0,0.0,0.0,0.0,0.0,0.0,0.0,0.0,0.0,0.0,0.0,0.0,0.0,0.0,0.0,0.0,0.0,0.0,0.0,0.0,0.0,0.0,0.0,0.0,0.0,0.0,0.0,0.0,0.0,0.0,0.0,0.0,0.0,0.0,0.0,0.0,0.0,0.0,0.0,0.0,0.0,0.0,0.0,0.0,0.0,0.0,0.0,0.0,0.0,0.0,0.0,0.0,0.0,0.0,0.0,0.0,0.0,0.0,0.0,0.0,0.0,0.0,0.0,0.0,0.0,0.0,0.0,0.0,0.0,0.0,0.0,0.0,0.0,0.0,0.0,0.0,0.0,0.0,0.0,0.0,0.0,0.0,0.0,0.0,0.0,0.0,0.0,0.0,0.0,0.0,0.0,0.0,0.1198,0.0,-0.0696,-0.1184,-0.1329,-0.0095,0.1378,0.0,0.0,0.0,0.0,0.0,0.0,0.0,0.0,0.0,0.0,0.0,0.0,0.0,0.0,0.0,0.0,0.0,0.0,0.0,0.0,0.0,0.0,0.0,0.0,0.0,0.0,0.0,0.0,0.0,0.0,0.0,0.0,0.0,0.0,0.0,0.0,0.0,0.0,0.0,0.0,0.0,0.0,0.0,0.0,0.0,0.0,0.0,0.0,0.0,0.0,0.0,0.0,0.0,0.0,0.0,0.0,0.0,0.0,0.0,0.0,0.0,0.0,0.0,0.0,0.0,0.0,0.0,0.0,0.0,0.0,0.0,0.0,0.0,0.0,0.0,0.0,0.0,0.0,0.0,0.0,0.0,0.0,0.0,0.0,0.0,0.0,0.0,0.0,0.0,0.0,0.0,0.0,0.0,0.0,0.0,0.0,0.0,0.0,0.0,0.0,0.0,0.0,0.0,0.0,0.0,0.0,0.0,0.0,-0.025,-0.1248,-0.186,-0.2232,-0.2368,-0.0976,0.0449,0.0,0.0,0.0,0.0,0.0,0.0,0.0,0.0,0.0,0.0,0.0,0.0,0.0,0.0,0.0,0.0,0.0,0.0,0.0,0.0,0.0,0.0,0.0,0.0,0.0,0.0,0.0,0.0,0.0,0.0,0.0,0.0,0.0,0.0,0.0,0.0,0.0,0.0,0.0,0.0,0.0,0.0,0.0,0.0,0.0,0.0,0.0,0.0,-0.9622,0.0,0.0,0.0,0.0,0.0,0.0,0.0,0.0,0.0,0.0,0.0,0.0,0.0,0.0,0.0,0.0,0.0,0.0,0.0,0.0,0.0,0.0,0.0,0.0,0.0,0.0,0.0,0.0,0.0,0.0,0.0,0.0,0.0,0.0,0.0,0.0,0.0,0.0,0.0,0.0,0.0,0.0,0.0,0.0,0.0,0.0,0.0,0.0,0.0,0.0,0.0,0.0,0.0,0.0,0.0,0.0,0.0,0.0,0.0,-0.1653,-0.2498,-0.3021,-0.3286,-0.3314,-0.2578,-0.1176,0.0,0.0,0.0,0.0,0.0,0.0,0.0,0.0,0.0,0.0,0.0,0.0,0.0,0.0,0.0,0.0,0.0,0.0,0.0,0.0,0.0,0.0,0.0,0.0,0.0,0.0,0.0,0.0,0.0,0.0,0.0,0.0,0.0,0.0,0.0,0.0,0.0,0.0,0.0,0.0,0.0,0.0,0.0,0.0,0.0,0.0,0.0,0.0,0.0,0.0,0.0,0.0,0.0,0.0,0.0,0.0,0.0,0.0,0.0,0.0,0.0,0.0,0.0,0.0,0.0,0.0,0.0,0.0,0.0,0.0,0.0,0.0,0.0,0.0,0.0,0.0,0.0,0.0,0.0,0.0,0.0,0.0,0.0,0.0,0.0,0.0,0.0,0.0,0.0,0.0,0.0,0.0,0.0,0.0,0.0,0.0,0.0,0.0,0.0,0.0,0.0,0.0,0.0,0.0,0.0,0.0,0.0,-0.1971,-0.2897,-0.3667,-0.4022,-0.4266,-0.4312,-0.4298,-0.3143,-0.078,0.0,0.0,0.0,0.0,0.0,0.0,0.0,0.0,0.0,0.0,0.0,0.0,0.0,0.0,0.0,0.0,0.0,0.0,0.0,0.0,0.0,0.0,0.0,0.0,0.0,0.0,0.0,0.0,0.0,0.0,0.0,0.0,0.0,0.0,0.0,0.0,0.0,0.0,-0.8786,-0.9377,0.0,0.0,0.0,0.0,0.0,0.0,0.0,0.0,-1.3099,0.0,0.0,0.0,0.0,0.0,0.0,0.0,0.0,0.0,0.0,0.0,0.0,0.0,0.0,0.0,0.0,0.0,0.0,0.0,0.0,0.0,0.0,0.0,0.0,0.0,0.0,0.0,0.0,0.0,0.0,0.0,0.0,0.0,0.0,0.0,0.0,0.0,0.0,0.0,0.0,0.0,0.0,0.0,0.0,0.0,0.0,0.0,0.0,0.0,0.0,0.0,0.0,0.0,0.0,0.0,0.0,-0.1548,-0.2661,-0.3598,-0.4386,-0.4687,-0.4966,-0.5234,-0.5385,-0.4906,-0.3819,0.0,0.0,0.0,0.0,0.0,0.0,0.0,0.0,0.0,0.0,0.0,0.0,0.0,0.0,0.0,0.0,0.0,0.0,0.0,0.0,0.0,0.0,0.0,0.0,0.0,0.0,0.0,0.0,0.0,0.0,0.0,0.0,0.0,0.0,0.0,0.0,0.0,0.0,0.0,-1.0733,-1.1583,0.0,0.0,0.0,0.0,0.0,0.0,0.0,0.0,-1.5818,0.0,0.0,0.0,0.0,0.0,0.0,0.0,0.0,0.0,0.0,0.0,0.0,0.0,0.0,0.0,0.0,0.0,0.0,0.0,0.0,0.0,0.0,0.0,0.0,0.0,0.0,0.0,0.0,0.0,0.0,0.0,0.0,0.0,0.0,0.0,0.0,0.0,0.0,0.0,0.0,0.0,0.0,0.0,0.0,0.0,0.0,0.0,0.0,0.0,0.0,0.0,0.0,0.0,0.0,0.0,-0.2381,-0.3519,-0.4416,-0.4996,-0.5338,-0.5663,-0.5913,-0.611,-0.6058,0.0,0.0,0.0,0.0,0.0,0.0,0.0,0.0,0.0,0.0,0.0,0.0,0.0,0.0,0.0,0.0,0.0,0.0,0.0,0.0,0.0,0.0,0.0,0.0,0.0,0.0,0.0,0.0,0.0,0.0,0.0,0.0,0.0,0.0,0.0,0.0,0.0,0.0,0.0,0.0,-1.219,-1.3016,-1.4119,0.0,0.0,0.0,0.0,0.0,0.0,-1.6591,-1.7879,0.0,0.0,0.0,0.0,0.0,0.0,0.0,0.0,0.0,0.0,0.0,0.0,0.0,0.0,0.0,0.0,0.0,0.0,0.0,0.0,0.0,0.0,0.0,0.0,0.0,0.0,0.0,0.0,0.0,0.0,0.0,0.0,0.0,0.0,0.0,0.0,0.0,0.0,0.0,0.0,0.0,0.0,0.0,0.0,0.0,0.0,0.0,0.0,0.0,0.0,0.0,0.0,0.0,0.0,0.0,-0.3195,-0.4337,-0.5135,-0.553,-0.5979,-0.6307,-0.651,-0.6768,-0.6962,0.0,0.0,0.0,0.0,0.0,0.0,0.0,0.0,0.0,0.0,0.0,0.0,0.0,0.0,0.0,0.0,0.0,0.0,0.0,0.0,0.0,0.0,0.0,0.0,0.0,0.0,0.0,0.0,0.0,0.0,0.0,0.0,0.0,0.0,0.0,0.0,0.0,0.0,0.0,0.0,0.0,-1.4603,-1.554,-1.5881,0.0,0.0,0.0,0.0,-1.7027,-1.8478,0.0,0.0,0.0,0.0,0.0,0.0,0.0,0.0,0.0,0.0,0.0,0.0,0.0,0.0,0.0,0.0,0.0,0.0,0.0,0.0,0.0,0.0,0.0,0.0,0.0,0.0,0.0,0.0,0.0,0.0,0.0,0.0,0.0,0.0,0.0,0.0,0.0,0.0,0.0,0.0,0.0,0.0,0.0,0.0,0.0,0.0,0.0,0.0,0.0,0.0,0.0,0.0,0.0,0.0,0.0,0.0,-0.3873,-0.4784,-0.552,-0.6108,-0.6614,-0.6979,-0.7286,-0.7458,-0.7848,0.0,0.0,0.0,0.0,0.0,0.0,0.0,0.0,0.0,0.0,0.0,0.0,0.0,0.0,0.0,0.0,0.0,0.0,0.0,0.0,0.0,0.0,0.0,0.0,0.0,0.0,0.0,0.0,0.0,0.0,0.0,0.0,0.0,0.0,0.0,0.0,0.0,0.0,0.0,0.0,0.0,-1.6574,-1.6929,-1.7436,-1.7807,0.0,0.0,-1.8147,-1.8644,-2.0422,0.0,0.0,0.0,0.0,0.0,0.0,0.0,0.0,0.0,0.0,0.0,0.0,0.0,0.0,0.0,0.0,0.0,0.0,0.0,0.0,0.0,0.0,0.0,0.0,0.0,0.0,0.0,0.0,0.0,0.0,0.0,0.0,0.0,0.0,0.0,0.0,0.0,0.0,0.0,0.0,0.0,0.0,0.0,0.0,0.0,0.0,0.0,0.0,0.0,0.0,0.0,0.0,0.0,0.0,0.0,-0.3722,-0.478,-0.5466,-0.611,-0.6738,-0.7196,-0.7579,-0.7961,-0.8044,-0.8549,0.0,0.0,0.0,0.0,0.0,0.0,0.0,0.0,0.0,0.0,0.0,0.0,0.0,0.0,0.0,0.0,0.0,0.0,0.0,0.0,0.0,0.0,0.0,0.0,0.0,0.0,0.0,0.0,0.0,0.0,0.0,0.0,0.0,0.0,0.0,0.0,0.0,0.0,0.0,0.0,0.0,0.0,-1.879,-1.9195,0.0,0.0,0.0,-2.0345,-2.1204,0.0,0.0,0.0,0.0,0.0,0.0,0.0,0.0,0.0,0.0,0.0,0.0,0.0,0.0,0.0,0.0,0.0,0.0,0.0,0.0,0.0,0.0,0.0,0.0,0.0,0.0,0.0,0.0,0.0,0.0,0.0,0.0,0.0,0.0,0.0,0.0,0.0,0.0,0.0,0.0,0.0,0.0,0.0,0.0,0.0,0.0,0.0,0.0,0.0,0.0,0.0,0.0,0.0,0.0,0.0,0.0,0.0,-0.5807,-0.6246,-0.679,-0.7436,-0.7821,-0.8205,-0.8537,-0.8574,0.0,0.0,0.0,0.0,0.0,0.0,0.0,0.0,0.0,0.0,0.0,0.0,0.0,0.0,0.0,0.0,0.0,0.0,0.0,0.0,0.0,0.0,0.0,0.0,0.0,0.0,0.0,-1.8375,0.0,0.0,0.0,0.0,0.0,0.0,0.0,0.0,0.0,0.0,0.0,0.0,0.0,0.0,-2.0175,-2.0695,-2.0964,-2.1212,0.0,0.0,-2.2578,-2.361,-2.4952,-2.6327,0.0,0.0,0.0,0.0,0.0,0.0,0.0,0.0,0.0,0.0,0.0,0.0,0.0,0.0,0.0,0.0,0.0,0.0,0.0,0.0,0.0,0.0,0.0,0.0,0.0,0.0,0.0,0.0,0.0,0.0,0.0,0.0,0.0,0.0,0.0,0.0,0.0,0.0,0.0,0.0,0.0,0.0,0.0,0.0,0.0,0.0,0.0,0.0,0.0,0.0,0.0,0.0,0.0,0.0,0.0,-0.7044,-0.718,-0.7523,-0.8136,-0.8643,-0.8935,-0.8975,-0.9172,-0.9801,0.0,0.0,0.0,0.0,0.0,0.0,0.0,0.0,0.0,0.0,0.0,0.0,0.0,0.0,0.0,0.0,0.0,0.0,0.0,0.0,0.0,0.0,0.0,0.0,0.0,0.0,0.0,0.0,0.0,0.0,0.0,0.0,0.0,0.0,0.0,0.0,0.0,0.0,0.0,0.0,0.0,-2.2242,-2.2498,-2.2633,-2.279,0.0,0.0,-2.443,-2.5381,-2.6601,-2.7807,-2.8908,0.0,0.0,0.0,0.0,0.0,0.0,0.0,0.0,0.0,0.0,0.0,0.0,0.0,0.0,0.0,0.0,0.0,0.0,0.0,0.0,0.0,0.0,0.0,0.0,0.0,0.0,0.0,0.0,0.0,0.0,0.0,0.0,0.0,0.0,0.0,0.0,0.0,0.0,0.0,0.0,0.0,0.0,0.0,0.0,0.0,0.0,0.0,0.0,0.0,0.0,0.0,0.0,0.0,-0.7603,-0.8231,-0.8448,-0.8669,-0.8999,-0.931,-0.9597,-0.9809,-0.9878,-1.0504,0.0,0.0,0.0,0.0,0.0,0.0,0.0,0.0,0.0,0.0,0.0,0.0,0.0,0.0,0.0,0.0,0.0,0.0,0.0,0.0,0.0,0.0,0.0,0.0,0.0,0.0,0.0,0.0,-2.1375,-2.1829,-2.2354,0.0,0.0,0.0,0.0,0.0,0.0,0.0,0.0,0.0,0.0,-2.3811,-2.3846,-2.4084,0.0,0.0,-2.5354,-2.6152,-2.6952,-2.7899,-2.8808,-2.9535,-3.0117,0.0,0.0,0.0,0.0,0.0,0.0,0.0,0.0,0.0,0.0,0.0,0.0,0.0,0.0,0.0,0.0,0.0,0.0,0.0,0.0,0.0,0.0,0.0,0.0,0.0,0.0,0.0,0.0,0.0,0.0,0.0,0.0,0.0,0.0,0.0,0.0,0.0,0.0,0.0,0.0,0.0,0.0,0.0,0.0,0.0,0.0,0.0,0.0,0.0,0.0,0.0,0.0,-0.9214,-0.9438,-0.9596,-0.9742,-0.976,-0.9981,-1.0225,-1.0462,-1.0539,-1.1153,0.0,0.0,0.0,0.0,0.0,0.0,0.0,0.0,0.0,0.0,0.0,0.0,0.0,0.0,0.0,0.0,0.0,0.0,0.0,0.0,0.0,0.0,0.0,0.0,0.0,0.0,0.0,0.0,-2.2393,-2.2627,-2.3199,0.0,0.0,0.0,0.0,0.0,0.0,0.0,0.0,0.0,0.0,-2.502,-2.509,-2.5341,-2.5684,-2.608,-2.6762,-2.7492,-2.8166,-2.9098,-2.9926,-3.0349,0.0,0.0,0.0,0.0,0.0,0.0,0.0,0.0,0.0,0.0,0.0,0.0,0.0,0.0,0.0,0.0,0.0,0.0,0.0,0.0,0.0,0.0,0.0,0.0,0.0,0.0,0.0,0.0,0.0,0.0,0.6489,0.0,0.0,0.0,0.0,0.0,0.0,0.0,0.0,0.0,0.0,0.0,0.0,0.0,0.0,0.0,0.0,0.0,0.0,0.0,0.0,0.0,0.0,-1.078,-1.0686,-1.0596,-1.0526,-1.04,-1.0562,-1.0759,-1.0883,-1.1132,-1.1729,-1.2712,0.0,0.0,0.0,0.0,0.0,0.0,0.0,0.0,0.0,0.0,0.0,0.0,0.0,0.0,0.0,0.0,0.0,0.0,0.0,0.0,0.0,0.0,0.0,0.0,0.0,0.0,-2.2457,-2.2919,-2.3559,0.0,0.0,0.0,0.0,0.0,0.0,0.0,0.0,0.0,0.0,-2.6046,-2.599,-2.6225,-2.6385,-2.6673,-2.7234,-2.7754,-2.8319,-2.8975,-3.0179,-3.1172,0.0,0.0,0.0,0.0,0.0,0.0,0.0,0.0,0.0,0.0,0.0,0.0,0.0,0.0,0.0,0.0,0.0,0.0,0.0,0.0,0.0,0.0,0.0,0.0,0.0,0.0,0.0,0.667,0.5951,0.0,0.0,0.0,0.0,0.0,0.0,0.0,0.0,0.0,0.0,0.0,-0.9781,-1.1191,0.0,0.0,0.0,0.0,0.0,0.0,0.0,0.0,0.0,0.0,0.0,0.0,-1.2144,-1.1601,-1.1767,-1.1582,-1.1045,-1.1132,-1.1324,-1.1516,-1.1695,-1.2472,-1.3775,0.0,0.0,0.0,0.0,0.0,0.0,0.0,0.0,0.0,0.0,0.0,0.0,0.0,0.0,0.0,0.0,0.0,0.0,0.0,0.0,0.0,0.0,0.0,0.0,0.0,-2.3477,0.0,0.0,0.0,0.0,0.0,0.0,0.0,0.0,0.0,0.0,0.0,-2.6865,-2.659,-2.6452,-2.639,-2.6495,-2.6832,-2.726,0.0,0.0,0.0,0.0,0.0,0.0,0.0,0.0,0.0,0.0,0.0,0.0,0.0,0.0,-2.9839,-2.9513,-2.937,-2.9271,-2.92,0.0,0.0,0.0,0.0,0.0,0.0,0.0,0.0,0.0,0.0,0.0,0.0,0.0,0.0,0.5039,0.0,0.366,0.0,0.0,0.0,0.0,0.0,0.0,0.0,0.0,-0.8714,-1.0418,-1.196,-1.313,-1.4,0.0,-1.4982,-1.4903,0.0,0.0,0.0,0.0,0.0,0.0,0.0,0.0,-1.3366,-1.2807,-1.2786,-1.2481,-1.1833,-1.171,-1.1732,-1.192,-1.2318,-1.311,-1.4369,-1.5352,-1.6383,0.0,0.0,0.0,0.0,0.0,0.0,0.0,0.0,0.0,0.0,0.0,0.0,0.0,0.0,0.0,0.0,0.0,0.0,0.0,0.0,0.0,0.0,0.0,-2.4327,0.0,0.0,0.0,0.0,0.0,0.0,0.0,0.0,0.0,-2.7884,-2.7531,-2.7181,-2.6915,-2.6808,-2.68,-2.6784,0.0,0.0,0.0,0.0,0.0,0.0,0.0,-3.0708,-3.0916,-3.1226,-3.1369,-3.1111,-3.1001,-3.08,-3.0323,0.0,0.0,-2.9589,-2.9431,-2.9326,-2.9274,-2.9243,-2.9181,-2.9121,-2.9012,-2.8887,0.0,0.0,0.0,0.0,0.0,0.0,0.0,0.0,0.4109,0.2854,0.0,0.1444,0.0,0.0,0.0,0.0,0.0,-0.5294,0.0,0.0,-1.0922,-1.2551,-1.3939,-1.4835,-1.5576,-1.6151,-1.6367,-1.6417,-1.6219,-1.5181,0.0,0.0,0.0,0.0,0.0,0.0,-1.4479,-1.4183,-1.3695,-1.3196,-1.2697,-1.2198,-1.201,-1.2113,-1.2865,-1.3609,-1.4367,-1.5219,-1.608,-1.6955,-1.7862,0.0,0.0,0.0,0.0,0.0,0.0,0.0,0.0,0.0,0.0,0.0,0.0,0.0,0.0,0.0,0.0,0.0,0.0,0.0,0.0,-2.4303,0.0,0.0,0.0,0.0,0.0,0.0,0.0,0.0,0.0,0.0,-2.8118,-2.7745,-2.7417,-2.7221,0.0,0.0,0.0,0.0,-2.7849,-2.8219,-2.8634,-2.9089,-2.9608,-3.0549,-3.1288,-3.1475,0.0,0.0,-3.1874,-3.1729,-3.1409,-3.0473,-3.0132,-2.9909,-2.9673,-2.9482,-2.9401,-2.9388,-2.9289,-2.9194,-2.9121,-2.8994,-2.8859,0.6961,0.0,0.0,0.0,0.0,0.639,0.5219,0.3759,0.2467,0.104,-0.0281,-0.0785,0.0,0.0,0.0,0.0,0.0,0.0,-0.9373,-1.1296,-1.2794,-1.4163,-1.5508,-1.6244,-1.6782,-1.7076,-1.707,-1.6951,-1.6661,-1.6101,-1.568,-1.5396,0.0,0.0,0.0,0.0,-1.4873,-1.4448,-1.4275,-1.3789,-1.2919,-1.2709,-1.2568,-1.2532,-1.3076,-1.3635,-1.4149,-1.4932,-1.5741,-1.661,-1.7479,0.0,0.0,0.0,0.0,0.0,0.0,0.0,0.0,0.0,0.0,0.0,0.0,0.0,0.0,0.0,0.0,0.0,0.0,0.0,-2.4326,-2.4977,-2.5533,0.0,0.0,0.0,0.0,0.0,0.0,0.0,0.0,0.0,-2.8126,-2.7795,-2.7526,0.0,0.0,-2.7341,-2.7333,-2.7659,-2.7961,-2.8129,-2.856,0.0,0.0,-2.9858,-3.0241,-3.0485,-3.0873,-3.1062,-3.0835,-3.0805,-3.0683,-3.0347,-3.0185,-2.9988,-2.979,-2.9541,-2.9401,-2.9316,-2.9304,-2.9209,-2.9053,-2.8957,-2.8845,0.5609,0.5996,0.6385,0.6246,0.569,0.4735,0.345,0.2014,0.0474,-0.0932,-0.2321,-0.3047,-0.3795,-0.4502,-0.5406,0.0,0.0,0.0,-1.1461,-1.3089,-1.4376,-1.5642,-1.6695,-1.7347,-1.7814,-1.8047,-1.7888,-1.768,-1.736,-1.6951,-1.6497,-1.6188,0.0,0.0,-1.5486,-1.5441,-1.5327,-1.4998,-1.4787,-1.4298,-1.3616,-1.3104,-1.2861,-1.2847,-1.3095,-1.344,-1.3941,-1.4575,-1.5367,-1.6227,-1.7084,-1.7893,0.0,0.0,0.0,0.0,0.0,0.0,0.0,0.0,0.0,0.0,0.0,-2.2594,-2.3017,0.0,0.0,0.0,-2.4407,-2.4594,-2.4479,-2.5179,0.0,0.0,0.0,0.0,0.0,0.0,0.0,-2.8498,-2.8318,-2.8145,-2.8023,-2.7795,-2.7608,-2.7487,-2.7465,-2.7496,-2.7474,0.0,-2.8044,-2.8147,-2.8515,-2.8893,-2.9184,-2.9408,-2.9652,-2.9956,-3.017,-3.0292,-3.0311,-3.0333,-3.034,-3.0272,-3.0152,-3.0007,-2.9825,-2.9608,-2.9403,-2.9328,-2.9283,-2.9206,-2.8998,-2.8905,-2.8776,0.4462,0.4176,0.4668,0.4633,0.4174,0.2789,0.1596,0.0425,-0.1517,-0.3048,-0.419,-0.5106,-0.6077,-0.6964,-0.8427,0.0,-1.0576,-1.2009,-1.3329,-1.4563,-1.5847,-1.6864,-1.7673,-1.8217,-1.865,-1.893,-1.8762,-1.8539,-1.8305,-1.768,-1.7201,-1.6911,-1.6144,-1.5798,-1.5792,-1.5754,-1.5754,-1.5792,-1.5238,-1.4746,-1.4444,-1.3397,-1.2942,-1.3135,-1.3035,-1.3251,-1.3713,-1.4361,-1.5091,-1.5913,-1.6797,-1.7604,-1.8287,0.0,0.0,0.0,0.0,0.0,0.0,0.0,0.0,0.0,0.0,0.0,0.0,0.0,0.0,0.0,-2.4494,0.0,-2.4386,-2.517,0.0,0.0,0.0,-2.8036,-2.87,-2.8585,-2.8414,-2.83,0.0,0.0,-2.7906,-2.7786,-2.7663,-2.753,-2.7582,-2.7617,-2.7626,-2.7745,-2.7927,-2.8012,-2.8226,-2.8485,-2.8599,-2.895,-2.9353,-2.9814,-2.9988,-3.0118,-3.0195,-3.0226,-3.0249,-3.0208,-3.0074,-2.9949,-2.9825,-2.9636,-2.9472,-2.9332,-2.9246,-2.9143,-2.8929,-2.8767,-2.8662,0.3853,0.3351,0.3016,0.2859,0.2655,0.1524,0.0397,-0.0799,-0.2395,-0.3853,-0.5219,-0.6323,-0.7791,-0.9404,-1.0273,-1.1269,-1.2401,-1.3412,-1.4539,-1.5728,-1.6725,-1.7619,-1.8376,-1.8907,-1.9244,-1.9332,-1.9251,-1.9035,-1.8662,-1.8101,-1.7591,-1.7122,-1.6565,-1.6175,-1.5957,-1.583,-1.5748,-1.5715,-1.5369,-1.4835,-1.3986,-1.3404,-1.3218,-1.3426,-1.3751,-1.3994,-1.4016,-1.5114,-1.5844,-1.616,-1.7448,-1.8546,-1.9317,-2.0038,0.0,0.0,0.0,0.0,0.0,0.0,0.0,0.0,0.0,-2.3728,-2.4238,0.0,-2.4293,0.0,-2.48,-2.5138,-2.5097,-2.6365,0.0,0.0,-2.8081,-2.8534,-2.8576,-2.8449,-2.8291,-2.8164,-2.8023,-2.7926,-2.7888,-2.7795,-2.749,-2.6953,-2.733,-2.7672,-2.7663,-2.7315,-2.7093,-2.7112,-2.6886,-2.6712,-2.7023,-2.7862,-2.8821,-2.9632,-2.9907,-3.0053,-3.0117,-3.0133,-3.0128,-3.0133,-3.0009,-2.9898,-2.9825,-2.9673,-2.952,-2.9337,-2.9209,-2.9067,-2.8858,-2.8703,-2.8587,0.3631,0.3076,0.2463,0.2016,0.1624,0.0671,-0.0336,-0.1509,-0.3008,-0.4388,-0.5812,-0.7688,-0.9329,-1.0787,-1.1625,-1.2546,-1.3564,-1.4451,-1.5454,-1.6422,-1.7327,-1.8152,-1.8815,-1.9391,-1.9718,-1.9775,-1.9711,-1.9486,-1.9117,-1.8539,-1.7948,-1.7434,-1.6886,-1.6466,-1.6169,-1.5925,-1.5754,-1.5671,-1.5165,-1.4523,-1.3828,-1.3357,-1.3253,-1.351,-1.3901,-1.4198,-1.4406,-1.5449,-1.6187,-1.6561,-1.7668,-1.8678,-1.9468,-2.0168,-2.0804,0.0,0.0,0.0,0.0,0.0,0.0,0.0,0.0,0.0,0.0,0.0,-2.4184,-2.4529,-2.5326,-2.582,-2.5746,-2.6859,-2.7574,-2.7465,-2.8107,-2.8475,-2.8353,-2.8209,-2.8062,-2.7931,-2.7833,-2.7754,-2.7724,-2.7379,-2.6982,-2.6571,-2.6553,-2.6617,-2.6648,-2.638,-2.6224,-2.6251,-2.6096,-2.6066,-2.6286,-2.7373,-2.8341,-2.8924,-2.9481,-2.9881,-2.9959,-2.9988,-3.0019,-3.0003,-2.9924,-2.9833,-2.9755,-2.9626,-2.9451,-2.9295,-2.913,-2.8961,-2.8785,-2.8662,-2.851,0.3633,0.3019,0.2463,0.1792,0.1066,0.0168,-0.0784,-0.1901,-0.3342,-0.4882,-0.6406,-0.8901,-1.0588,-1.1619,-1.2579,-1.3489,-1.4305,-1.5226,-1.6064,-1.6879,-1.7747,-1.8511,-1.9131,-1.9726,-2.0053,-2.0143,-2.0053,-1.9841,-1.9479,-1.8853,-1.8273,-1.7801,-1.7102,-1.6601,-1.6362,-1.5931,-1.562,-1.5531,-1.4743,-1.4145,-1.3763,-1.3263,-1.3236,-1.3645,-1.3891,-1.4279,-1.4862,-1.5637,-1.638,-1.704,-1.7864,-1.8671,-1.9459,-2.0153,-2.0729,0.0,-2.1608,0.0,0.0,0.0,0.0,0.0,0.0,0.0,0.0,-2.3916,-2.4196,-2.4915,-2.5896,-2.6468,-2.6413,-2.7091,-2.7522,-2.7434,-2.7861,-2.8163,-2.8062,-2.7937,-2.7813,-2.7672,-2.7638,-2.7557,-2.7491,-2.6864,-2.6411,-2.6185,-2.5566,-2.5124,-2.5076,-2.5226,-2.5376,-2.5446,-2.5547,-2.5569,-2.609,-2.6973,-2.7725,-2.8145,-2.8886,-2.9586,-2.9736,-2.9833,-2.9884,-2.9869,-2.9798,-2.9746,-2.9664,-2.9502,-2.934,-2.92,-2.903,-2.8815,-2.8694,-2.8578,-2.8423,0.3519,0.2906,0.2406,0.1792,0.1009,0.0168,-0.0784,-0.1902,-0.34,-0.5368,-0.78,-0.9429,-1.0762,-1.1774,-1.2716,-1.3679,-1.4617,-1.5427,-1.6238,-1.715,-1.8014,-1.8777,-1.9339,-1.9833,-2.0166,-2.027,-2.0158,-1.9904,-1.9486,-1.8997,-1.839,-1.772,-1.7164,-1.6663,-1.6237,0.0,0.0,0.0,-1.4285,-1.3863,-1.3515,-1.338,-1.357,-1.4087,-1.4491,0.0,-1.5241,-1.6333,-1.7082,-1.7414,-1.862,0.0,0.0,0.0,0.0,0.0,0.0,0.0,0.0,0.0,0.0,0.0,-2.3491,-2.354,-2.3669,-2.4158,-2.4551,-2.4831,-2.6177,-2.7054,-2.7029,-2.7807,-2.8215,-2.8049,-2.8129,-2.809,-2.7827,-2.7739,-2.7698,-2.7548,-2.7526,-2.7526,-2.7452,-2.6882,-2.6156,-2.5555,-2.4791,-2.4086,-2.3528,-2.4121,-2.4523,-2.4591,-2.4364,-2.4415,-2.5205,-2.5709,-2.6597,-2.7633,-2.8295,-2.883,-2.9429,-2.9654,-2.9747,-2.9719,-2.9692,-2.9579,-2.9472,-2.9379,-2.9252,-2.9085,-2.8881,-2.8712,-2.8637,-2.8475,-2.8291,0.3633,0.0,0.2575,0.1961,0.0,0.0336,-0.0672,-0.1678,-0.3234,-0.542,-0.8078,-0.9384,-1.0622,-1.1729,-1.2672,-1.3637,-1.4582,-1.535,-1.6188,-1.7054,-1.7888,-1.864,-1.9258,-1.9747,-2.0003,-2.0045,-1.9975,-1.9682,-1.9303,-1.8815,-1.8266,-1.772,-1.7102,-1.6614,-1.62,-1.5552,-1.4915,-1.4357,-1.3905,-1.3478,-1.3099,-1.3104,-1.3387,-1.3899,0.0,0.0,0.0,0.0,0.0,0.0,0.0,0.0,0.0,0.0,0.0,-2.2555,-2.2891,-2.3098,-2.3251,-2.3265,-2.3251,-2.3155,-2.3118,-2.3184,-2.3365,-2.4462,-2.5171,-2.5218,-2.6726,-2.7673,-2.7674,-2.8031,-2.8246,-2.8126,-2.8025,-2.7873,-2.7672,-2.76,-2.75,-2.7378,-2.7324,-2.7301,-2.7256,-2.6618,-2.6031,-2.5574,-2.4902,-2.4255,-2.3886,-2.3658,-2.3648,-2.3749,-2.3685,-2.3746,-2.4328,-2.5302,-2.6072,-2.7074,-2.8045,-2.8797,-2.9265,-2.9412,-2.9443,-2.9502,-2.9443,-2.9372,-2.9319,-2.9209,-2.9053,-2.8881,-2.8678,-2.8501,-2.838,-2.8273,-2.8164,0.3858,0.3414,0.2857,0.2238,0.1566,0.056,-0.0504,-0.1676,0.0,0.0,0.0,-0.9134,-1.0372,-1.1547,-1.2477,-1.3399,-1.4373,-1.513,-1.597,-1.6782,-1.7632,-1.8355,-1.9019,-1.9479,-1.9688,-1.9682,-1.9617,-1.9384,-1.8988,-1.8507,-1.8042,-1.755,-1.6964,-1.6423,-1.5963,-1.5271,-1.468,-1.4181,-1.371,-1.3286,-1.2818,-1.292,-1.32,-1.371,-1.4444,-1.5277,-1.615,-1.6879,-1.7571,-1.8279,-1.9035,-1.978,-2.0483,-2.1118,-2.168,-2.2183,-2.2517,-2.2712,-2.2816,-2.2859,-2.2859,-2.2799,-2.2842,-2.2936,-2.3135,-2.4537,-2.541,-2.5367,-2.6774,-2.7645,-2.7653,-2.7644,-2.7607,-2.7496,-2.7355,-2.7236,-2.7282,-2.7226,-2.7111,-2.7132,-2.7094,-2.7038,-2.694,-2.6294,-2.5851,-2.5732,-2.5101,-2.4684,-2.4611,-2.3953,-2.3563,-2.3666,-2.3894,-2.3904,-2.4152,-2.5153,-2.6209,-2.6654,-2.7826,-2.8764,-2.9034,-2.9128,-2.9154,-2.9188,-2.9166,-2.9141,-2.9093,-2.8966,-2.8791,-2.8669,-2.8466,-2.8282,-2.8081,-2.7977,-2.7873,0.4078,0.353,0.3189,0.2516,0.1734,0.0952,-0.0615,-0.2622,-0.4224,-0.5869,-0.7447,-0.8708,-0.995,-1.112,-1.2098,-1.3069,-1.4071,-1.4841,-1.5682,0.0,-1.736,-1.8061,-1.8662,-1.9049,-1.9236,-1.9295,-1.9199,-1.8974,-1.8584,-1.818,-1.774,-1.7118,-1.6606,-1.5976,-1.5283,-1.5,-1.4593,-1.4051,-1.3868,-1.3568,-1.3122,-1.3276,-1.3563,-1.4082,-1.4485,-1.5215,-1.615,-1.6699,-1.7365,-1.8189,-1.8876,-1.9573,-2.0235,-2.0886,-2.144,-2.1832,-2.2084,-2.2281,-2.2468,-2.2479,-2.2487,-2.2487,-2.256,-2.2738,-2.2936,-2.3789,-2.4366,-2.4427,-2.5269,-2.5762,-2.5852,-2.5913,-2.5885,-2.5686,-2.5577,-2.5736,-2.6221,-2.6263,-2.6419,-2.6889,-2.6942,-2.6867,-2.6682,-2.6132,-2.5685,-2.5565,-2.512,-2.4535,-2.463,-2.4653,-2.4791,-2.4894,-2.4977,-2.513,-2.5154,-2.5495,-2.6154,-2.6959,-2.7278,-2.7864,-2.8634,-2.8834,-2.8872,-2.8868,-2.8836,-2.8812,-2.8758,-2.8644,-2.8518,-2.8432,-2.8219,-2.8014,-2.7769,-2.7513,-2.7378,0.4244,0.3747,0.3298,0.2685,0.1958,0.0728,-0.0727,-0.2291,-0.3676,-0.521,-0.6851,-0.8066,-0.928,-1.0517,-1.1438,-1.2384,-1.3389,-1.4236,-1.5011,-1.5846,-1.6678,-1.736,-1.7881,-1.8245,-1.8447,-1.857,-1.8447,-1.818,-1.7848,-1.7564,-1.716,-1.6612,-1.6064,-1.5501,-1.5011,-1.4737,-1.4455,-1.4093,-1.3863,-1.352,-1.3084,-1.3324,-1.3647,-1.4077,-1.4536,-1.522,-1.6044,-1.6644,-1.7262,-1.7982,-1.8738,-1.9406,-1.9965,-2.0556,-2.1063,-2.1487,-2.1738,-2.1915,-2.2061,-2.2147,-2.2203,-2.2285,-2.2377,-2.246,-2.256,-2.3429,-2.4023,-2.4058,-2.4727,-2.5153,-2.5235,-2.5227,-2.5171,-2.504,-2.4991,-2.5214,-2.5697,-2.576,-2.5978,-2.6598,-2.6683,-2.6649,-2.6496,-2.6176,-2.5967,-2.5907,-2.5547,-2.5372,-2.5364,-2.5553,-2.5539,-2.5051,-2.5029,-2.5153,-2.53,-2.5751,-2.624,-2.6747,-2.7201,-2.7656,-2.8228,-2.837,-2.8422,-2.8421,-2.8386,-2.8343,-2.8326,-2.8201,-2.811,-2.8035,-2.7964,-2.7738,-2.7426,-2.7077,-2.6808,0.4465,0.4078,0.352,0.2852,0.2015,0.056,-0.0616,-0.1677,-0.2846,-0.4335,-0.5973,-0.7267,-0.86,-0.9803,-1.0732,-1.1633,-1.256,-1.3494,-1.4288,-1.4994,-1.579,-1.6495,-1.7008,-1.7381,-1.7592,-1.7659,-1.7578,-1.736,-1.7057,-1.686,-1.649,-1.5964,-1.5418,-1.5023,-1.4731,-1.4455,-1.4285,-1.4082,-1.38,-1.3478,-1.3147,-1.3372,-1.3705,-1.4071,-1.4577,-1.5226,-1.5938,-1.6539,-1.7166,-1.7754,-1.8546,-1.9184,-1.9681,-2.02,-2.073,-2.1151,-2.1379,-2.1542,-2.17,-2.1848,-2.1966,-2.2069,-2.2143,-2.2189,-2.2242,-2.2935,-2.3481,-2.3586,-2.3981,-2.4325,-2.4328,-2.4362,-2.4368,-2.429,-2.4385,-2.4623,-2.5209,-2.5352,-2.5665,-2.6301,-2.6407,-2.6312,-2.6233,-2.6181,-2.6112,-2.6033,-2.6054,-2.6054,-2.6054,-2.6118,-2.578,-2.5285,-2.5139,-2.5399,-2.5408,-2.5958,-2.6471,-2.6615,-2.7157,-2.7561,-2.7783,-2.7794,-2.7814,-2.7833,-2.786,-2.7811,-2.7811,-2.7713,-2.7633,-2.7591,-2.7535,-2.7408,-2.6942,-2.6521,-2.627,0.4908,0.4463,0.4076,0.3186,0.196,0.084,-0.0168,-0.1061,-0.2121,-0.3287,-0.4558,-0.635,-0.7856,-0.9079,-0.9957,-1.0813,-1.1765,-1.2667,-1.3474,-1.4198,-1.4988,-1.562,-1.6195,-1.6453,-1.6685,-1.6788,-1.6801,-1.6563,-1.6244,-1.6151,-1.5712,-1.5085,-1.4834,-1.4558,-1.4316,-1.4222,-1.4087,-1.3863,-1.3815,-1.3716,-1.3568,-1.3815,-1.401,-1.417,-1.4634,-1.5175,-1.58,-1.6287,-1.6934,-1.7673,-1.8305,-1.8891,-1.9391,-1.9972,-2.0429,-2.0827,-2.103,-2.1214,-2.1417,-2.1573,-2.1672,-2.1746,-2.1789,-2.1848,-2.1835,-2.1953,-2.2132,-2.2434,-2.2542,-2.2671,-2.2558,-2.2629,-2.2711,-2.2797,-2.3076,-2.3508,-2.4246,-2.4722,-2.5291,-2.5972,-2.6063,-2.6026,-2.5954,-2.582,-2.5746,-2.568,-2.565,-2.5642,-2.5642,-2.5709,-2.575,-2.5647,-2.5951,-2.621,-2.6328,-2.6563,-2.6645,-2.689,-2.7063,-2.7164,-2.7192,-2.7123,-2.7063,-2.7198,-2.7241,-2.725,-2.7227,-2.7221,-2.7149,-2.7085,-2.7026,-2.6911,-2.636,-2.5917,-2.5766,0.5287,0.4792,0.4465,0.3576,0.2351,0.1455,0.0559,-0.0335,-0.1284,-0.2345,-0.3512,-0.4825,-0.635,-0.8022,-0.9023,-0.9902,-1.0712,-1.1616,-1.2448,-1.312,-1.3747,-1.4365,-1.4903,-1.5112,-1.5359,-1.5611,-1.5656,-1.5555,-1.5383,-1.5232,-1.492,-1.4553,-1.4373,-1.415,-1.3852,-1.3752,-1.3705,-1.3668,-1.3615,-1.3563,-1.3621,-1.3873,-1.4057,-1.4217,-1.4634,-1.5136,-1.5635,-1.6169,-1.6772,-1.7399,-1.8061,-1.8616,-1.9079,-1.9631,-2.005,-2.0429,-2.0771,-2.1047,-2.1206,-2.1333,-2.1396,-2.1472,-2.1487,-2.1495,-2.1487,-2.1495,-2.1556,-2.1686,-2.1882,-2.2011,-2.2028,-2.1982,-2.2158,-2.252,-2.2795,-2.3331,-2.4396,-2.4664,-2.5045,-2.5623,-2.5754,-2.5717,-2.5605,-2.5446,-2.5362,-2.5293,-2.5254,-2.5224,-2.5224,-2.527,-2.5262,-2.5293,-2.5392,-2.5684,-2.6074,-2.6233,-2.6295,-2.6383,-2.6453,-2.6479,-2.6505,-2.6514,-2.6455,-2.6531,-2.6539,-2.6548,-2.6539,-2.6522,-2.6488,-2.6444,-2.6243,-2.6007,-2.5306,-2.5173,-2.5168,0.5666,0.5232,0.4737,0.3909,0.291,0.2183,0.1342,0.0447,-0.0391,-0.1453,-0.2513,-0.3401,-0.4716,-0.6406,-0.785,-0.8859,-0.9588,-1.0501,-1.1258,-1.1909,-1.2511,-1.3087,-1.3611,-1.38,-1.4086,-1.4433,-1.4485,-1.4485,-1.4444,-1.4316,-1.4087,-1.3889,-1.381,-1.3673,-1.3478,-1.3372,-1.3362,-1.3467,-1.3415,-1.3467,-1.3568,-1.3821,-1.4062,-1.4181,-1.4599,-1.5062,-1.5424,-1.6044,-1.6595,-1.7128,-1.776,-1.8312,-1.8714,-1.9236,-1.9711,-2.0127,-2.0538,-2.0819,-2.0917,-2.1006,-2.1087,-2.1167,-2.1151,-2.1151,-2.1143,-2.1151,-2.1255,-2.1496,-2.1656,-2.182,-2.1944,-2.1974,-2.2287,-2.2922,-2.3121,-2.3659,-2.4484,-2.4664,-2.4919,-2.5365,-2.5416,-2.537,-2.5224,-2.5068,-2.4926,-2.4958,-2.4871,-2.4799,-2.4791,-2.4791,-2.4751,-2.4743,-2.467,-2.4895,-2.5484,-2.5605,-2.5642,-2.5672,-2.5701,-2.5713,-2.577,-2.5762,-2.5762,-2.5746,-2.5799,-2.5844,-2.5844,-2.5807,-2.5779,-2.5663,-2.5468,-2.5089,-2.4556,-2.4498,-2.4389,0.6105,0.5666,0.4844,0.4125,0.3514,0.2796,0.2015,0.1174,0.0336,-0.056,-0.1453,-0.2344,-0.3288,-0.4335,-0.6234,-0.7587,-0.8432,-0.9263,-1.0041,-1.0712,-1.1362,-1.1967,-1.2453,-1.2759,-1.3059,-1.3404,-1.3447,-1.3457,-1.3457,-1.3362,-1.3208,-1.3059,-1.3165,-1.3175,-1.305,-1.3132,-1.3213,-1.3218,-1.3319,-1.342,-1.3462,-1.3821,-1.4025,-1.4057,-1.4545,-1.496,-1.5306,-1.5774,-1.6306,-1.6869,-1.7434,-1.7915,-1.8312,-1.8867,-1.9435,-1.9962,-2.0285,-2.0441,-2.0535,-2.0644,-2.0744,-2.0802,-2.0843,-2.0827,-2.0827,-2.089,-2.1126,-2.1695,-2.1777,-2.1987,-2.2344,-2.2377,-2.2645,-2.329,-2.3866,-2.4156,-2.4231,-2.473,-2.5004,-2.5037,-2.5045,-2.4958,-2.4846,-2.4718,-2.4597,-2.4531,-2.44,-2.4294,-2.4294,-2.4211,-2.4162,-2.412,-2.4128,-2.4253,-2.4784,-2.4879,-2.4887,-2.4918,-2.495,-2.4942,-2.4934,-2.4934,-2.4934,-2.4989,-2.5028,-2.5075,-2.513,-2.5091,-2.506,-2.4895,-2.4648,-2.4271,-2.3899,-2.3754,-2.3615,0.6485,0.5887,0.5283,0.4677,0.4128,0.3459,0.2795,0.2015,0.1344,0.0503,-0.0391,-0.1284,-0.212,-0.2952,-0.4275,-0.5697,-0.7219,-0.801,-0.8797,-0.9592,-1.0108,-1.0669,-1.122,-1.1434,-1.1783,-1.2192,-1.2241,-1.2393,-1.2594,-1.2603,-1.2657,-1.2652,-1.2754,-1.271,-1.271,-1.2813,-1.291,-1.3012,-1.3185,-1.3319,-1.342,-1.3815,-1.4062,-1.414,-1.4586,-1.4914,-1.5153,-1.568,-1.6256,-1.6765,-1.7269,-1.776,-1.8214,-1.8882,-1.9332,-1.9603,-1.9955,-2.0173,-2.02,-2.0331,-2.0449,-2.0475,-2.0475,-2.0475,-2.0537,-2.0814,-2.1159,-2.1422,-2.184,-2.23,-2.2791,-2.2777,-2.2937,-2.3609,-2.3915,-2.4181,-2.45,-2.4697,-2.4759,-2.4694,-2.4597,-2.4556,-2.4475,-2.431,-2.4234,-2.4151,-2.4009,-2.3817,-2.3716,-2.3681,-2.363,-2.3559,-2.3428,-2.3377,-2.3544,-2.3979,-2.4162,-2.4154,-2.4147,-2.409,-2.4074,-2.4067,-2.4067,-2.4158,-2.4271,-2.4313,-2.4346,-2.4305,-2.4245,-2.4055,-2.3814,-2.357,-2.3288,-2.3069,-2.2875,0.6871,0.6273,0.5775,0.5281,0.4734,0.4181,0.3572,0.2853,0.2292,0.1508,0.0671,-0.0168,-0.0949,-0.1785,-0.2623,-0.3895,-0.5483,-0.6563,-0.7543,-0.8392,-0.882,-0.9388,-0.9953,-1.023,-1.0545,-1.1044,-1.12,-1.1451,-1.1814,-1.1868,-1.2031,-1.2175,-1.2224,-1.2332,-1.2377,-1.2573,-1.2735,-1.2871,-1.3089,-1.3266,-1.3372,-1.3773,-1.4051,-1.4228,-1.4605,-1.4943,-1.5165,-1.5641,-1.6169,-1.6637,-1.7144,-1.7652,-1.8228,-1.876,-1.9146,-1.9332,-1.9632,-1.9812,-1.9899,-2.001,-2.0123,-2.0088,-2.0123,-2.0131,-2.0142,-2.0655,-2.1052,-2.1386,-2.1934,-2.2642,-2.3132,-2.3179,-2.3344,-2.3889,-2.4014,-2.4155,-2.4511,-2.4459,-2.4351,-2.4219,-2.4135,-2.4094,-2.4051,-2.389,-2.3804,-2.3761,-2.3523,-2.3326,-2.3187,-2.315,-2.3068,-2.2949,-2.2761,-2.2618,-2.2649,-2.2868,-2.3179,-2.3223,-2.3319,-2.3275,-2.3231,-2.3223,-2.3275,-2.3326,-2.3421,-2.3472,-2.3516,-2.3472,-2.3377,-2.3238,-2.3046,-2.2853,-2.2589,-2.2374,-2.2149,0.7252,0.6823,0.6431,0.5825,0.5279,0.4846,0.4354,0.3739,0.3126,0.2459,0.1732,0.1006,0.0168,-0.067,-0.1508,-0.2345,-0.345,-0.4937,-0.6204,-0.713,-0.7655,-0.8243,-0.8823,-0.9093,-0.951,-1.0072,-1.0391,-1.0757,-1.1065,-1.112,-1.1272,-1.1523,-1.1773,-1.1977,-1.2081,-1.2485,-1.2676,-1.2774,-1.303,-1.3218,-1.3266,-1.3716,-1.4104,-1.4228,-1.468,-1.5011,-1.53,-1.562,-1.6038,-1.6509,-1.6934,-1.7564,-1.8161,-1.8521,-1.8791,-1.9071,-1.9258,-1.9457,-1.9567,-1.9661,-1.969,-1.9682,-1.9726,-1.9727,-1.9892,-2.0348,-2.0968,-2.1588,-2.2207,-2.2835,-2.3385,-2.348,-2.3636,-2.4147,-2.4179,-2.4135,-2.4105,-2.4051,-2.389,-2.3703,-2.361,-2.3595,-2.3559,-2.3443,-2.3312,-2.3268,-2.3083,-2.2844,-2.2709,-2.2625,-2.2456,-2.2263,-2.2077,-2.1935,-2.1793,-2.1739,-2.2056,-2.2282,-2.242,-2.2473,-2.2413,-2.2406,-2.2459,-2.2558,-2.2701,-2.2747,-2.2754,-2.2754,-2.2646,-2.2509,-2.2317,-2.2116,-2.1867,-2.1589,-2.1403,0.7574,0.7306,0.6871,0.6379,0.5878,0.5338,0.4846,0.4354,0.3796,0.3241,0.2626,0.1845,0.1062,0.0335,-0.0448,-0.1343,-0.2234,-0.3286,-0.45,-0.5925,-0.663,-0.7222,-0.7868,-0.8193,-0.8672,-0.926,-0.9621,-0.9988,-1.03,-1.0458,-1.0667,-1.1074,-1.1377,-1.1573,-1.1819,-1.2229,-1.2475,-1.2622,-1.2987,-1.3261,-1.3367,-1.3763,-1.4156,-1.4477,-1.4737,-1.5045,-1.5424,-1.5736,-1.6132,-1.6472,-1.6863,-1.7365,-1.7942,-1.834,-1.8588,-1.8704,-1.8979,-1.9137,-1.9175,-1.925,-1.9288,-1.928,-1.9295,-1.9529,-1.9894,-2.0472,-2.1101,-2.1759,-2.2439,-2.2944,-2.3062,-2.3113,-2.3334,-2.3774,-2.3817,-2.3782,-2.3739,-2.3617,-2.34,-2.3165,-2.312,-2.312,-2.3083,-2.2956,-2.2828,-2.2783,-2.2593,-2.2349,-2.2116,-2.2077,-2.1902,-2.1609,-2.1423,-2.1271,-2.1153,-2.095,-2.1042,-2.1321,-2.1472,-2.1677,-2.1623,-2.1616,-2.1677,-2.1772,-2.1915,-2.2016,-2.2023,-2.1983,-2.1861,-2.1739,-2.1588,-2.1333,-2.1068,-2.0871,-2.0629,0.8244,0.7964,0.7522,0.7122,0.6668,0.6156,0.565,0.5192,0.4622,0.409,0.3462,0.264,0.19,0.123,0.0392,-0.0448,-0.1288,-0.1956,-0.3119,-0.4611,-0.5603,-0.6253,-0.6961,-0.7554,-0.8043,-0.8577,-0.8942,-0.9312,-0.9784,-0.994,-1.0253,-1.0714,-1.1023,-1.1326,-1.1623,-1.2076,-1.2377,-1.2573,-1.2939,-1.3261,-1.3457,-1.3852,-1.4249,-1.4569,-1.488,-1.5193,-1.5513,-1.5863,-1.6175,-1.6479,-1.682,-1.733,-1.7875,-1.8163,-1.8321,-1.8464,-1.8613,-1.875,-1.8841,-1.8858,-1.8889,-1.8882,-1.8889,-1.9122,-1.9716,-2.038,-2.1004,-2.1592,-2.2238,-2.2618,-2.2625,-2.2625,-2.2806,-2.3009,-2.3246,-2.3297,-2.3253,-2.3135,-2.2911,-2.2716,-2.2625,-2.2618,-2.2586,-2.2449,-2.2324,-2.2278,-2.2084,-2.1793,-2.1609,-2.1506,-2.1271,-2.0983,-2.0785,-2.0623,-2.0459,-2.0258,-2.0118,-2.0315,-2.056,-2.0759,-2.0858,-2.0858,-2.0908,-2.1055,-2.1195,-2.1286,-2.1292,-2.1146,-2.1068,-2.0954,-2.0875,-2.0592,-2.0359,-2.0118,-1.992,0.9078,0.8801,0.8322,0.7932,0.7511,0.7094,0.6552,0.6132,0.5635,0.498,0.4256,0.3497,0.2773,0.1976,0.1139,0.0342,-0.0395,-0.1248,-0.2158,-0.3286,-0.4404,-0.5401,-0.6225,-0.7028,-0.7622,-0.7984,-0.8412,-0.889,-0.9417,-0.9569,-0.988,-1.0411,-1.0769,-1.112,-1.1528,-1.2031,-1.2382,-1.2578,-1.2987,-1.3256,-1.3457,-1.3936,-1.4326,-1.4632,-1.5034,-1.534,-1.5558,-1.5919,-1.6275,-1.6479,-1.6947,-1.7371,-1.776,-1.7882,-1.8036,-1.8194,-1.8279,-1.834,-1.8439,-1.8478,-1.8485,-1.8478,-1.8576,-1.8787,-1.9418,-2.0091,-2.0707,-2.1265,-2.1829,-2.2137,-2.2123,-2.213,-2.2177,-2.2217,-2.2579,-2.2716,-2.2608,-2.2562,-2.241,-2.2224,-2.213,-2.2123,-2.2137,-2.1888,-2.1793,-2.1712,-2.1513,-2.1264,-2.1019,-2.0878,-2.0679,-2.0485,-2.0233,-2.0067,-1.9895,-1.9708,-1.9565,-1.9617,-1.9759,-1.9856,-2.0118,-2.0175,-2.0226,-2.0372,-2.0516,-2.0553,-2.0553,-2.0459,-2.0359,-2.022,-2.0067,-1.9856,-1.9643,-1.9442,-1.9303,0.9266,0.9081,0.8739,0.8387,0.7911,0.7496,0.7083,0.6655,0.6017,0.5505,0.5007,0.4265,0.3525,0.2883,0.192,0.1082,0.0239,-0.0659,-0.1503,-0.2404,-0.3478,-0.4761,-0.5883,-0.6714,-0.7268,-0.7645,-0.8158,-0.859,-0.911,-0.9414,-0.9758,-1.0098,-1.0593,-1.0977,-1.1372,-1.1877,-1.2332,-1.2676,-1.2982,-1.3362,-1.371,-1.3988,-1.4373,-1.473,-1.5137,-1.5345,-1.5513,-1.5969,-1.6362,-1.6748,-1.7031,-1.7295,-1.7522,-1.7638,-1.7754,-1.7828,-1.7942,-1.7996,-1.8036,-1.8036,-1.8043,-1.8084,-1.8406,-1.8926,-1.9508,-2.0072,-2.068,-2.1206,-2.1554,-2.1609,-2.1609,-2.1609,-2.1609,-2.1664,-2.1976,-2.2123,-2.203,-2.1935,-2.18,-2.165,-2.1609,-2.1602,-2.1561,-2.1423,-2.1222,-2.118,-2.097,-2.0709,-2.0523,-2.0378,-2.0233,-1.992,-1.9668,-1.9552,-1.9396,-1.9152,-1.9005,-1.9005,-1.9046,-1.9081,-1.9291,-1.9506,-1.9668,-1.9823,-1.9959,-2.0003,-1.9952,-1.9907,-1.9753,-1.9604,-1.9494,-1.9331,-1.8992,-1.8721,-1.8768,0.9624,0.949,0.9071,0.8705,0.8399,0.7909,0.7479,0.7147,0.6518,0.5992,0.5478,0.4745,0.4054,0.3383,0.2524,0.1601,0.0739,-0.0123,-0.1046,-0.2154,-0.3371,-0.468,-0.5836,-0.6599,-0.722,-0.767,-0.8166,-0.8734,-0.9292,-0.9654,-0.9965,-1.0348,-1.0789,-1.1131,-1.1423,-1.1923,-1.2332,-1.2725,-1.3079,-1.3462,-1.3773,-1.4192,-1.4477,-1.4822,-1.5182,-1.5486,-1.578,-1.6057,-1.6411,-1.6754,-1.6918,-1.7051,-1.7231,-1.7337,-1.7419,-1.7461,-1.7577,-1.7584,-1.7631,-1.7625,-1.7704,-1.7924,-1.8298,-1.8832,-1.9493,-1.998,-2.0393,-2.0948,-2.1048,-2.1062,-2.1062,-2.1068,-2.1062,-2.1062,-2.116,-2.1313,-2.1423,-2.1348,-2.1209,-2.1111,-2.1062,-2.1068,-2.1075,-2.0878,-2.0742,-2.0642,-2.0472,-2.022,-2.0022,-1.9926,-1.9772,-1.946,-1.9198,-1.9087,-1.8875,-1.8679,-1.8518,-1.8518,-1.847,-1.8452,-1.8721,-1.894,-1.9099,-1.9257,-1.9402,-1.95,-1.9448,-1.9396,-1.9251,-1.9146,-1.9034,-1.8815,-1.853,-1.8298,-1.8284,0.9986,0.9926,0.9335,0.9017,0.8865,0.8304,0.7869,0.7615,0.6944,0.6428,0.5832,0.5145,0.4443,0.3722,0.2829,0.1996,0.0998,0.0188,-0.0939,-0.2192,-0.3625,-0.4905,-0.5819,-0.6616,-0.7251,-0.7784,-0.8431,-0.9044,-0.9573,-1.0129,-1.0479,-1.0774,-1.1204,-1.1524,-1.1838,-1.2282,-1.2622,-1.3051,-1.3476,-1.381,-1.4052,-1.4453,-1.4754,-1.4822,-1.5255,-1.5703,-1.6013,-1.6194,-1.6362,-1.6675,-1.6675,-1.6846,-1.6967,-1.7002,-1.7086,-1.717,-1.7205,-1.7199,-1.7196,-1.7255,-1.7427,-1.7787,-1.802,-1.8487,-1.935,-1.9694,-2.0041,-2.0471,-2.051,-2.051,-2.0516,-2.0516,-2.051,-2.051,-2.0321,-2.0429,-2.0679,-2.0772,-2.066,-2.056,-2.0516,-2.0516,-2.0466,-2.0416,-2.0271,-2.0182,-2.0016,-1.9759,-1.9558,-1.9466,-1.9303,-1.9034,-1.8827,-1.8625,-1.841,-1.8253,-1.8078,-1.8024,-1.7981,-1.803,-1.8296,-1.8512,-1.8625,-1.8786,-1.8881,-1.8981,-1.9034,-1.8934,-1.8839,-1.8685,-1.8619,-1.8404,-1.8139,-1.8012,-1.7975,1.005,0.9801,0.9527,0.9204,0.8949,0.8363,0.7984,0.7661,0.7093,0.6538,0.608,0.5466,0.4793,0.4072,0.3082,0.2244,0.1314,0.0197,-0.1121,-0.277,-0.3953,-0.5,-0.5845,-0.6535,-0.7108,-0.7825,-0.8398,-0.9045,-0.9703,-1.0267,-1.0683,-1.1188,-1.1662,-1.2125,-1.2573,-1.3012,-1.36,-1.4034,-1.4419,-1.4499,-1.4551,-1.4903,-1.5107,-1.5009,-1.5302,-1.5671,-1.5969,-1.6144,-1.6281,-1.6454,-1.6596,-1.6712,-1.6869,-1.6918,-1.6918,-1.6918,-1.696,-1.6918,-1.6923,-1.7186,-1.7416,-1.7605,-1.827,-1.886,-1.9098,-1.9541,-1.9775,-1.9952,-1.9959,-2.0003,-2.0003,-2.001,-1.9952,-1.9959,-1.9811,-1.9714,-1.9778,-1.9907,-2.001,-2.001,-1.9959,-2.0003,-1.9952,-1.9862,-1.9766,-1.972,-1.9558,-1.935,-1.9146,-1.9052,-1.8833,-1.8667,-1.8506,-1.8302,-1.8144,-1.7926,-1.7816,-1.77,-1.7651,-1.7656,-1.7926,-1.8084,-1.8193,-1.8307,-1.8422,-1.8518,-1.8608,-1.8614,-1.8566,-1.841,-1.8253,-1.809,-1.7926,-1.7816,-1.7706,0.9983,0.9661,0.9396,0.9084,0.87,0.8179,0.7854,0.7528,0.6944,0.6418,0.6018,0.5427,0.4761,0.4023,0.3086,0.2283,0.121,-0.0202,-0.1679,-0.3017,-0.4086,-0.5088,-0.5939,-0.6632,-0.732,-0.8124,-0.8804,-0.941,-1.0087,-1.0661,-1.1223,-1.1634,-1.2139,-1.2586,-1.3035,-1.3572,-1.3951,-1.4382,-1.4835,-1.5059,-1.5185,-1.5488,-1.5877,-1.5772,-1.5846,-1.6022,-1.6384,-1.6204,-1.6218,-1.6287,-1.6424,-1.6547,-1.6656,-1.6656,-1.6656,-1.6656,-1.6577,-1.6697,-1.6848,-1.7122,-1.7457,-1.7842,-1.8523,-1.8877,-1.9151,-1.9486,-1.9573,-1.961,-1.961,-1.961,-1.954,-1.9442,-1.9448,-1.9402,-1.9297,-1.9198,-1.921,-1.935,-1.9494,-1.9442,-1.9396,-1.9448,-1.9396,-1.935,-1.9257,-1.9204,-1.9152,-1.8993,-1.8875,-1.8727,-1.8572,-1.835,-1.8187,-1.7975,-1.7816,-1.7656,-1.7551,-1.749,-1.749,-1.7445,-1.7557,-1.7656,-1.7706,-1.7871,-1.809,-1.8084,-1.8182,-1.8236,-1.829,-1.8182,-1.8024,-1.7865,-1.7761,-1.7706,-1.7545,0.9722,0.9393,0.9084,0.8765,0.8382,0.7862,0.7528,0.7265,0.6677,0.615,0.5688,0.5025,0.4359,0.3626,0.2888,0.2015,0.0739,-0.0672,-0.2151,-0.309,-0.4092,-0.509,-0.5939,-0.6772,-0.7598,-0.8506,-0.9084,-0.9787,-1.0557,-1.1288,-1.176,-1.2194,-1.281,-1.3226,-1.345,-1.3915,-1.4443,-1.4869,-1.5349,-1.559,-1.5796,-1.6118,-1.6474,-1.668,-1.6531,-1.6509,-1.6707,-1.6596,-1.6367,-1.6383,-1.6366,-1.6454,-1.6604,-1.643,-1.6355,-1.6405,-1.6417,-1.6601,-1.6849,-1.7168,-1.7629,-1.8472,-1.858,-1.8788,-1.9129,-1.9226,-1.9251,-1.9257,-1.9251,-1.9192,-1.9133,-1.9034,-1.8934,-1.8887,-1.8786,-1.8738,-1.8679,-1.8881,-1.8922,-1.894,-1.8881,-1.8821,-1.8827,-1.8827,-1.8732,-1.8738,-1.8691,-1.8631,-1.8512,-1.8404,-1.8247,-1.8084,-1.792,-1.7761,-1.7601,-1.7551,-1.739,-1.7384,-1.7329,-1.739,-1.7395,-1.749,-1.759,-1.7651,-1.7755,-1.7805,-1.7969,-1.8078,-1.8073,-1.7958,-1.7909,-1.7865,-1.7761,-1.7601,-1.7495,0.9393,0.9078,0.8703,0.8379,0.8052,0.7657,0.7265,0.6802,0.6342,0.5815,0.5155,0.4621,0.3957,0.3225,0.242,0.121,-0.0134,-0.1412,-0.2353,-0.3225,-0.4227,-0.5156,-0.6081,-0.6874,-0.7659,-0.8444,-0.9207,-0.997,-1.0741,-1.1417,-1.2066,-1.2826,-1.3459,-1.3906,-1.4396,-1.5028,-1.5372,-1.5614,-1.6071,-1.633,-1.6417,-1.6647,-1.6934,-1.7102,-1.6991,-1.7049,-1.7219,-1.7303,-1.7362,-1.7332,-1.7017,-1.7146,-1.7223,-1.6737,-1.641,-1.6447,-1.6634,-1.6837,-1.6928,-1.7514,-1.7849,-1.8067,-1.8358,-1.859,-1.8744,-1.8774,-1.8827,-1.878,-1.8774,-1.8715,-1.8721,-1.8667,-1.8625,-1.8524,-1.8464,-1.8356,-1.8187,-1.8127,-1.829,-1.835,-1.8296,-1.8302,-1.8296,-1.8296,-1.8296,-1.8247,-1.8247,-1.8193,-1.8133,-1.8024,-1.7871,-1.7761,-1.7645,-1.7484,-1.7384,-1.739,-1.7334,-1.7329,-1.7323,-1.7384,-1.7384,-1.7423,-1.7529,-1.7595,-1.7706,-1.7755,-1.7865,-1.7969,-1.7963,-1.7903,-1.7909,-1.792,-1.7761,-1.7662,-1.7656,0.9148,0.87,0.8379,0.7987,0.7594,0.7197,0.6804,0.6278,0.5813,0.5282,0.4619,0.4022,0.3356,0.2622,0.1883,0.0605,-0.0806,-0.1747,-0.2619,-0.3558,-0.4424,-0.5286,-0.6143,-0.6933,-0.7787,-0.8633,-0.9332,-1.0031,-1.0804,-1.1619,-1.2305,-1.2977,-1.3644,-1.4245,-1.4715,-1.5279,-1.5778,-1.6176,-1.6565,-1.688,-1.7016,-1.7314,-1.7576,-1.7734,-1.7537,-1.7577,-1.7717,-1.7557,-1.7521,-1.7454,-1.7309,-1.7399,-1.7381,-1.7222,-1.6846,-1.6953,-1.7048,-1.7183,-1.7248,-1.7844,-1.8009,-1.8236,-1.8442,-1.859,-1.8608,-1.8608,-1.8554,-1.856,-1.841,-1.835,-1.835,-1.8242,-1.809,-1.8035,-1.8035,-1.7914,-1.7738,-1.7634,-1.7689,-1.775,-1.7805,-1.7865,-1.781,-1.786,-1.786,-1.7805,-1.7755,-1.775,-1.775,-1.7695,-1.759,-1.7595,-1.7484,-1.7434,-1.7334,-1.7329,-1.7329,-1.7323,-1.7379,-1.7379,-1.749,-1.7529,-1.759,-1.7656,-1.7711,-1.7865,-1.786,-1.7963,-1.7903,-1.7958,-1.7981,-1.7992,-1.7827,-1.7717,-1.7822,0.8826,0.8317,0.7987,0.7528,0.7005,0.6675,0.6216,0.5686,0.5153,0.4619,0.4022,0.3358,0.2622,0.1883,0.1008,-0.0067,-0.1412,-0.2149,-0.2953,-0.3825,-0.4758,-0.5486,-0.6274,-0.7129,-0.8049,-0.8823,-0.9591,-1.0225,-1.0993,-1.1747,-1.2425,-1.3159,-1.3765,-1.4364,-1.4897,-1.5439,-1.5836,-1.6233,-1.6581,-1.7032,-1.7534,-1.792,-1.8236,-1.8548,-1.8154,-1.8092,-1.8262,-1.8067,-1.7887,-1.7808,-1.7694,-1.764,-1.7694,-1.7634,-1.764,-1.7768,-1.7516,-1.7594,-1.7763,-1.7995,-1.8119,-1.8347,-1.8483,-1.8506,-1.8446,-1.8392,-1.8387,-1.8392,-1.8187,-1.8035,-1.7975,-1.7871,-1.7767,-1.7656,-1.7651,-1.7595,-1.7418,-1.7245,-1.7139,-1.7251,-1.7368,-1.7368,-1.7368,-1.7362,-1.7362,-1.7368,-1.7318,-1.7368,-1.7362,-1.7462,-1.7418,-1.7429,-1.7379,-1.7334,-1.7329,-1.7373,-1.7373,-1.7368,-1.7479,-1.754,-1.7651,-1.77,-1.7761,-1.7877,-1.7975,-1.8133,-1.8012,-1.8012,-1.8121,-1.8242,-1.8162,-1.8167,-1.815,-1.815,-1.8199,0.8249,0.7797,0.7466,0.7007,0.6482,0.615,0.5688,0.5155,0.4621,0.3957,0.3292,0.2622,0.1883,0.1075,-0.0067,-0.1008,-0.1815,-0.2486,-0.3222,-0.4095,-0.496,-0.582,-0.6675,-0.7526,-0.8244,-0.902,-0.9856,-1.0614,-1.1244,-1.193,-1.2666,-1.3394,-1.4056,-1.4661,-1.5093,-1.5566,-1.6082,-1.6472,-1.6699,-1.7094,-1.7595,-1.7926,-1.823,-1.8483,-1.8525,-1.8555,-1.8742,-1.865,-1.865,-1.8644,-1.8307,-1.8362,-1.862,-1.8332,-1.8394,-1.8374,-1.8251,-1.7845,-1.7804,-1.8025,-1.8193,-1.823,-1.8187,-1.8187,-1.8133,-1.8073,-1.8018,-1.781,-1.7761,-1.7761,-1.7761,-1.7711,-1.7645,-1.7479,-1.7373,-1.7251,-1.7072,-1.6976,-1.6807,-1.6694,-1.6807,-1.6864,-1.6807,-1.6864,-1.6864,-1.6869,-1.6931,-1.6925,-1.7027,-1.7134,-1.724,-1.7251,-1.7379,-1.7334,-1.7384,-1.7373,-1.7423,-1.7473,-1.7639,-1.7755,-1.7865,-1.7975,-1.8144,-1.8253,-1.835,-1.8398,-1.8398,-1.8398,-1.8512,-1.8518,-1.8524,-1.8524,-1.8566,-1.8572,-1.8625,0.7599,0.74,0.6802,0.6346,0.5885,0.5493,0.496,0.4425,0.3889,0.3291,0.2555,0.1882,0.1008,0.0,-0.0941,-0.168,-0.2352,-0.3022,-0.3758,-0.4427,-0.5294,-0.6084,-0.6808,-0.7659,-0.8374,-0.9212,-0.9983,-1.0747,-1.1435,-1.2116,-1.2785,-1.3511,-1.4172,-1.472,-1.5215,-1.5682,-1.6134,-1.6581,-1.6971,-1.7362,-1.7645,-1.7909,-1.8176,-1.8566,-1.8608,-1.8768,-1.8934,-1.8993,-1.8993,-1.8963,-1.8716,-1.8746,-1.8897,-1.8788,-1.873,-1.8685,-1.8531,-1.8248,-1.8136,-1.8209,-1.817,-1.8084,-1.8024,-1.7963,-1.786,-1.7805,-1.775,-1.7706,-1.7645,-1.759,-1.7534,-1.7412,-1.7301,-1.719,-1.715,-1.6976,-1.6802,-1.6643,-1.6534,-1.6363,-1.6301,-1.6301,-1.6353,-1.6405,-1.6524,-1.6591,-1.6648,-1.6751,-1.6858,-1.7016,-1.7067,-1.7123,-1.72,-1.7334,-1.7379,-1.7479,-1.7534,-1.7639,-1.786,-1.7975,-1.8084,-1.8199,-1.847,-1.8679,-1.8774,-1.8827,-1.878,-1.878,-1.878,-1.8774,-1.8821,-1.8875,-1.8975,-1.8981,-1.904,0.6935,0.6738,0.6147,0.5751,0.5354,0.4761,0.4296,0.3761,0.3225,0.2555,0.1816,0.1008,0.0,-0.0873,-0.1545,-0.2216,-0.2954,-0.3624,-0.4292,-0.496,-0.5624,-0.6352,-0.7073,-0.7789,-0.8565,-0.9402,-1.0047,-1.0811,-1.156,-1.2174,-1.2842,-1.3511,-1.4172,-1.4775,-1.5259,-1.5677,-1.6134,-1.6699,-1.719,-1.7534,-1.7711,-1.7854,-1.8182,-1.8446,-1.8608,-1.8727,-1.8993,-1.8993,-1.8993,-1.904,-1.8963,-1.8951,-1.9034,-1.9004,-1.888,-1.8786,-1.8596,-1.8501,-1.8346,-1.8242,-1.809,-1.803,-1.792,-1.7805,-1.7695,-1.7645,-1.7595,-1.7545,-1.7418,-1.7362,-1.7307,-1.7123,-1.7016,-1.6971,-1.6864,-1.6699,-1.6591,-1.642,-1.6249,-1.6077,-1.5956,-1.5904,-1.5956,-1.6004,-1.6124,-1.6254,-1.642,-1.6575,-1.6684,-1.6848,-1.696,-1.7016,-1.72,-1.7329,-1.7429,-1.7529,-1.7645,-1.781,-1.8084,-1.8296,-1.8404,-1.8679,-1.8893,-1.9099,-1.9192,-1.935,-1.9402,-1.9198,-1.9046,-1.9192,-1.9337,-1.9337,-1.939,-1.9442,-1.9598,0.615,0.5681,0.5489,0.5226,0.4829,0.416,0.3626,0.316,0.2557,0.1816,0.1008,-0.0067,-0.0874,-0.1546,-0.2082,-0.2751,-0.3421,-0.402,-0.4621,-0.5221,-0.5949,-0.6679,-0.7335,-0.8049,-0.8823,-0.9524,-1.0234,-1.0933,-1.1622,-1.2301,-1.2903,-1.3506,-1.4172,-1.4765,-1.5362,-1.5841,-1.6249,-1.6751,-1.7251,-1.7529,-1.7706,-1.786,-1.8121,-1.85,-1.8614,-1.8721,-1.8993,-1.8993,-1.9052,-1.9117,-1.9052,-1.9058,-1.9111,-1.9046,-1.8946,-1.8845,-1.8673,-1.8572,-1.8416,-1.8253,-1.803,-1.7914,-1.7805,-1.7651,-1.7529,-1.7529,-1.7429,-1.7318,-1.7195,-1.7078,-1.7027,-1.6915,-1.6858,-1.6745,-1.6694,-1.6529,-1.6358,-1.6181,-1.6014,-1.5788,-1.5672,-1.5667,-1.5604,-1.5715,-1.5836,-1.6019,-1.6181,-1.6343,-1.6575,-1.6689,-1.6853,-1.6965,-1.7206,-1.7323,-1.7473,-1.7634,-1.786,-1.8133,-1.841,-1.8673,-1.8881,-1.9099,-1.9368,-1.9512,-1.9656,-1.9869,-2.0022,-1.9869,-1.9759,-1.9753,-1.985,-1.9895,-2.0048,-2.0201,-2.0403,0.5552,0.4956,0.4558,0.436,0.4293,0.3558,0.3023,0.2489,0.1816,0.0941,-0.0067,-0.0806,-0.1478,-0.2082,-0.2553,-0.3155,-0.3825,-0.4359,-0.4957,-0.562,-0.635,-0.7075,-0.7729,-0.8439,-0.9145,-0.9846,-1.0551,-1.1247,-1.1934,-1.249,-1.3099,-1.37,-1.4236,-1.4819,-1.5357,-1.6004,-1.6529,-1.6756,-1.7155,-1.749,-1.7651,-1.7761,-1.8024,-1.8554,-1.8608,-1.8721,-1.8934,-1.8993,-1.9052,-1.9111,-1.9046,-1.9111,-1.9176,-1.9052,-1.8999,-1.8893,-1.8721,-1.8572,-1.8464,-1.8253,-1.7975,-1.7805,-1.7639,-1.7534,-1.7362,-1.7307,-1.719,-1.7078,-1.6976,-1.692,-1.6864,-1.6745,-1.6684,-1.6632,-1.6524,-1.6301,-1.6186,-1.6009,-1.5894,-1.5667,-1.5546,-1.5483,-1.5478,-1.5473,-1.5604,-1.5788,-1.5946,-1.6166,-1.6405,-1.6637,-1.6802,-1.7022,-1.72,-1.7434,-1.7645,-1.786,-1.8133,-1.8404,-1.8732,-1.8993,-1.9251,-1.9565,-1.9778,-1.9978,-2.0169,-2.0372,-2.0523,-2.0536,-2.0479,-2.0403,-2.0453,-2.056,-2.0709,-2.0957,-2.1146,0.5022,0.436,0.376,0.3625,0.3626,0.2956,0.2354,0.1816,0.1142,0.0202,-0.0941,-0.1412,-0.1949,-0.2552,-0.3089,-0.3626,-0.4227,-0.4827,-0.5423,-0.602,-0.6679,-0.7337,-0.8052,-0.8697,-0.9277,-1.0047,-1.0741,-1.1435,-1.2062,-1.2683,-1.3224,-1.3765,-1.4295,-1.4883,-1.5468,-1.6233,-1.6756,-1.6874,-1.7038,-1.7384,-1.7651,-1.7711,-1.7975,-1.85,-1.8608,-1.8721,-1.8934,-1.8993,-1.9052,-1.9105,-1.9105,-1.9052,-1.9105,-1.9105,-1.8993,-1.8887,-1.8721,-1.8619,-1.8458,-1.8187,-1.7926,-1.7706,-1.7534,-1.7368,-1.72,-1.7078,-1.7016,-1.6909,-1.6807,-1.6705,-1.6699,-1.6524,-1.6405,-1.6296,-1.6249,-1.6082,-1.5961,-1.5846,-1.572,-1.5604,-1.5483,-1.542,-1.5478,-1.5478,-1.5662,-1.5793,-1.5904,-1.6124,-1.6358,-1.6586,-1.6802,-1.7022,-1.7245,-1.7534,-1.7822,-1.8084,-1.8404,-1.8721,-1.9046,-1.9362,-1.9623,-1.9926,-2.0233,-2.0429,-2.0673,-2.0921,-2.1068,-2.1118,-2.1111,-2.1048,-2.1146,-2.1244,-2.1499,-2.1691,-2.1772,0.4496,0.3961,0.3292,0.3023,0.289,0.222,0.1614,0.1075,0.047,-0.0336,-0.1344,-0.1883,-0.2488,-0.3023,-0.3492,-0.4093,-0.4759,-0.5289,-0.5885,-0.6416,-0.6942,-0.7531,-0.8114,-0.8762,-0.9466,-1.0047,-1.0804,-1.1556,-1.2123,-1.2797,-1.3346,-1.3885,-1.4542,-1.501,-1.5463,-1.6228,-1.6643,-1.6812,-1.6965,-1.7307,-1.7595,-1.7711,-1.803,-1.8404,-1.8554,-1.8721,-1.8893,-1.8987,-1.9046,-1.917,-1.9052,-1.9052,-1.917,-1.9052,-1.894,-1.8786,-1.8673,-1.8566,-1.8362,-1.7981,-1.7761,-1.7656,-1.7484,-1.7262,-1.7072,-1.6949,-1.6899,-1.6797,-1.6632,-1.6529,-1.6415,-1.6244,-1.6129,-1.6014,-1.5972,-1.5914,-1.5798,-1.5672,-1.5546,-1.5541,-1.5478,-1.5415,-1.5478,-1.5599,-1.573,-1.5851,-1.5914,-1.6082,-1.6311,-1.6591,-1.6807,-1.7145,-1.7362,-1.7689,-1.803,-1.8404,-1.8721,-1.904,-1.9356,-1.9668,-2.0022,-2.0372,-2.0629,-2.0885,-2.1173,-2.1361,-2.1602,-2.1786,-2.182,-2.1901,-2.1921,-2.2023,-2.2278,-2.241,-2.248,0.3894,0.3292,0.269,0.2219,0.1883,0.1614,0.1142,0.047,-0.0403,-0.121,-0.1883,-0.2489,-0.3024,-0.3559,-0.3962,-0.4496,-0.5161,-0.5559,-0.6088,-0.6747,-0.7272,-0.7922,-0.8506,-0.9081,-0.9719,-1.0428,-1.1122,-1.1743,-1.2367,-1.2977,-1.358,-1.4125,-1.4848,-1.5439,-1.5841,-1.6301,-1.6632,-1.6812,-1.6965,-1.7234,-1.7651,-1.7711,-1.7931,-1.847,-1.8506,-1.8673,-1.8845,-1.894,-1.9046,-1.917,-1.9046,-1.9058,-1.9117,-1.9052,-1.8946,-1.8786,-1.8673,-1.8398,-1.8127,-1.7805,-1.7651,-1.7545,-1.7379,-1.7206,-1.7011,-1.6909,-1.6797,-1.6627,-1.6462,-1.6296,-1.6181,-1.6077,-1.5967,-1.5909,-1.5861,-1.5803,-1.5682,-1.5551,-1.5483,-1.5478,-1.5415,-1.5546,-1.5609,-1.5778,-1.5909,-1.6014,-1.6072,-1.6139,-1.6374,-1.6648,-1.6869,-1.7262,-1.7534,-1.7854,-1.823,-1.8614,-1.904,-1.9356,-1.9714,-2.0016,-2.0372,-2.0766,-2.1111,-2.1416,-2.1657,-2.1855,-2.217,-2.2449,-2.267,-2.2806,-2.2806,-2.2768,-2.2828,-2.2994,-2.315,0.3358,0.269,0.2153,0.1546,0.1008,0.0941,0.0538,-0.0269,-0.121,-0.1883,-0.242,-0.2891,-0.3426,-0.3894,-0.4363,-0.4829,-0.5491,-0.5892,-0.6352,-0.701,-0.7536,-0.8184,-0.8826,-0.9405,-0.998,-1.0684,-1.131,-1.1934,-1.2486,-1.3151,-1.3816,-1.4542,-1.5269,-1.5624,-1.5967,-1.6301,-1.6643,-1.6761,-1.6915,-1.7134,-1.7479,-1.7706,-1.7877,-1.8247,-1.8458,-1.8625,-1.8738,-1.8899,-1.8993,-1.9052,-1.9052,-1.9005,-1.9005,-1.8952,-1.8845,-1.8685,-1.8458,-1.8182,-1.7909,-1.7695,-1.7534,-1.7423,-1.7318,-1.7139,-1.696,-1.6797,-1.6699,-1.6472,-1.6233,-1.6124,-1.6014,-1.5909,-1.5793,-1.5793,-1.573,-1.5614,-1.5609,-1.5478,-1.5483,-1.5478,-1.5536,-1.5667,-1.5793,-1.5967,-1.6144,-1.6186,-1.6291,-1.6415,-1.6545,-1.6767,-1.7038,-1.7429,-1.7761,-1.8133,-1.8506,-1.8881,-1.9303,-1.9662,-2.0067,-2.0422,-2.0766,-2.116,-2.1554,-2.1902,-2.2084,-2.2363,-2.2783,-2.3105,-2.3312,-2.353,-2.3653,-2.3574,-2.3509,-2.3574,-2.3759,0.2757,0.2153,0.1546,0.0941,0.0336,0.0202,-0.0336,-0.1142,-0.1883,-0.2353,-0.2753,-0.3091,-0.3627,-0.4299,-0.4699,-0.516,-0.5684,-0.6152,-0.6679,-0.7202,-0.7794,-0.8374,-0.8955,-0.9539,-1.0174,-1.0807,-1.1369,-1.1992,-1.2548,-1.3385,-1.4172,-1.4843,-1.5444,-1.574,-1.5972,-1.6259,-1.6545,-1.6756,-1.6812,-1.7083,-1.7418,-1.7651,-1.7816,-1.8084,-1.8302,-1.8476,-1.8643,-1.8792,-1.8839,-1.894,-1.8987,-1.8893,-1.8851,-1.8804,-1.8643,-1.8422,-1.8073,-1.7914,-1.7695,-1.7584,-1.7484,-1.7318,-1.7134,-1.6965,-1.6802,-1.6689,-1.6586,-1.642,-1.6186,-1.6077,-1.5909,-1.5783,-1.5604,-1.5546,-1.5478,-1.5478,-1.5473,-1.5473,-1.5536,-1.5599,-1.5715,-1.5783,-1.5967,-1.6144,-1.6368,-1.6529,-1.6632,-1.6807,-1.6931,-1.7049,-1.7323,-1.7651,-1.8035,-1.841,-1.878,-1.9204,-1.9656,-2.0067,-2.0516,-2.0914,-2.1215,-2.1547,-2.1976,-2.231,-2.2548,-2.2828,-2.3275,-2.3632,-2.3897,-2.4109,-2.4219,-2.4265,-2.4112,-2.4219,-2.4313,0.2216,0.1479,0.0941,0.0471,0.0,-0.074,-0.1344,-0.1748,-0.2153,-0.2623,-0.3091,-0.356,-0.4028,-0.4561,-0.5028,-0.5491,-0.6018,-0.6478,-0.7005,-0.7531,-0.7984,-0.8563,-0.9145,-0.9728,-1.0364,-1.093,-1.1556,-1.205,-1.2793,-1.3631,-1.4355,-1.497,-1.5503,-1.5798,-1.5977,-1.6207,-1.6483,-1.6705,-1.6756,-1.7027,-1.7357,-1.7534,-1.7695,-1.7914,-1.8084,-1.8313,-1.8476,-1.8631,-1.8673,-1.8715,-1.8715,-1.8673,-1.8679,-1.8679,-1.8518,-1.8199,-1.7969,-1.7799,-1.7579,-1.7523,-1.7423,-1.7273,-1.7139,-1.6971,-1.6807,-1.6694,-1.6586,-1.6363,-1.6186,-1.6019,-1.5904,-1.5783,-1.5604,-1.5541,-1.5478,-1.5536,-1.5536,-1.5599,-1.5662,-1.5841,-1.5899,-1.6119,-1.6244,-1.642,-1.6643,-1.6812,-1.6976,-1.7145,-1.7262,-1.7434,-1.7656,-1.7981,-1.8356,-1.8727,-1.9152,-1.9623,-2.0067,-2.051,-2.0908,-2.1354,-2.1691,-2.207,-2.2395,-2.2761,-2.3038,-2.34,-2.3711,-2.4059,-2.4317,-2.4515,-2.463,-2.47,-2.478,-2.4822,-2.4895,0.1612,0.0941,0.0471,0.0,-0.0606,-0.1481,-0.2018,-0.2354,-0.2623,-0.2959,-0.3363,-0.3831,-0.4361,-0.4824,-0.5289,-0.5752,-0.628,-0.6743,-0.7202,-0.7787,-0.8239,-0.8891,-0.9408,-0.9916,-1.0491,-1.1118,-1.1615,-1.2112,-1.2977,-1.3825,-1.4547,-1.497,-1.5498,-1.5735,-1.5909,-1.6134,-1.642,-1.6648,-1.6812,-1.7027,-1.719,-1.7412,-1.7634,-1.7744,-1.7914,-1.8084,-1.8259,-1.841,-1.8512,-1.8554,-1.8608,-1.8566,-1.8512,-1.8404,-1.8242,-1.7914,-1.7805,-1.7689,-1.7523,-1.7429,-1.7379,-1.7273,-1.7145,-1.6965,-1.6853,-1.674,-1.6586,-1.6368,-1.6192,-1.5956,-1.5899,-1.5783,-1.5725,-1.5604,-1.5662,-1.5667,-1.5725,-1.573,-1.5909,-1.6082,-1.6249,-1.6405,-1.6575,-1.6751,-1.6915,-1.7134,-1.7357,-1.7584,-1.77,-1.7755,-1.8035,-1.8362,-1.8732,-1.9099,-1.9519,-1.9978,-2.0472,-2.0914,-2.1354,-2.1793,-2.217,-2.2533,-2.2897,-2.3253,-2.3653,-2.3917,-2.4177,-2.4426,-2.467,-2.4871,-2.5076,-2.5186,-2.5288,-2.538,-2.5462,0.0941,0.0471,0.0067,-0.0606,-0.1412,-0.1951,-0.2489,-0.3024,-0.3159,-0.3363,-0.3631,-0.4099,-0.4631,-0.509,-0.5554,-0.6017,-0.648,-0.7007,-0.7528,-0.8047,-0.8503,-0.909,-0.967,-1.018,-1.0744,-1.1244,-1.1743,-1.2359,-1.2977,-1.383,-1.4488,-1.497,-1.5303,-1.5599,-1.5914,-1.6066,-1.6296,-1.6534,-1.6699,-1.6853,-1.7072,-1.7296,-1.7468,-1.7579,-1.7744,-1.7909,-1.8084,-1.8247,-1.8416,-1.8452,-1.8506,-1.8416,-1.8247,-1.8084,-1.786,-1.775,-1.7579,-1.7523,-1.7473,-1.7373,-1.7329,-1.7273,-1.715,-1.7016,-1.6904,-1.674,-1.6529,-1.6415,-1.6233,-1.6066,-1.6009,-1.5904,-1.5788,-1.5788,-1.5788,-1.5851,-1.5967,-1.6082,-1.6244,-1.6415,-1.6575,-1.6735,-1.6965,-1.7139,-1.7318,-1.7523,-1.7793,-1.8018,-1.8187,-1.8242,-1.8458,-1.8786,-1.9152,-1.9512,-1.9965,-2.0429,-2.0871,-2.1319,-2.1752,-2.2177,-2.2548,-2.2949,-2.3348,-2.3696,-2.4044,-2.4302,-2.4556,-2.4799,-2.4997,-2.5201,-2.544,-2.5675,-2.5787,-2.5852,-2.5917,0.0605,0.0067,-0.0538,-0.1278,-0.1951,-0.2221,-0.2623,-0.316,-0.3627,-0.3896,-0.4164,-0.4499,-0.4897,-0.5359,-0.5888,-0.6352,-0.6813,-0.7269,-0.7789,-0.8309,-0.8829,-0.928,-0.9862,-1.0368,-1.093,-1.1494,-1.2054,-1.2605,-1.3398,-1.401,-1.4433,-1.497,-1.525,-1.5541,-1.5856,-1.6009,-1.6181,-1.6483,-1.6581,-1.674,-1.6955,-1.72,-1.7379,-1.7479,-1.7639,-1.7695,-1.781,-1.7871,-1.7871,-1.792,-1.7926,-1.7871,-1.7816,-1.7761,-1.77,-1.759,-1.7473,-1.7418,-1.7373,-1.7323,-1.7334,-1.7284,-1.7217,-1.7139,-1.6965,-1.674,-1.6575,-1.6457,-1.6343,-1.6233,-1.6124,-1.6019,-1.5967,-1.5967,-1.5967,-1.6087,-1.6264,-1.6483,-1.6643,-1.6745,-1.6899,-1.7072,-1.7301,-1.7529,-1.7706,-1.7975,-1.8236,-1.8506,-1.8774,-1.8887,-1.9028,-1.9303,-1.9623,-1.9978,-2.0429,-2.0865,-2.1306,-2.1739,-2.2163,-2.2586,-2.2956,-2.3356,-2.3789,-2.4086,-2.4385,-2.4638,-2.4886,-2.5053,-2.5294,-2.5524,-2.5704,-2.5934,-2.6143,-2.6241,-2.6295,0.0133,-0.0404,-0.1278,-0.1816,-0.222,-0.2557,-0.3025,-0.3492,-0.3962,-0.4364,-0.4765,-0.5032,-0.5296,-0.5627,-0.6156,-0.6736,-0.7129,-0.7526,-0.8049,-0.8573,-0.9081,-0.9533,-1.0044,-1.0555,-1.1115,-1.1681,-1.2367,-1.3038,-1.3765,-1.401,-1.4378,-1.4916,-1.5196,-1.5425,-1.5793,-1.6019,-1.6134,-1.6384,-1.6534,-1.6684,-1.6842,-1.7027,-1.7262,-1.7368,-1.7484,-1.7534,-1.759,-1.7651,-1.7711,-1.7711,-1.7767,-1.7706,-1.7651,-1.7645,-1.754,-1.7484,-1.7373,-1.7368,-1.7329,-1.7284,-1.7284,-1.7284,-1.7284,-1.7206,-1.7145,-1.692,-1.6745,-1.6684,-1.6632,-1.6519,-1.6524,-1.642,-1.642,-1.6415,-1.642,-1.6534,-1.6643,-1.6802,-1.7027,-1.7134,-1.7296,-1.7473,-1.775,-1.8012,-1.8187,-1.841,-1.8673,-1.8934,-1.9204,-1.9565,-1.9662,-1.9862,-2.0169,-2.0435,-2.0835,-2.1264,-2.1786,-2.221,-2.2579,-2.2986,-2.3392,-2.3789,-2.4185,-2.4475,-2.4718,-2.4926,-2.5139,-2.5333,-2.5608,-2.5869,-2.6007,-2.6151,-2.6382,-2.6581,-2.664,-0.039,-0.1063,-0.1795,-0.2202,-0.2408,-0.2942,-0.3413,-0.3891,-0.4229,-0.4752,-0.525,-0.5384,-0.5666,-0.5954,-0.6318,-0.69,-0.7402,-0.775,-0.8297,-0.8834,-0.932,-0.9779,-1.0238,-1.0747,-1.1303,-1.1926,-1.2613,-1.322,-1.3825,-1.401,-1.4313,-1.4862,-1.5152,-1.5323,-1.5735,-1.5914,-1.6097,-1.6322,-1.6477,-1.6581,-1.6684,-1.6848,-1.7078,-1.7256,-1.7373,-1.7412,-1.7529,-1.7595,-1.7656,-1.7656,-1.7601,-1.7545,-1.749,-1.7484,-1.7434,-1.7329,-1.7334,-1.7329,-1.7284,-1.7284,-1.7284,-1.7284,-1.7284,-1.7278,-1.7267,-1.7206,-1.7027,-1.6965,-1.6915,-1.6802,-1.6812,-1.6812,-1.6812,-1.6864,-1.6869,-1.6925,-1.7083,-1.7245,-1.7412,-1.7579,-1.775,-1.7926,-1.8193,-1.8452,-1.8721,-1.8893,-1.9158,-1.9368,-1.9629,-2.0029,-2.0328,-2.0516,-2.0809,-2.1068,-2.1326,-2.1698,-2.2163,-2.2526,-2.2889,-2.3385,-2.3824,-2.4128,-2.4467,-2.4806,-2.5053,-2.5178,-2.541,-2.56,-2.5877,-2.6104,-2.6285,-2.6408,-2.6538,-2.6733,-2.6932,-0.0874,-0.1693,-0.188,-0.2351,-0.2851,-0.3117,-0.355,-0.4155,-0.4553,-0.4904,-0.526,-0.5762,-0.6137,-0.634,-0.6764,-0.7213,-0.752,-0.79,-0.8405,-0.8912,-0.9469,-1.0002,-1.0555,-1.0996,-1.1549,-1.2236,-1.2797,-1.3346,-1.3825,-1.401,-1.4373,-1.4975,-1.5039,-1.5269,-1.5793,-1.5977,-1.6039,-1.6316,-1.6431,-1.6477,-1.6586,-1.6745,-1.6909,-1.7022,-1.7072,-1.7195,-1.7323,-1.7395,-1.739,-1.7384,-1.7379,-1.7323,-1.7323,-1.7323,-1.7329,-1.7334,-1.7284,-1.7284,-1.7284,-1.7284,-1.7284,-1.7334,-1.7329,-1.7379,-1.7373,-1.7429,-1.7362,-1.7412,-1.7301,-1.7072,-1.7078,-1.7139,-1.7139,-1.7256,-1.7318,-1.7429,-1.759,-1.775,-1.7909,-1.8127,-1.835,-1.8518,-1.8685,-1.8946,-1.9198,-1.9466,-1.9766,-1.9978,-2.0074,-2.0479,-2.0885,-2.1166,-2.1396,-2.165,-2.1855,-2.2123,-2.2533,-2.2852,-2.3209,-2.3696,-2.4086,-2.4377,-2.467,-2.5005,-2.5217,-2.5341,-2.557,-2.5795,-2.5979,-2.6195,-2.6478,-2.6657,-2.6758,-2.6923,-2.7117]},{"header":{"parameterUnit":"m.s-1","parameterCategory":1,"la1":31.0,"la2":29.5877,"lo1":-88.7671,"lo2":-86.6584,"dy":0.0162,"dx":0.0185,"nx":115,"ny":88,"refTime":"2024-07-22T00:00:00:Z","depth":0,"parameterNumber":3,"parameterNumberName":"V-component_of_WINDS"},"data":[0.0,0.0,0.0,0.0,0.0,0.0,0.0,0.0,0.0,0.0,0.0,0.0,0.0,0.0,0.0,0.0,0.0,0.0,0.0,0.0,0.0,0.0,0.0,0.0,0.0,0.0,0.0,0.0,0.0,0.0,0.0,0.0,0.0,0.0,0.0,0.0,0.0,0.0,0.0,0.0,0.0,0.0,0.0,0.0,0.0,0.0,0.0,0.0,0.0,0.0,0.0,0.0,0.0,0.0,0.0,0.0,0.0,0.0,0.0,0.0,0.0,0.0,0.0,0.0,0.0,0.0,0.0,0.0,0.0,0.0,0.0,0.0,0.0,0.0,0.0,0.0,0.0,0.0,0.0,0.0,0.0,0.0,0.0,0.0,0.0,0.0,0.0,0.0,0.0,0.0,0.0,0.0,0.0,0.0,0.0,0.0,0.0,0.0,0.0,0.0,0.0,0.0,0.0,0.0,0.0,0.0,0.0,0.0,0.0,0.0,0.0,0.0,0.0,0.0,0.0,0.0,0.0,0.0,0.0,0.0,0.0,0.0,0.0,0.0,0.0,0.0,0.0,0.0,0.0,0.0,0.0,0.0,0.0,0.0,0.0,0.0,0.0,0.0,0.0,0.0,0.0,0.0,0.0,0.0,0.0,0.0,0.0,0.0,0.0,0.0,0.0,0.0,0.0,0.0,0.0,0.0,0.0,0.0,0.0,0.0,0.0,0.0,0.0,0.0,0.0,0.0,0.0,0.0,0.0,0.0,0.0,0.0,0.0,0.0,0.0,0.0,0.0,0.0,0.0,0.0,0.0,0.0,0.0,0.0,0.0,0.0,0.0,0.0,0.0,0.0,0.0,0.0,0.0,0.0,0.0,0.0,0.0,0.0,0.0,0.0,0.0,0.0,0.0,0.0,0.0,0.0,0.0,0.0,0.0,0.0,0.0,0.0,0.0,0.0,0.0,0.0,0.0,0.0,0.0,0.0,0.0,0.0,0.0,0.0,0.0,0.0,0.0,0.0,0.0,0.0,0.0,0.0,0.0,0.0,0.0,0.0,0.0,0.0,0.0,0.0,0.0,0.0,0.0,0.0,0.0,0.0,0.0,0.0,0.0,0.0,0.0,0.0,0.0,0.0,0.0,0.0,0.0,0.0,0.0,0.0,0.0,0.0,0.0,0.0,0.0,0.0,0.0,0.0,0.0,0.0,0.0,0.0,0.0,0.0,0.0,0.0,0.0,0.0,0.0,0.0,0.0,0.0,0.0,0.0,0.0,0.0,0.0,0.0,0.0,0.0,0.0,0.0,0.0,0.0,0.0,0.0,0.0,0.0,0.0,0.0,0.0,0.0,0.0,0.0,0.0,0.0,0.0,0.0,0.0,0.0,0.0,0.0,0.0,0.0,0.0,0.0,0.0,0.0,0.0,0.0,0.0,0.0,0.0,0.0,0.0,0.0,0.0,0.0,0.0,0.0,0.0,0.0,0.0,0.0,0.0,0.0,0.0,0.0,0.0,0.0,0.0,0.0,0.0,0.0,0.0,0.0,0.0,0.0,0.0,0.0,0.0,0.0,0.0,0.0,0.0,0.0,0.0,0.0,0.0,0.0,0.0,0.0,0.0,0.0,0.0,0.0,0.0,0.0,0.0,0.0,0.0,0.0,0.0,0.0,0.0,0.0,0.0,0.0,0.0,0.0,0.0,0.0,0.0,0.0,0.0,0.0,0.0,0.0,0.0,0.0,0.0,0.0,0.0,0.0,0.0,0.0,0.0,0.0,0.0,0.0,0.0,0.0,0.0,0.0,0.0,0.0,0.0,0.0,0.0,0.0,0.0,0.0,0.0,0.0,0.0,0.0,0.0,0.0,0.0,0.0,0.0,0.0,0.0,0.0,0.0,0.0,0.0,0.0,0.0,0.0,0.0,0.0,0.0,0.0,0.0,0.0,0.0,0.0,0.0,0.0,0.0,0.0,0.0,0.0,0.0,0.0,0.0,0.0,0.0,0.0,0.0,0.0,0.0,0.0,0.0,0.0,0.0,0.0,0.0,0.0,0.0,0.0,0.0,0.0,0.0,0.0,0.0,0.0,0.0,0.0,0.0,0.0,0.0,0.0,0.0,0.0,0.0,0.0,0.0,0.0,0.0,0.0,0.0,0.0,0.0,0.0,0.0,0.0,0.0,0.0,0.0,0.0,0.0,0.0,0.0,0.0,0.0,0.0,0.0,0.0,0.0,0.0,0.0,0.0,0.0,0.0,0.0,0.0,0.0,0.0,0.0,0.0,0.0,0.0,0.0,0.0,0.0,0.0,0.0,0.0,0.0,0.0,0.0,0.0,0.0,0.0,0.0,0.0,0.0,0.0,0.0,0.0,0.0,0.0,0.0,0.0,0.0,0.0,0.0,0.0,0.0,0.0,0.0,0.0,0.0,0.0,0.0,0.0,0.0,0.0,0.0,0.0,0.0,0.0,0.0,0.0,0.0,0.0,0.0,0.0,0.0,0.0,0.0,0.0,0.0,0.0,0.0,0.0,0.0,0.0,0.0,0.0,0.0,0.0,0.0,0.0,0.0,0.0,0.0,0.0,0.0,0.0,0.0,0.0,0.0,0.0,0.0,0.0,0.0,0.0,0.0,0.0,0.0,0.0,0.0,0.0,0.0,0.0,0.0,0.0,0.0,0.0,0.0,0.0,0.0,0.0,0.0,0.0,0.0,0.0,0.0,0.0,0.0,0.0,0.0,0.0,0.0,0.0,0.0,0.0,0.0,0.0,0.0,0.0,0.0,0.0,0.0,0.0,0.0,0.0,0.0,0.0,0.0,0.0,0.0,0.0,0.0,0.0,0.0,0.0,0.0,0.0,0.0,0.0,0.0,0.0,0.0,0.0,0.0,0.0,0.0,0.0,0.0,0.0,0.0,0.0,0.0,0.0,0.0,0.0,0.0,0.0,0.0,0.0,0.0,0.0,0.0,0.0,0.0,0.0,0.0,0.0,0.0,0.0,0.0,0.0,0.0,0.0,0.0,0.0,0.0,0.0,0.0,0.0,0.0,0.0,0.0,0.0,0.0,0.0,0.0,0.0,0.0,0.0,0.0,0.0,0.0,0.0,0.0,0.0,0.0,0.0,0.0,0.0,0.0,0.0,0.0,0.0,0.0,0.0,0.0,0.0,0.0,0.0,0.0,0.0,0.0,0.0,0.0,0.0,0.0,0.0,0.0,0.0,0.0,0.0,0.0,0.0,0.0,0.0,0.0,0.0,0.0,0.0,0.0,0.0,0.0,0.0,0.0,0.0,0.0,0.0,0.0,0.0,0.0,0.0,0.0,0.0,0.0,0.0,0.0,0.0,0.0,0.0,0.0,0.0,0.0,0.0,0.0,0.0,0.0,0.0,0.0,0.0,0.0,0.0,0.0,0.0,0.0,0.0,0.0,0.0,0.0,0.0,0.0,0.0,0.0,0.0,0.0,0.0,0.0,0.0,0.0,0.0,0.0,0.0,0.0,0.0,0.0,0.0,0.0,0.0,0.0,0.0,0.0,0.0,0.0,0.0,0.0,0.0,0.0,0.0,0.0,0.0,0.0,0.0,0.0,0.0,0.0,0.0,0.0,0.0,0.0,0.0,0.0,0.0,0.0,0.0,0.0,0.0,0.0,0.0,0.0,0.0,0.0,0.0,0.0,0.0,0.0,0.0,0.0,0.0,0.0,0.0,0.0,0.0,0.0,0.0,0.0,0.0,0.0,0.0,0.0,0.0,0.0,0.0,0.0,0.0,0.0,0.0,0.0,0.0,0.0,0.0,0.0,0.0,0.0,0.0,0.0,0.0,0.0,0.0,0.0,0.0,0.0,0.0,0.0,0.0,0.0,0.0,0.0,0.0,0.0,0.0,0.0,0.0,0.0,0.0,0.0,0.0,0.0,0.0,0.0,0.0,0.0,0.0,0.0,0.0,0.0,0.0,0.0,0.0,0.0,0.0,0.0,0.0,0.0,0.0,0.0,0.0,0.0,0.0,0.0,0.0,0.0,0.0,0.0,0.0,0.0,0.0,0.0,0.0,0.0,0.0,0.0,0.0,0.0,0.0,0.0,0.0,0.0,0.0,0.0,0.0,0.0,0.0,0.0,0.0,0.0,0.0,0.0,0.0,0.0,0.0,0.0,0.0,0.0,0.0,0.0,0.0,0.0,0.0,0.0,0.0,0.0,0.0,0.0,0.0,0.0,0.0,0.0,0.0,0.0,0.0,0.0,0.0,0.0,0.0,0.0,0.0,0.0,0.0,0.0,0.0,0.0,0.0,-1.3545,0.0,0.0,0.0,0.0,0.0,0.0,0.0,0.0,0.0,0.0,0.0,0.0,0.0,0.0,0.0,0.0,0.0,0.0,0.0,0.0,0.0,0.0,0.0,0.0,0.0,0.0,0.0,0.0,0.0,0.0,0.0,0.0,0.0,0.0,0.0,0.0,0.0,0.0,0.0,0.0,0.0,0.0,0.0,0.0,0.0,0.0,0.0,0.0,0.0,0.0,0.0,0.0,0.0,0.0,0.0,0.0,0.0,0.0,0.0,0.0,0.0,0.0,0.0,0.0,0.0,0.0,0.0,0.0,0.0,0.0,0.0,0.0,0.0,0.0,0.0,0.0,0.0,0.0,0.0,0.0,0.0,0.0,0.0,0.0,0.0,0.0,0.0,0.0,0.0,0.0,0.0,0.0,0.0,0.0,0.0,0.0,0.0,0.0,0.0,0.0,0.0,0.0,0.0,0.0,0.0,0.0,0.0,0.0,0.0,0.0,-1.6003,-1.5346,-1.4689,-1.4024,-1.34,0.0,0.0,0.0,0.0,0.0,0.0,0.0,0.0,0.0,0.0,0.0,0.0,0.0,0.0,0.0,0.0,0.0,0.0,0.0,0.0,0.0,0.0,0.0,0.0,0.0,0.0,0.0,0.0,0.0,0.0,0.0,0.0,0.0,0.0,0.0,0.0,0.0,0.0,0.0,0.0,0.0,0.0,0.0,0.0,0.0,0.0,0.0,0.0,0.0,0.0,0.0,0.0,0.0,0.0,0.0,0.0,0.0,0.0,0.0,0.0,0.0,0.0,0.0,0.0,0.0,0.0,0.0,0.0,0.0,0.0,0.0,0.0,0.0,0.0,0.0,0.0,0.0,0.0,0.0,0.0,0.0,0.0,0.0,0.0,0.0,0.0,0.0,0.0,0.0,0.0,0.0,0.0,0.0,0.0,0.0,0.0,0.0,0.0,0.0,0.0,0.0,0.0,0.0,0.0,0.0,0.0,0.0,0.0,0.0,0.0,0.0,0.0,-1.2603,-1.2569,-1.2921,0.0,0.0,0.0,0.0,0.0,0.0,0.0,0.0,0.0,0.0,0.0,0.0,0.0,0.0,0.0,0.0,0.0,0.0,0.0,0.0,0.0,0.0,0.0,0.0,0.0,0.0,0.0,0.0,0.0,0.0,0.0,0.0,0.0,0.0,0.0,0.0,0.0,0.0,0.0,0.0,0.0,0.0,0.0,0.0,0.0,0.0,0.0,0.0,0.0,0.0,0.0,0.0,0.0,0.0,0.0,0.0,0.0,0.0,0.0,0.0,0.0,0.0,0.0,0.0,0.0,0.0,0.0,0.0,0.0,0.0,0.0,0.0,0.0,0.0,0.0,0.0,0.0,0.0,0.0,0.0,0.0,0.0,0.0,0.0,0.0,0.0,0.0,0.0,0.0,0.0,0.0,0.0,0.0,0.0,0.0,0.0,0.0,0.0,0.0,0.0,0.0,0.0,0.0,0.0,0.0,0.0,0.0,0.0,0.0,0.0,-0.8305,-0.7649,-0.6744,0.0,-1.208,0.0,0.0,0.0,0.0,0.0,0.0,0.0,0.0,0.0,0.0,0.0,0.0,0.0,0.0,0.0,0.0,0.0,0.0,0.0,0.0,0.0,0.0,0.0,0.0,0.0,0.0,0.0,0.0,0.0,0.0,0.0,0.0,0.0,0.0,0.0,0.0,0.0,0.0,0.0,0.0,0.0,0.0,0.0,0.0,0.0,0.0,0.0,0.0,0.0,0.0,0.0,0.0,0.0,0.0,0.0,0.0,0.0,0.0,0.0,0.0,0.0,0.0,0.0,0.0,0.0,0.0,0.0,0.0,0.0,0.0,0.0,0.0,0.0,0.0,0.0,0.0,0.0,0.0,0.0,0.0,0.0,0.0,0.0,0.0,0.0,0.0,0.0,0.0,0.0,0.0,0.0,0.0,0.0,0.0,0.0,0.0,0.0,0.0,0.0,0.0,0.0,0.0,0.0,0.0,0.0,0.0,0.0,0.0,0.0,0.0,0.0,-0.0983,-0.3205,-0.5337,0.0,0.0,0.0,0.0,0.0,0.0,0.0,0.0,0.0,0.0,0.0,0.0,0.0,0.0,0.0,0.0,0.0,0.0,0.0,0.0,0.0,0.0,0.0,0.0,0.0,0.0,0.0,0.0,0.0,0.0,0.0,0.0,0.0,0.0,0.0,0.0,0.0,0.0,0.0,0.0,0.0,0.0,0.0,0.0,0.0,0.0,0.0,0.0,0.0,0.0,0.0,0.0,0.0,0.0,0.0,0.0,0.0,0.0,0.0,0.0,0.0,0.0,0.0,0.0,0.0,0.0,0.0,0.0,0.0,0.0,0.0,0.0,0.0,0.0,0.0,0.0,0.0,0.0,0.0,0.0,0.0,0.0,0.0,0.0,0.0,0.0,0.0,0.0,0.0,0.0,0.0,0.0,0.0,0.0,0.0,0.0,0.0,0.0,0.0,0.0,0.0,0.0,0.0,0.0,0.0,0.0,0.0,0.0,0.0,0.0,0.0445,0.0,0.5667,0.1387,-0.1867,-0.3499,0.0,0.0,0.0,0.0,0.0,0.0,0.0,0.0,0.0,0.0,0.0,0.0,0.0,0.0,0.0,0.0,0.0,0.0,0.0,0.0,0.0,0.0,0.0,0.0,0.0,0.0,0.0,0.0,0.0,0.0,0.0,0.0,0.0,0.0,0.0,0.0,0.0,0.0,0.0,0.0,0.0,0.0,0.0,0.0,0.0,0.0,0.0,0.0,0.0,0.0,0.0,0.0,0.0,0.0,0.0,0.0,0.0,0.0,0.0,0.0,0.0,0.0,0.0,0.0,0.0,0.0,0.0,0.0,0.0,0.0,0.0,0.0,0.0,0.0,0.0,0.0,0.0,0.0,0.0,0.0,0.0,0.0,0.0,0.0,0.0,0.0,0.0,0.0,0.0,0.0,0.0,0.0,0.0,0.0,0.0,0.0,0.0,0.0,0.0,0.0,0.0,0.0,0.0,0.0,0.0,0.0,0.0,0.0,0.0,0.5033,1.1959,1.2819,0.8075,0.2856,0.0,0.0,0.0,0.0,0.0,0.0,0.0,0.0,0.0,0.0,0.0,0.0,0.0,0.0,0.0,0.0,0.0,0.0,0.0,0.0,0.0,0.0,0.0,0.0,0.0,0.0,0.0,0.0,0.0,0.0,0.0,0.0,0.0,0.0,0.0,0.0,0.0,0.0,0.0,0.0,0.0,0.0,0.0,0.0,0.0,0.0,0.0,0.0,0.0,0.0,0.0,0.0,0.0,0.0,0.0,0.0,0.0,0.0,0.0,0.0,0.0,0.0,0.0,0.0,0.0,0.0,0.0,0.0,0.0,0.0,0.0,0.0,0.0,0.0,0.0,0.0,0.0,0.0,0.0,0.0,0.0,0.0,0.0,0.0,0.0,0.0,0.0,0.0,0.0,0.0,0.0,0.0,0.0,0.0,0.0,0.0,0.0,0.0,0.0,0.0,0.0,0.0,0.0,0.0,0.0,0.0,0.0,0.0,0.0,0.5083,1.4053,1.878,1.8578,1.3592,0.8228,0.0,0.0,0.0,0.0,0.0,0.0,0.0,0.0,0.0,0.0,0.0,0.0,0.0,0.0,0.0,0.0,0.0,0.0,0.0,0.0,0.0,0.0,0.0,0.0,0.0,0.0,0.0,0.0,0.0,0.0,0.0,0.0,0.0,0.0,0.0,0.0,0.0,0.0,0.0,0.0,0.0,0.0,0.0,0.0,0.0,0.0,0.0,0.0,0.0,0.0,0.0,0.0,0.0,0.0,0.0,0.0,0.0,0.0,0.0,0.0,0.0,0.0,0.0,0.0,0.0,0.0,0.0,0.0,0.0,0.0,0.0,0.0,0.0,0.0,0.0,0.0,0.0,0.0,0.0,0.0,0.0,0.0,0.0,0.0,0.0,0.0,0.0,0.0,0.0,0.0,0.0,0.0,0.0,0.0,0.0,0.0,0.0,0.0,0.0,0.0,0.0,0.0,0.0,0.0,0.0,0.0,0.0,0.0,0.0,1.5182,0.0,2.2571,0.0,1.667,1.1283,0.0,0.0,0.0,0.0,0.0,0.0,0.0,0.0,0.0,0.0,0.0,0.0,0.0,0.0,0.0,0.0,0.0,0.0,0.0,0.0,0.0,0.0,0.0,0.0,0.0,0.0,0.0,0.0,0.0,0.0,0.0,0.0,0.0,0.0,0.0,0.0,0.0,0.0,0.0,0.0,0.0,0.0,0.0,0.0,0.0,0.0,0.0,0.0,0.0,0.0,0.0,0.0,0.0,0.0,0.0,0.0,0.0,0.0,0.0,0.0,0.0,0.0,0.0,0.0,0.0,0.0,0.0,0.0,0.0,0.0,0.0,0.0,0.0,0.0,0.0,0.0,0.0,0.0,0.0,0.0,0.0,0.0,0.0,0.0,0.0,0.0,0.0,0.0,0.0,0.0,0.0,0.0,0.0,0.0,0.0,0.0,0.0,0.0,0.0,0.0,0.0,0.0,0.0,0.0,0.0,0.0,0.0,0.0,1.5603,2.222,2.2907,2.2972,2.2485,1.7273,1.1904,0.0,0.0,0.0,0.0,0.0,0.0,0.0,0.0,0.0,0.0,0.0,0.0,0.0,0.0,0.0,0.0,0.0,0.0,0.0,0.0,0.0,0.0,0.0,0.0,0.0,0.0,0.0,0.0,0.0,0.0,0.0,0.0,0.0,0.0,0.0,0.0,0.0,0.0,0.0,0.0,0.0,0.0,0.0,0.0,0.0,0.0,0.0,0.0,0.0,0.0,0.0,0.0,0.0,0.0,0.0,0.0,0.0,0.0,0.0,0.0,0.0,0.0,0.0,0.0,0.0,0.0,0.0,0.0,0.0,0.0,0.0,0.0,0.0,0.0,0.0,0.0,0.0,0.0,0.0,0.0,0.0,0.0,0.0,0.0,0.0,0.0,0.0,0.0,0.0,0.0,0.0,0.0,0.0,0.0,0.0,0.0,0.0,0.0,0.0,0.0,0.0,0.0,0.0,0.0,0.0,0.0,0.0,0.0,0.0,2.2214,2.2757,2.2739,2.2207,2.0005,1.6536,0.0,0.0,0.0,0.0,0.0,0.0,0.0,0.0,0.0,0.0,0.0,0.0,0.0,0.0,0.0,0.0,0.0,0.0,0.0,0.0,0.0,0.0,0.0,0.0,0.0,0.0,0.0,0.0,0.0,0.0,0.0,0.0,0.0,0.0,0.0,0.0,0.0,0.0,0.0,0.0,0.0,0.0,0.0,0.0,0.0,0.0,0.0,0.0,0.0,0.0,0.0,0.0,0.0,0.0,0.0,0.0,0.0,0.0,0.0,0.0,0.0,0.0,0.0,0.0,0.0,0.0,0.0,0.0,0.0,0.0,0.0,0.0,0.0,0.0,0.0,0.0,0.0,0.0,0.0,0.0,0.0,0.0,0.0,0.0,0.0,0.0,0.0,0.0,0.0,0.0,0.0,0.0,0.0,0.0,0.0,0.0,0.0,0.0,0.0,0.0,0.0,0.0,0.0,0.0,0.0,0.0,0.0,0.0,0.0,2.2198,2.2474,2.2548,2.2339,2.1434,1.8795,1.4204,0.0,0.0,0.0,0.0,0.0,0.0,0.0,0.0,0.0,0.0,0.0,0.0,0.0,0.0,0.0,0.0,0.0,0.0,0.0,0.0,0.0,0.0,0.0,0.0,0.0,0.0,0.0,0.0,0.0,0.0,0.0,0.0,0.0,0.0,0.0,0.0,0.0,0.0,0.0,0.0,0.0,0.0,0.0,0.0,0.0,0.0,0.0,0.0,0.0,0.0,0.0,0.0,0.0,0.0,0.0,0.0,0.0,0.0,0.0,0.0,0.0,0.0,0.0,0.0,0.0,0.0,0.0,0.0,0.0,0.0,0.0,0.0,0.0,0.0,0.0,0.0,0.0,0.0,0.0,0.0,0.0,0.0,0.0,0.0,0.0,0.0,0.0,0.0,0.0,0.0,0.0,0.0,0.0,0.0,0.0,0.0,0.0,0.0,0.0,0.0,0.0,0.0,0.0,0.0,0.0,0.0,0.0,0.0,2.233,2.2194,2.2287,2.269,2.1751,1.913,0.0,0.0,0.0,0.0,0.0,0.0,0.0,0.0,0.0,0.0,0.0,0.0,0.0,0.0,0.0,0.0,0.0,0.0,0.0,0.0,0.0,0.0,0.0,0.0,0.0,0.0,0.0,0.0,0.0,0.0,0.0,0.0,0.0,0.0,0.0,0.0,0.0,0.0,0.0,0.0,0.0,0.0,0.0,0.0,0.0,0.0,0.0,0.0,0.0,0.0,0.0,0.0,0.0,0.0,0.0,0.0,0.0,0.0,0.0,0.0,0.0,0.0,0.0,0.0,0.0,0.0,0.0,0.0,0.0,0.0,0.0,0.0,0.0,0.0,0.0,0.0,0.0,0.0,0.0,0.0,0.0,0.0,0.0,0.0,0.0,0.0,0.0,0.0,0.0,0.0,0.0,0.0,0.0,0.0,0.0,0.0,0.0,0.0,0.0,0.0,0.0,0.0,0.0,0.0,0.0,0.0,0.0,0.0,0.0,2.2629,2.1495,2.1517,2.2831,2.1985,2.115,0.0,0.0,0.0,0.0,0.0,0.0,0.0,0.0,0.0,0.0,0.0,0.0,0.0,0.0,0.0,0.0,0.0,0.0,0.0,0.0,0.0,0.0,0.0,0.0,0.0,0.0,0.0,0.0,0.0,0.0,0.0,0.0,0.0,0.0,0.0,0.0,0.0,0.0,0.0,0.0,0.0,0.0,0.0,0.0,0.0,0.0,0.0,0.0,0.0,0.0,0.0,0.0,0.0,0.0,0.0,0.0,0.0,0.0,0.0,0.0,0.0,0.0,0.0,0.0,0.0,0.0,0.0,0.0,0.0,0.0,0.0,0.0,0.0,0.0,0.0,0.0,0.0,0.0,0.0,0.0,0.0,0.0,0.0,0.0,0.0,0.0,0.0,0.0,0.0,0.0,0.0,0.0,0.0,0.0,0.0,0.0,0.0,0.0,0.0,0.0,0.0,0.0,0.0,0.0,0.0,0.0,0.0,0.0,2.2694,2.2814,2.1239,2.1063,2.2471,2.1977,2.2153,0.0,0.0,0.0,0.0,0.0,0.0,0.0,0.0,0.0,0.0,0.0,0.0,0.0,0.0,0.0,0.0,0.0,0.0,0.0,0.0,0.0,0.0,0.0,0.0,0.0,0.0,0.0,0.0,0.0,0.0,0.0,0.0,0.0,0.0,0.0,0.0,0.0,0.0,0.0,0.0,0.0,0.0,0.0,0.0,0.0,0.0,0.0,0.0,0.0,0.0,0.0,0.0,0.0,0.0,0.0,0.0,0.0,0.0,0.0,0.0,0.0,0.0,0.0,0.0,0.0,0.0,0.0,0.0,0.0,0.0,0.0,0.0,0.0,0.0,0.0,0.0,0.0,0.0,0.0,0.0,0.0,0.0,0.0,0.0,0.0,0.0,0.0,0.0,0.0,0.0,0.0,0.0,0.0,0.0,0.0,0.0,0.0,0.0,0.0,0.0,0.0,0.0,0.0,0.0,0.0,0.0,0.0,0.0,2.2859,2.2871,2.1268,2.0845,2.1737,2.1875,2.2536,0.0,0.0,0.0,0.0,0.0,0.0,0.0,0.0,0.0,0.0,0.0,0.0,0.0,0.0,0.0,0.0,0.0,0.0,0.0,0.0,0.0,0.0,0.0,0.0,0.0,0.0,0.0,0.0,0.0,0.0,0.0,0.0,0.0,0.0,0.0,0.0,0.0,0.0,0.0,0.0,0.0,0.0,0.0,0.0,0.0,0.0,0.0,0.0,0.0,0.0,0.0,0.0,0.0,0.0,0.0,0.0,0.0,0.0,0.0,0.0,0.0,0.0,0.0,0.0,0.0,0.0,0.0,0.0,0.0,0.0,0.0,0.0,0.0,0.0,0.0,0.0,0.0,0.0,0.0,0.0,0.0,0.0,0.0,0.0,0.0,0.0,0.0,0.0,0.0,0.0,0.0,0.0,0.0,0.0,0.0,0.0,0.0,0.0,0.0,0.0,0.0,0.0,0.0,0.0,0.0,0.0,0.0,0.0,2.2948,2.2866,2.1257,2.0799,2.1619,2.2361,2.2876,0.0,0.0,0.0,0.0,0.0,0.0,0.0,0.0,0.0,0.0,0.0,0.0,0.0,0.0,0.0,0.0,0.0,0.0,0.0,0.0,0.0,0.0,0.0,0.0,0.0,0.0,0.0,0.0,0.0,0.0,0.0,0.0,0.0,0.0,0.0,0.0,0.0,0.0,0.0,0.0,0.0,0.0,0.0,0.0,0.0,0.0,0.0,0.0,2.5229,0.0,0.0,0.0,0.0,0.0,0.0,0.0,0.0,0.0,0.0,0.0,0.0,0.0,0.0,0.0,0.0,0.0,0.0,0.0,0.0,0.0,0.0,0.0,0.0,0.0,0.0,0.0,0.0,0.0,0.0,0.0,0.0,0.0,0.0,0.0,0.0,0.0,0.0,0.0,0.0,0.0,0.0,0.0,0.0,0.0,0.0,0.0,0.0,0.0,0.0,0.0,0.0,0.0,0.0,0.0,0.0,0.0,0.0,0.0,2.2919,2.2813,2.1162,2.046,2.0921,2.1782,2.244,0.0,0.0,0.0,0.0,0.0,0.0,0.0,0.0,0.0,0.0,0.0,0.0,0.0,0.0,0.0,0.0,0.0,0.0,0.0,0.0,0.0,0.0,0.0,0.0,0.0,0.0,0.0,0.0,0.0,0.0,0.0,0.0,0.0,0.0,0.0,0.0,0.0,0.0,0.0,0.0,0.0,0.0,0.0,0.0,0.0,0.0,0.0,0.0,0.0,0.0,0.0,0.0,0.0,0.0,0.0,0.0,0.0,0.0,0.0,0.0,0.0,0.0,0.0,0.0,0.0,0.0,0.0,0.0,0.0,0.0,0.0,0.0,0.0,0.0,0.0,0.0,0.0,0.0,0.0,0.0,0.0,0.0,0.0,0.0,0.0,0.0,0.0,0.0,0.0,0.0,0.0,0.0,0.0,0.0,0.0,0.0,0.0,0.0,0.0,0.0,0.0,0.0,0.0,0.0,0.0,0.0,0.0,2.3717,2.2775,2.2516,2.0935,2.0069,2.0069,2.0891,2.1678,2.233,0.0,0.0,0.0,0.0,0.0,0.0,0.0,0.0,0.0,0.0,0.0,0.0,0.0,0.0,0.0,0.0,0.0,0.0,0.0,0.0,0.0,0.0,0.0,0.0,0.0,0.0,0.0,0.0,0.0,0.0,0.0,0.0,0.0,0.0,0.0,0.0,0.0,0.0,2.0086,2.1565,0.0,0.0,0.0,0.0,0.0,0.0,0.0,0.0,2.6129,0.0,0.0,0.0,0.0,0.0,0.0,0.0,0.0,0.0,0.0,0.0,0.0,0.0,0.0,0.0,0.0,0.0,0.0,0.0,0.0,0.0,0.0,0.0,0.0,0.0,0.0,0.0,0.0,0.0,0.0,0.0,0.0,0.0,0.0,0.0,0.0,0.0,0.0,0.0,0.0,0.0,0.0,0.0,0.0,0.0,0.0,0.0,0.0,0.0,0.0,0.0,0.0,0.0,0.0,0.0,0.0,2.4433,2.3355,2.2398,2.156,2.0506,1.9918,1.9879,2.0637,2.0836,2.0358,0.0,0.0,0.0,0.0,0.0,0.0,0.0,0.0,0.0,0.0,0.0,0.0,0.0,0.0,0.0,0.0,0.0,0.0,0.0,0.0,0.0,0.0,0.0,0.0,0.0,0.0,0.0,0.0,0.0,0.0,0.0,0.0,0.0,0.0,0.0,0.0,0.0,0.0,0.0,2.1885,2.336,0.0,0.0,0.0,0.0,0.0,0.0,0.0,0.0,2.5686,0.0,0.0,0.0,0.0,0.0,0.0,0.0,0.0,0.0,0.0,0.0,0.0,0.0,0.0,0.0,0.0,0.0,0.0,0.0,0.0,0.0,0.0,0.0,0.0,0.0,0.0,0.0,0.0,0.0,0.0,0.0,0.0,0.0,0.0,0.0,0.0,0.0,0.0,0.0,0.0,0.0,0.0,0.0,0.0,0.0,0.0,0.0,0.0,0.0,0.0,0.0,0.0,0.0,0.0,0.0,2.417,2.3201,2.2202,2.1217,2.0276,1.9751,1.9647,1.9985,1.997,0.0,0.0,0.0,0.0,0.0,0.0,0.0,0.0,0.0,0.0,0.0,0.0,0.0,0.0,0.0,0.0,0.0,0.0,0.0,0.0,0.0,0.0,0.0,0.0,0.0,0.0,0.0,0.0,0.0,0.0,0.0,0.0,0.0,0.0,0.0,0.0,0.0,0.0,0.0,0.0,2.2451,2.3602,2.4955,0.0,0.0,0.0,0.0,0.0,0.0,2.5427,2.4163,0.0,0.0,0.0,0.0,0.0,0.0,0.0,0.0,0.0,0.0,0.0,0.0,0.0,0.0,0.0,0.0,0.0,0.0,0.0,0.0,0.0,0.0,0.0,0.0,0.0,0.0,0.0,0.0,0.0,0.0,0.0,0.0,0.0,0.0,0.0,0.0,0.0,0.0,0.0,0.0,0.0,0.0,0.0,0.0,0.0,0.0,0.0,0.0,0.0,0.0,0.0,0.0,0.0,0.0,0.0,2.3869,2.2844,2.1806,2.0821,2.0025,1.9555,1.9457,1.938,1.9259,0.0,0.0,0.0,0.0,0.0,0.0,0.0,0.0,0.0,0.0,0.0,0.0,0.0,0.0,0.0,0.0,0.0,0.0,0.0,0.0,0.0,0.0,0.0,0.0,0.0,0.0,0.0,0.0,0.0,0.0,0.0,0.0,0.0,0.0,0.0,0.0,0.0,0.0,0.0,0.0,0.0,2.3831,2.487,2.5048,0.0,0.0,0.0,0.0,2.5243,2.3758,0.0,0.0,0.0,0.0,0.0,0.0,0.0,0.0,0.0,0.0,0.0,0.0,0.0,0.0,0.0,0.0,0.0,0.0,0.0,0.0,0.0,0.0,0.0,0.0,0.0,0.0,0.0,0.0,0.0,0.0,0.0,0.0,0.0,0.0,0.0,0.0,0.0,0.0,0.0,0.0,0.0,0.0,0.0,0.0,0.0,0.0,0.0,0.0,0.0,0.0,0.0,0.0,0.0,0.0,0.0,0.0,2.2838,2.1805,2.0783,1.9823,1.9484,1.9305,1.9232,1.9177,1.8947,0.0,0.0,0.0,0.0,0.0,0.0,0.0,0.0,0.0,0.0,0.0,0.0,0.0,0.0,0.0,0.0,0.0,0.0,0.0,0.0,0.0,0.0,0.0,0.0,0.0,0.0,0.0,0.0,0.0,0.0,0.0,0.0,0.0,0.0,0.0,0.0,0.0,0.0,0.0,0.0,0.0,2.4004,2.4066,2.4557,2.4964,0.0,0.0,2.4524,2.3863,2.1709,0.0,0.0,0.0,0.0,0.0,0.0,0.0,0.0,0.0,0.0,0.0,0.0,0.0,0.0,0.0,0.0,0.0,0.0,0.0,0.0,0.0,0.0,0.0,0.0,0.0,0.0,0.0,0.0,0.0,0.0,0.0,0.0,0.0,0.0,0.0,0.0,0.0,0.0,0.0,0.0,0.0,0.0,0.0,0.0,0.0,0.0,0.0,0.0,0.0,0.0,0.0,0.0,0.0,0.0,0.0,2.224,2.2486,2.1524,2.0465,1.9431,1.9246,1.9119,1.8984,1.8949,1.8652,0.0,0.0,0.0,0.0,0.0,0.0,0.0,0.0,0.0,0.0,0.0,0.0,0.0,0.0,0.0,0.0,0.0,0.0,0.0,0.0,0.0,0.0,0.0,0.0,0.0,0.0,0.0,0.0,0.0,0.0,0.0,0.0,0.0,0.0,0.0,0.0,0.0,0.0,0.0,0.0,0.0,0.0,2.3412,2.3599,0.0,0.0,0.0,2.2497,2.1484,0.0,0.0,0.0,0.0,0.0,0.0,0.0,0.0,0.0,0.0,0.0,0.0,0.0,0.0,0.0,0.0,0.0,0.0,0.0,0.0,0.0,0.0,0.0,0.0,0.0,0.0,0.0,0.0,0.0,0.0,0.0,0.0,0.0,0.0,0.0,0.0,0.0,0.0,0.0,0.0,0.0,0.0,0.0,0.0,0.0,0.0,0.0,0.0,0.0,0.0,0.0,0.0,0.0,0.0,0.0,0.0,0.0,2.2253,2.1086,2.0002,1.9122,1.9,1.887,1.8732,1.8705,0.0,0.0,0.0,0.0,0.0,0.0,0.0,0.0,0.0,0.0,0.0,0.0,0.0,0.0,0.0,0.0,0.0,0.0,0.0,0.0,0.0,0.0,0.0,0.0,0.0,0.0,0.0,0.1931,0.0,0.0,0.0,0.0,0.0,0.0,0.0,0.0,0.0,0.0,0.0,0.0,0.0,0.0,2.2017,2.2388,2.2285,2.2062,0.0,0.0,2.024,1.8949,1.6672,1.422,0.0,0.0,0.0,0.0,0.0,0.0,0.0,0.0,0.0,0.0,0.0,0.0,0.0,0.0,0.0,0.0,0.0,0.0,0.0,0.0,0.0,0.0,0.0,0.0,0.0,0.0,0.0,0.0,0.0,0.0,0.0,0.0,0.0,0.0,0.0,0.0,0.0,0.0,0.0,0.0,0.0,0.0,0.0,0.0,0.0,0.0,0.0,0.0,0.0,0.0,0.0,0.0,0.0,0.0,0.0,2.1841,2.0135,1.9099,1.8825,1.8641,1.8524,1.8505,1.8397,1.7958,0.0,0.0,0.0,0.0,0.0,0.0,0.0,0.0,0.0,0.0,0.0,0.0,0.0,0.0,0.0,0.0,0.0,0.0,0.0,0.0,0.0,0.0,0.0,0.0,0.0,0.0,0.0,0.0,0.0,0.0,0.0,0.0,0.0,0.0,0.0,0.0,0.0,0.0,0.0,0.0,0.0,2.0923,2.0706,2.0558,2.0341,0.0,0.0,1.7995,1.6483,1.3996,1.1518,0.9184,0.0,0.0,0.0,0.0,0.0,0.0,0.0,0.0,0.0,0.0,0.0,0.0,0.0,0.0,0.0,0.0,0.0,0.0,0.0,0.0,0.0,0.0,0.0,0.0,0.0,0.0,0.0,0.0,0.0,0.0,0.0,0.0,0.0,0.0,0.0,0.0,0.0,0.0,0.0,0.0,0.0,0.0,0.0,0.0,0.0,0.0,0.0,0.0,0.0,0.0,0.0,0.0,0.0,2.1322,2.1443,2.0146,1.9133,1.845,1.8273,1.8146,1.8065,1.8005,1.7568,0.0,0.0,0.0,0.0,0.0,0.0,0.0,0.0,0.0,0.0,0.0,0.0,0.0,0.0,0.0,0.0,0.0,0.0,0.0,0.0,0.0,0.0,0.0,0.0,0.0,0.0,0.0,0.0,0.5878,0.6987,0.8136,0.0,0.0,0.0,0.0,0.0,0.0,0.0,0.0,0.0,0.0,1.9368,1.931,1.8901,0.0,0.0,1.6702,1.5328,1.3807,1.1627,0.943,0.7364,0.5107,0.0,0.0,0.0,0.0,0.0,0.0,0.0,0.0,0.0,0.0,0.0,0.0,0.0,0.0,0.0,0.0,0.0,0.0,0.0,0.0,0.0,0.0,0.0,0.0,0.0,0.0,0.0,0.0,0.0,0.0,0.0,0.0,0.0,0.0,0.0,0.0,0.0,0.0,0.0,0.0,0.0,0.0,0.0,0.0,0.0,0.0,0.0,0.0,0.0,0.0,0.0,0.0,2.1317,2.0951,2.0005,1.9017,1.807,1.7915,1.78,1.7673,1.7627,1.7175,0.0,0.0,0.0,0.0,0.0,0.0,0.0,0.0,0.0,0.0,0.0,0.0,0.0,0.0,0.0,0.0,0.0,0.0,0.0,0.0,0.0,0.0,0.0,0.0,0.0,0.0,0.0,0.0,0.6474,0.7407,0.8444,0.0,0.0,0.0,0.0,0.0,0.0,0.0,0.0,0.0,0.0,1.7929,1.7814,1.7335,1.668,1.5904,1.4606,1.3113,1.1595,0.9736,0.7809,0.6106,0.0,0.0,0.0,0.0,0.0,0.0,0.0,0.0,0.0,0.0,0.0,0.0,0.0,0.0,0.0,0.0,0.0,0.0,0.0,0.0,0.0,0.0,0.0,0.0,0.0,0.0,0.0,0.0,0.0,0.0,2.2084,0.0,0.0,0.0,0.0,0.0,0.0,0.0,0.0,0.0,0.0,0.0,0.0,0.0,0.0,0.0,0.0,0.0,0.0,0.0,0.0,0.0,0.0,2.1272,2.042,1.9516,1.8606,1.7743,1.7579,1.7471,1.7416,1.7224,1.6751,1.5981,0.0,0.0,0.0,0.0,0.0,0.0,0.0,0.0,0.0,0.0,0.0,0.0,0.0,0.0,0.0,0.0,0.0,0.0,0.0,0.0,0.0,0.0,0.0,0.0,0.0,0.0,0.5599,0.6626,0.7541,0.0,0.0,0.0,0.0,0.0,0.0,0.0,0.0,0.0,0.0,1.6513,1.6637,1.6228,1.5853,1.5245,1.4177,1.3016,1.1658,0.9977,0.8369,0.6839,0.0,0.0,0.0,0.0,0.0,0.0,0.0,0.0,0.0,0.0,0.0,0.0,0.0,0.0,0.0,0.0,0.0,0.0,0.0,0.0,0.0,0.0,0.0,0.0,0.0,0.0,0.0,2.3455,2.3012,0.0,0.0,0.0,0.0,0.0,0.0,0.0,0.0,0.0,0.0,0.0,2.3325,2.2693,0.0,0.0,0.0,0.0,0.0,0.0,0.0,0.0,0.0,0.0,0.0,0.0,2.1247,1.9993,1.9487,1.8626,1.7337,1.7224,1.7109,1.6993,1.6858,1.6181,1.4967,0.0,0.0,0.0,0.0,0.0,0.0,0.0,0.0,0.0,0.0,0.0,0.0,0.0,0.0,0.0,0.0,0.0,0.0,0.0,0.0,0.0,0.0,0.0,0.0,0.0,0.5745,0.0,0.0,0.0,0.0,0.0,0.0,0.0,0.0,0.0,0.0,0.0,1.5045,1.5584,1.5894,1.6014,1.5841,1.5104,1.4191,0.0,0.0,0.0,0.0,0.0,0.0,0.0,0.0,0.0,0.0,0.0,0.0,0.0,0.0,0.7717,0.8882,0.9472,0.9865,0.9983,0.0,0.0,0.0,0.0,0.0,0.0,0.0,0.0,0.0,0.0,0.0,0.0,0.0,0.0,2.5334,0.0,2.4128,0.0,0.0,0.0,0.0,0.0,0.0,0.0,0.0,2.362,2.2994,2.2375,2.1744,2.1252,0.0,2.0716,2.0797,0.0,0.0,0.0,0.0,0.0,0.0,0.0,0.0,2.1081,1.9815,1.9409,1.8592,1.7379,1.7038,1.6833,1.6712,1.6421,1.5694,1.4495,1.3345,1.1958,0.0,0.0,0.0,0.0,0.0,0.0,0.0,0.0,0.0,0.0,0.0,0.0,0.0,0.0,0.0,0.0,0.0,0.0,0.0,0.0,0.0,0.0,0.0,0.6518,0.0,0.0,0.0,0.0,0.0,0.0,0.0,0.0,0.0,1.3151,1.3877,1.4529,1.4996,1.5245,1.5318,1.5308,0.0,0.0,0.0,0.0,0.0,0.0,0.0,0.59,0.4689,0.4319,0.406,0.3682,0.4013,0.4672,0.562,0.0,0.0,0.8694,0.928,0.967,0.9795,0.9856,0.9977,1.0241,1.0488,1.08,0.0,0.0,0.0,0.0,0.0,0.0,0.0,0.0,2.7497,2.7155,0.0,2.6445,0.0,0.0,0.0,0.0,0.0,2.4643,0.0,0.0,2.277,2.2071,2.1362,2.0798,2.0299,1.9856,1.9767,1.9739,1.9851,2.0704,0.0,0.0,0.0,0.0,0.0,0.0,2.0774,1.9884,1.92,1.85,1.7801,1.7101,1.6683,1.6596,1.5958,1.5315,1.462,1.3643,1.2507,1.1169,0.9548,0.0,0.0,0.0,0.0,0.0,0.0,0.0,0.0,0.0,0.0,0.0,0.0,0.0,0.0,0.0,0.0,0.0,0.0,0.0,0.0,0.6683,0.0,0.0,0.0,0.0,0.0,0.0,0.0,0.0,0.0,0.0,1.274,1.3532,1.4121,1.4474,0.0,0.0,0.0,0.0,1.3134,1.2197,1.1135,0.9945,0.849,0.7617,0.6722,0.5621,0.0,0.0,0.448,0.4459,0.4694,0.551,0.6336,0.7319,0.8509,0.9084,0.9341,0.9478,0.9658,0.991,1.0241,1.0481,1.079,2.4682,0.0,0.0,0.0,0.0,2.6617,2.6851,2.6749,2.685,2.6474,2.5741,2.5691,0.0,0.0,0.0,0.0,0.0,0.0,2.3345,2.2532,2.1829,2.1097,2.0302,1.9793,1.9391,1.9132,1.9125,1.9244,1.9508,1.9972,2.0342,2.0618,0.0,0.0,0.0,0.0,2.047,1.9704,1.9468,1.8806,1.7701,1.7492,1.7062,1.6332,1.5862,1.5344,1.4845,1.3986,1.2976,1.1793,1.0348,0.0,0.0,0.0,0.0,0.0,0.0,0.0,0.0,0.0,0.0,0.0,0.0,0.0,0.0,0.0,0.0,0.0,0.0,0.0,0.7033,0.7517,0.7806,0.0,0.0,0.0,0.0,0.0,0.0,0.0,0.0,0.0,1.2744,1.3407,1.395,0.0,0.0,1.4309,1.4304,1.364,1.2964,1.2451,1.1322,0.0,0.0,0.821,0.74,0.6271,0.5652,0.5198,0.4953,0.5017,0.5272,0.5761,0.6416,0.7199,0.8052,0.8821,0.9341,0.9667,0.9734,0.9986,1.0431,1.0611,1.0856,2.5043,2.4974,2.5371,2.5767,2.6206,2.6851,2.7115,2.7103,2.7144,2.6683,2.5882,2.5748,2.5392,2.4899,2.4638,0.0,0.0,0.0,2.2493,2.1677,2.0917,2.0111,1.9376,1.8848,1.8447,1.8205,1.8362,1.8549,1.8862,1.9244,1.966,1.999,0.0,0.0,2.0551,2.0585,2.034,1.9903,1.9623,1.9147,1.8401,1.7953,1.738,1.6743,1.6099,1.5529,1.5081,1.4385,1.3477,1.2395,1.1042,0.9614,0.0,0.0,0.0,0.0,0.0,0.0,0.0,0.0,0.0,0.0,0.0,0.429,0.505,0.0,0.0,0.0,0.6999,0.7402,0.7836,0.8181,0.0,0.0,0.0,0.0,0.0,0.0,0.0,1.1659,1.2239,1.2679,1.2993,1.3407,1.3765,1.4005,1.407,1.401,1.4074,0.0,1.2854,1.2532,1.1593,1.0588,0.9694,0.8991,0.8223,0.7123,0.6344,0.5888,0.5686,0.5622,0.5692,0.609,0.6616,0.7204,0.7922,0.863,0.9271,0.96,0.9798,1.0056,1.0555,1.0807,1.1118,2.5303,2.5292,2.5186,2.562,2.6351,2.6533,2.7062,2.7799,2.7781,2.7281,2.6457,2.6266,2.5557,2.4488,2.3962,0.0,2.3073,2.2349,2.1645,2.0895,2.0012,1.9229,1.8542,1.798,1.7544,1.7271,1.7496,1.7747,1.7988,1.8549,1.902,1.9369,2.0025,2.0312,2.0304,2.0346,2.0346,2.0304,1.977,1.9568,1.961,1.844,1.7732,1.759,1.6684,1.5932,1.5432,1.4871,1.4073,1.306,1.1816,1.0577,0.9368,0.0,0.0,0.0,0.0,0.0,0.0,0.0,0.0,0.0,0.0,0.0,0.0,0.0,0.0,0.0,0.8077,0.0,0.8456,0.8728,0.0,0.0,0.0,1.0482,1.1017,1.1549,1.1988,1.2305,0.0,0.0,1.331,1.3402,1.3567,1.3726,1.3752,1.3769,1.3774,1.3308,1.2875,1.2545,1.1981,1.122,1.0338,0.9686,0.8904,0.7849,0.7199,0.6677,0.6418,0.6218,0.6154,0.6352,0.6874,0.7398,0.7922,0.8568,0.9081,0.946,0.9786,1.0177,1.0744,1.1115,1.1435,2.5403,2.5454,2.5486,2.5593,2.5801,2.5834,2.5983,2.615,2.6062,2.5778,2.5367,2.5125,2.4524,2.3721,2.3348,2.2851,2.2257,2.1674,2.0958,2.0131,1.9324,1.8566,1.7901,1.7325,1.6951,1.6879,1.6957,1.7214,1.7632,1.818,1.87,1.9183,1.9654,1.9975,2.015,2.0262,2.0339,2.0388,2.0395,2.0232,1.9975,1.9143,1.8617,1.8479,1.792,1.7205,1.6411,1.6137,1.5434,1.4172,1.3388,1.2392,1.1209,0.9773,0.0,0.0,0.0,0.0,0.0,0.0,0.0,0.0,0.0,0.6636,0.7295,0.0,0.8306,0.0,0.8721,0.9025,0.9196,0.9596,0.0,0.0,1.0639,1.1096,1.1545,1.193,1.2301,1.2613,1.2993,1.3245,1.3302,1.3407,1.3408,1.3218,1.3403,1.3571,1.3567,1.3029,1.2562,1.2427,1.176,1.0996,1.0373,0.9458,0.8674,0.8148,0.7526,0.7007,0.6815,0.6611,0.6541,0.6611,0.7066,0.7524,0.7922,0.8439,0.9025,0.9603,0.9986,1.0364,1.0933,1.1306,1.1622,2.5435,2.5509,2.5575,2.5614,2.5632,2.5636,2.5633,2.559,2.5418,2.5207,2.4927,2.4383,2.3835,2.3265,2.2815,2.2288,2.1706,2.1126,2.0416,1.9658,1.8826,1.8073,1.7468,1.6856,1.6472,1.6374,1.6466,1.6716,1.7137,1.7747,1.8344,1.886,1.9339,1.9711,1.9967,2.02,2.0346,2.0423,2.0777,2.0934,2.0793,2.0085,1.9649,1.9474,1.87,1.793,1.7169,1.6785,1.6116,1.5043,1.4307,1.3384,1.2224,1.095,0.9757,0.0,0.0,0.0,0.0,0.0,0.0,0.0,0.0,0.0,0.0,0.0,0.9102,0.9293,0.9532,0.9718,0.9883,1.031,1.0654,1.0957,1.1428,1.1868,1.2182,1.256,1.2862,1.3099,1.335,1.3536,1.3597,1.3502,1.3379,1.3175,1.3167,1.3126,1.2997,1.2653,1.2368,1.2241,1.1687,1.0997,1.0354,0.9559,0.8936,0.8499,0.8037,0.7589,0.74,0.7199,0.7068,0.7134,0.7461,0.7854,0.8182,0.8635,0.9215,0.9731,1.0244,1.0684,1.1122,1.1435,1.1809,2.5445,2.5506,2.5575,2.5631,2.5701,2.5693,2.5662,2.5584,2.5386,2.5116,2.4771,2.3967,2.3368,2.2927,2.2347,2.1799,2.1308,2.0671,2.0015,1.9332,1.8458,1.772,1.715,1.6479,1.6094,1.5951,1.6094,1.6355,1.671,1.7427,1.8035,1.8514,1.9161,1.961,1.9848,2.0208,2.0449,2.0517,2.1055,2.1472,2.1708,2.1123,2.0677,2.0421,1.9384,1.8524,1.787,1.7367,1.6668,1.5821,1.499,1.407,1.2941,1.1812,1.0791,0.0,0.895,0.0,0.0,0.0,0.0,0.0,0.0,0.0,0.0,0.9602,0.9899,1.0256,1.0331,1.0426,1.0538,1.0946,1.126,1.1574,1.2187,1.2687,1.2862,1.3176,1.3415,1.3571,1.3705,1.389,1.3932,1.3614,1.3385,1.327,1.2957,1.2663,1.2366,1.2236,1.2104,1.1933,1.1575,1.0919,1.0212,0.9751,0.9344,0.8942,0.8556,0.8205,0.8177,0.7854,0.7659,0.7794,0.7984,0.8249,0.8576,0.902,0.9533,0.9983,1.0495,1.0989,1.1303,1.1619,1.1992,2.5441,2.5509,2.5571,2.5631,2.5693,2.5693,2.5662,2.5593,2.5398,2.4986,2.4368,2.3785,2.3212,2.2738,2.2248,2.168,2.1071,2.0473,1.9874,1.9131,1.8252,1.7509,1.696,1.6349,1.5969,1.5836,1.5963,1.6262,1.6716,1.7256,1.7915,1.8592,1.9146,1.9596,1.9962,0.0,0.0,0.0,2.1379,2.1656,2.184,2.1728,2.1507,2.1183,2.0695,0.0,1.8821,1.8707,1.808,1.6817,1.6329,0.0,0.0,0.0,0.0,0.0,0.0,0.0,0.0,0.0,0.0,0.0,1.0336,1.0297,1.0047,1.0442,1.0739,1.0732,1.1111,1.1345,1.1403,1.1518,1.1832,1.2342,1.2524,1.2801,1.3273,1.3454,1.3584,1.3885,1.395,1.395,1.3988,1.3623,1.3327,1.3021,1.2564,1.2206,1.1924,1.1895,1.1828,1.1663,1.1039,1.0364,0.9928,0.9484,0.9353,0.9313,0.8921,0.8677,0.8717,0.8503,0.832,0.8382,0.8514,0.8762,0.9081,0.9475,0.9859,1.0371,1.087,1.131,1.1498,1.1868,1.2301,2.5445,0.0,2.5574,2.5628,0.0,2.5701,2.5665,2.5599,2.542,2.4965,2.4318,2.3824,2.3309,2.2772,2.2284,2.1718,2.1119,2.0556,1.9902,1.9191,1.8362,1.7612,1.7038,1.6423,1.6126,1.6088,1.6175,1.6515,1.6928,1.7468,1.8028,1.8592,1.9161,1.9625,2.0005,2.0452,2.0909,2.1285,2.1617,2.1886,2.2126,2.2135,2.1953,2.1609,0.0,0.0,0.0,0.0,0.0,0.0,0.0,0.0,0.0,0.0,0.0,1.2183,1.1538,1.1141,1.0842,1.0787,1.0842,1.1044,1.1213,1.112,1.071,1.1083,1.1339,1.1426,1.176,1.2105,1.2177,1.2261,1.2428,1.2744,1.292,1.322,1.3571,1.3761,1.3937,1.4176,1.43,1.4364,1.4492,1.4153,1.3841,1.3598,1.3241,1.2897,1.2634,1.212,1.1662,1.1455,1.0856,1.0263,1.0015,0.984,0.9683,0.9787,0.9588,0.9496,0.9509,0.9274,0.9142,0.902,0.9142,0.9402,0.9597,0.9986,1.0431,1.087,1.1369,1.1806,1.212,1.2367,1.2613,2.5432,2.5505,2.5573,2.5586,2.5606,2.5668,2.5669,2.557,0.0,0.0,0.0,2.3952,2.3432,2.2909,2.2393,2.1866,2.1309,2.073,2.0077,1.9391,1.8581,1.7881,1.7275,1.671,1.6447,1.6515,1.6607,1.685,1.7323,1.7794,1.8279,1.8738,1.9258,1.9747,2.0158,2.0638,2.1063,2.1425,2.173,2.2003,2.2313,2.2265,2.2077,2.173,2.1214,2.0646,2.0033,1.9332,1.8679,1.8042,1.7214,1.6306,1.5365,1.4514,1.3679,1.2808,1.2353,1.2013,1.1877,1.1773,1.1773,1.1868,1.1828,1.1623,1.1221,1.1572,1.1849,1.1964,1.2343,1.2599,1.2675,1.2671,1.28,1.2968,1.3195,1.3505,1.3826,1.4022,1.4264,1.4579,1.4711,1.4834,1.501,1.4725,1.4477,1.441,1.4057,1.3824,1.3572,1.2736,1.1941,1.1735,1.1333,1.0894,1.0627,1.0548,1.0523,1.0432,1.0404,1.0398,1.0281,1.0101,0.9967,0.9837,0.9901,1.0034,1.0231,1.0614,1.1052,1.1365,1.1864,1.2371,1.2797,1.3046,1.322,2.5387,2.5519,2.5514,2.555,2.5605,2.5666,2.5637,2.5481,2.5245,2.4924,2.455,2.4089,2.3583,2.3054,2.2634,2.2076,2.1462,2.0902,2.0254,0.0,1.8862,1.8219,1.7632,1.7227,1.7018,1.6921,1.706,1.731,1.7713,1.8101,1.8532,1.9095,1.9529,2.0085,2.0654,2.0836,2.1135,2.1534,2.1664,2.1819,2.2056,2.1986,2.1811,2.1479,2.1174,2.0656,2.0033,1.9552,1.895,1.8189,1.7373,1.657,1.5738,1.4897,1.4124,1.351,1.3074,1.2735,1.2583,1.2524,1.2529,1.2529,1.2377,1.2026,1.1687,1.1926,1.2082,1.2046,1.2393,1.2496,1.24,1.243,1.2555,1.2806,1.2892,1.3184,1.3942,1.4112,1.4419,1.4982,1.5088,1.5201,1.5328,1.5011,1.4829,1.4685,1.4576,1.4165,1.4077,1.3455,1.2905,1.2684,1.2521,1.2189,1.1797,1.1619,1.1508,1.1443,1.116,1.1117,1.1135,1.0996,1.0867,1.0793,1.0853,1.0916,1.1111,1.1428,1.174,1.1996,1.249,1.2989,1.3394,1.3868,1.4176,2.536,2.5448,2.5481,2.5543,2.5599,2.5673,2.5644,2.5542,2.535,2.505,2.4702,2.4281,2.3864,2.3346,2.2941,2.2456,2.1849,2.1306,2.0756,2.0101,1.9442,1.8862,1.8355,1.8007,1.7814,1.77,1.7814,1.8101,1.8401,1.8672,1.9058,1.9536,2.0015,2.0478,2.0852,2.1047,2.123,2.1495,2.1656,2.1848,2.2101,2.1957,2.1735,2.1471,2.115,2.0663,2.008,1.9574,1.9004,1.8379,1.755,1.6795,1.6095,1.535,1.468,1.4087,1.3716,1.343,1.319,1.3045,1.2949,1.2866,1.2725,1.2578,1.2377,1.2392,1.2372,1.2324,1.2667,1.2885,1.2789,1.2784,1.2894,1.3104,1.3218,1.3548,1.4171,1.45,1.4848,1.5356,1.5561,1.5619,1.5763,1.5651,1.5525,1.5567,1.5426,1.532,1.5315,1.4977,1.4376,1.3602,1.3168,1.2885,1.2683,1.2629,1.2516,1.2401,1.2325,1.2241,1.2201,1.2042,1.1919,1.1845,1.1903,1.2031,1.2097,1.2409,1.2662,1.285,1.3189,1.3679,1.4125,1.4701,1.5167,2.5322,2.5387,2.5451,2.5525,2.5604,2.5677,2.5657,2.559,2.5476,2.5226,2.4879,2.4532,2.4118,2.3665,2.328,2.2832,2.2313,2.1807,2.1283,2.0732,2.012,1.9571,1.914,1.8803,1.8619,1.8609,1.8686,1.8862,1.911,1.931,1.9652,2.007,2.0553,2.0868,2.1039,2.123,2.1379,2.1479,2.1661,2.1886,2.2098,2.1928,2.1721,2.1462,2.1111,2.0671,2.0127,1.9624,1.9065,1.8546,1.7754,1.7047,1.6441,1.5782,1.513,1.4605,1.4285,1.4057,1.3758,1.352,1.3329,1.3195,1.3109,1.307,1.3036,1.291,1.2749,1.274,1.2953,1.3139,1.3072,1.309,1.3162,1.3326,1.3517,1.3931,1.4481,1.4934,1.5345,1.5803,1.6024,1.6124,1.6233,1.628,1.6317,1.6425,1.6519,1.6519,1.6519,1.64,1.5721,1.4894,1.415,1.3862,1.3723,1.373,1.3633,1.3415,1.3466,1.3442,1.3252,1.3183,1.3118,1.3053,1.3065,1.3191,1.3191,1.3442,1.3627,1.3756,1.4105,1.4497,1.5088,1.57,1.6098,2.525,2.5313,2.5378,2.5485,2.5618,2.566,2.5663,2.5593,2.5527,2.5394,2.5206,2.4775,2.436,2.3963,2.3601,2.3189,2.2721,2.2275,2.1774,2.125,2.0724,2.0265,1.9821,1.9607,1.9449,1.9398,1.9413,1.9565,1.9793,1.9945,2.0292,2.0763,2.099,2.1183,2.1324,2.1386,2.1487,2.1656,2.1686,2.1738,2.1819,2.1686,2.1573,2.1409,2.1095,2.0697,2.0224,1.9846,1.931,1.8623,1.7988,1.7386,1.6782,1.6101,1.5534,1.5062,1.4794,1.4512,1.4176,1.401,1.3873,1.3721,1.3615,1.352,1.3578,1.3519,1.3298,1.3018,1.2949,1.2958,1.2959,1.2934,1.3046,1.3228,1.3661,1.4195,1.4785,1.5298,1.588,1.6466,1.6524,1.6581,1.6694,1.6848,1.696,1.7078,1.7139,1.7134,1.7134,1.7016,1.6882,1.6576,1.6059,1.5516,1.5277,1.5182,1.4998,1.4676,1.4542,1.4519,1.4382,1.4346,1.4314,1.4309,1.4332,1.4337,1.4401,1.4474,1.4588,1.4706,1.5058,1.5537,1.6233,1.6751,1.6893,2.5143,2.5242,2.5322,2.5443,2.5586,2.5623,2.5629,2.5603,2.5573,2.5517,2.5393,2.5117,2.4775,2.4327,2.3973,2.3613,2.3236,2.2797,2.2342,2.1943,2.1579,2.1197,2.0797,2.061,2.0475,2.0345,2.0311,2.0364,2.0506,2.0679,2.0917,2.1175,2.1309,2.1481,2.1639,2.1691,2.1721,2.1768,2.1789,2.1811,2.1797,2.1672,2.1542,2.1378,2.1095,2.0738,2.0376,1.9967,1.9464,1.8905,1.8219,1.7666,1.7179,1.6546,1.602,1.5534,1.5091,1.4737,1.4507,1.4389,1.4296,1.4145,1.4087,1.4093,1.4087,1.4093,1.3999,1.3815,1.3541,1.3291,1.3301,1.3339,1.3446,1.3733,1.4106,1.465,1.5542,1.5865,1.6265,1.688,1.6965,1.7022,1.719,1.7407,1.7512,1.7628,1.7683,1.7744,1.7744,1.7695,1.7689,1.7628,1.7451,1.7,1.6451,1.6233,1.6114,1.5931,1.5816,1.5753,1.5613,1.554,1.5583,1.555,1.5555,1.556,1.5555,1.5623,1.568,1.5811,1.6161,1.6648,1.723,1.7544,1.7705,2.5041,2.5155,2.5253,2.5394,2.5538,2.5591,2.5609,2.5602,2.5612,2.5584,2.5511,2.5408,2.5138,2.4771,2.4342,2.4014,2.3732,2.331,2.2954,2.2635,2.2341,2.1997,2.1677,2.1557,2.1383,2.1197,2.1174,2.1174,2.1214,2.1324,2.1487,2.1593,2.1678,2.1776,2.1886,2.1928,2.1911,2.1869,2.189,2.1869,2.1819,2.1694,2.155,2.1425,2.1143,2.0827,2.0561,2.008,1.9603,1.9191,1.8553,1.7995,1.7605,1.7018,1.6466,1.5938,1.5406,1.5057,1.492,1.4846,1.4765,1.4616,1.4605,1.4605,1.4599,1.4605,1.4677,1.4774,1.447,1.4238,1.4047,1.3999,1.4199,1.4674,1.4943,1.5512,1.6283,1.6558,1.6967,1.7352,1.7468,1.7518,1.7744,1.7963,1.811,1.8133,1.8236,1.835,1.8344,1.8344,1.8398,1.8392,1.8506,1.817,1.7351,1.719,1.7134,1.7072,1.7011,1.6939,1.6816,1.681,1.681,1.68,1.6754,1.6703,1.6703,1.6759,1.6821,1.7067,1.734,1.7731,1.8087,1.8377,1.8715,2.4947,2.5041,2.5213,2.533,2.5403,2.5531,2.5604,2.5608,2.5662,2.5648,2.5584,2.5508,2.5403,2.5226,2.4774,2.4435,2.4146,2.3819,2.3512,2.3236,2.2914,2.2626,2.2351,2.2211,2.2059,2.1874,2.1836,2.1853,2.1853,2.1911,2.1982,2.2059,2.2019,2.2036,2.2155,2.2073,2.199,2.1998,2.1949,2.1899,2.1861,2.1694,2.1597,2.1542,2.1263,2.0973,2.0685,2.0281,1.9869,1.9406,1.886,1.839,1.7995,1.7441,1.682,1.6237,1.5848,1.5614,1.5474,1.5345,1.521,1.5114,1.5074,1.5062,1.5062,1.5108,1.5349,1.5762,1.5749,1.5539,1.5213,1.5094,1.5274,1.5784,1.6326,1.668,1.6966,1.7478,1.7835,1.8024,1.803,1.8133,1.8302,1.8458,1.8619,1.8738,1.8893,1.8981,1.8981,1.9087,1.9133,1.9186,1.9192,1.9034,1.8255,1.8159,1.8164,1.8104,1.8044,1.8038,1.8033,1.8033,1.8033,1.799,1.7935,1.7886,1.7843,1.7897,1.7958,1.817,1.8405,1.8708,1.901,1.9407,1.9728,2.4851,2.5,2.5124,2.5234,2.535,2.542,2.5521,2.5604,2.5639,2.562,2.5602,2.5573,2.5517,2.5415,2.5206,2.4924,2.4567,2.429,2.4005,2.3741,2.3526,2.3277,2.3005,2.2933,2.2755,2.2572,2.2545,2.2473,2.2373,2.239,2.2371,2.2362,2.2315,2.2352,2.2352,2.2304,2.2248,2.22,2.2052,2.1949,2.1899,2.1686,2.155,2.1464,2.1223,2.1006,2.0761,2.0342,1.9897,1.9457,1.9011,1.8553,1.8135,1.7454,1.6954,1.6669,1.6231,1.5975,1.5925,1.5742,1.562,1.557,1.557,1.557,1.5617,1.5899,1.6236,1.6438,1.6759,1.6881,1.6942,1.6549,1.6361,1.6763,1.7058,1.7408,1.78,1.8192,1.8404,1.8524,1.8619,1.8673,1.878,1.8993,1.9105,1.921,1.9356,1.9546,1.9637,1.9695,1.9741,1.9856,2.001,2.0055,1.9843,1.9331,1.9133,1.9127,1.9121,1.9162,1.915,1.9143,1.9143,1.9044,1.8963,1.891,1.8851,1.8904,1.9028,1.922,1.9457,1.969,1.9978,2.032,2.0597,2.4778,2.4926,2.5016,2.5115,2.5234,2.5321,2.5414,2.5534,2.5552,2.5571,2.5606,2.5605,2.5588,2.5524,2.549,2.5307,2.4991,2.471,2.448,2.4201,2.407,2.3833,2.3592,2.3526,2.3408,2.3155,2.3091,2.2968,2.2816,2.2799,2.2747,2.2659,2.2632,2.2596,2.256,2.2451,2.2394,2.2293,2.211,2.1969,2.1928,2.1724,2.1534,2.1394,2.1151,2.0949,2.0777,2.0384,1.9967,1.9566,1.9124,1.8683,1.8149,1.757,1.7164,1.6954,1.662,1.6405,1.6331,1.6132,1.6007,1.605,1.6007,1.6013,1.6093,1.6577,1.6972,1.7241,1.7683,1.8173,1.8483,1.8109,1.7751,1.792,1.7932,1.8119,1.8555,1.8768,1.894,1.9093,1.9198,1.9251,1.9303,1.9519,1.9623,1.9675,1.9914,2.0099,2.0245,2.0302,2.0409,2.0573,2.0766,2.0908,2.0845,2.059,2.0238,2.0188,2.0093,2.0144,2.0194,2.0188,2.0144,2.0099,2.0003,1.9959,1.9907,1.9959,2.0055,2.0201,2.039,2.0577,2.0881,2.114,2.1389,2.4679,2.4811,2.4865,2.4984,2.5105,2.5222,2.5341,2.54,2.5463,2.5536,2.5576,2.5605,2.5605,2.5597,2.5571,2.5517,2.5352,2.5105,2.4883,2.4664,2.4465,2.4284,2.4079,2.3999,2.3837,2.3584,2.3477,2.3333,2.3199,2.3184,2.3111,2.2986,2.2859,2.2764,2.272,2.2523,2.2405,2.2349,2.2121,2.1998,2.1969,2.1738,2.1511,2.1394,2.1063,2.0852,2.0677,2.0449,2.0073,1.9675,1.931,1.8753,1.8161,1.7808,1.7523,1.7247,1.7038,1.684,1.6712,1.6571,1.6522,1.6515,1.6479,1.6553,1.6691,1.715,1.7672,1.8195,1.8717,1.9246,1.9623,1.9615,1.9397,1.9121,1.8891,1.9026,1.9174,1.9303,1.9519,1.9714,1.9811,1.9798,1.9856,2.0022,2.0175,2.0226,2.0422,2.066,2.0809,2.0914,2.1124,2.1313,2.1506,2.165,2.1793,2.1834,2.1486,2.1237,2.1091,2.1048,2.1084,2.1077,2.1035,2.0944,2.0802,2.0752,2.0759,2.0759,2.0934,2.1082,2.1271,2.1451,2.1677,2.1969,2.2163,2.4582,2.4663,2.4778,2.4889,2.4962,2.5113,2.5222,2.5341,2.5401,2.5478,2.5519,2.5578,2.5603,2.5613,2.565,2.5629,2.5537,2.5384,2.5197,2.492,2.4742,2.4576,2.4397,2.4311,2.4154,2.3967,2.3813,2.3673,2.3549,2.349,2.3407,2.3217,2.307,2.2961,2.2825,2.2641,2.2506,2.2424,2.2158,2.1961,2.192,2.1708,2.1489,2.1262,2.1047,2.0803,2.0561,2.0323,2.001,1.9718,1.9398,1.895,1.8418,1.8022,1.7794,1.7672,1.7391,1.7231,1.719,1.7031,1.6989,1.6983,1.6996,1.7202,1.7601,1.8112,1.8669,1.9251,1.9765,2.021,2.0314,2.0359,2.0105,1.9598,1.9546,1.9604,1.9656,1.9817,2.0074,2.0315,2.0365,2.0365,2.0422,2.0579,2.0736,2.0785,2.0977,2.1209,2.1451,2.1506,2.1712,2.199,2.2184,2.2317,2.2388,2.2565,2.2466,2.2175,2.2042,2.1867,2.1908,2.1901,2.1867,2.1772,2.163,2.1541,2.1547,2.1602,2.1766,2.193,2.2065,2.2285,2.2495,2.2678,2.2911,2.5374,2.5453,2.5597,2.5681,2.5783,2.5889,2.6024,2.61,2.588,2.5821,2.5863,2.5655,2.5574,2.5605,2.5671,2.5689,2.5641,2.556,2.5405,2.5187,2.5015,2.485,2.4682,2.4517,2.4392,2.422,2.4077,2.3946,2.3768,2.3703,2.358,2.3374,2.3241,2.3095,2.2936,2.2712,2.256,2.2451,2.2186,2.1961,2.1853,2.1639,2.1427,2.1199,2.0958,2.072,2.0494,2.0212,1.9975,1.9726,1.9435,1.8995,1.851,1.8242,1.8083,1.7909,1.774,1.7638,1.7569,1.7508,1.7461,1.7454,1.7461,1.7754,1.8306,1.8839,1.9416,2.0047,2.0556,2.0908,2.0914,2.0914,2.0716,2.0446,2.0207,2.0163,2.0213,2.0378,2.0629,2.0815,2.0914,2.0908,2.097,2.1118,2.1277,2.1326,2.1513,2.1793,2.199,2.2077,2.2317,2.2601,2.2783,2.2904,2.3024,2.3201,2.3348,2.3165,2.2934,2.2754,2.2663,2.2663,2.2618,2.248,2.2335,2.2235,2.2242,2.2381,2.2495,2.2668,2.2781,2.2971,2.3113,2.3348,2.353,2.6743,2.6887,2.7009,2.6993,2.7083,2.7185,2.7291,2.7378,2.6797,2.6549,2.6496,2.6124,2.5838,2.5833,2.6098,2.6101,2.5876,2.5986,2.5975,2.5827,2.563,2.5409,2.4968,2.4713,2.4547,2.4391,2.4257,2.4096,2.3905,2.3834,2.3707,2.3522,2.336,2.3184,2.2995,2.2747,2.2569,2.246,2.2158,2.1953,2.1853,2.1562,2.134,2.1191,2.0884,2.0636,2.046,2.0193,1.9919,1.9726,1.9325,1.8957,1.8634,1.8517,1.8354,1.8114,1.8042,1.8022,1.7963,1.7922,1.7929,1.7922,1.8018,1.8221,1.8917,1.9486,2.0084,2.0716,2.1172,2.1471,2.1458,2.1465,2.1416,2.1361,2.0963,2.0815,2.099,2.1039,2.1173,2.1368,2.1465,2.1458,2.1471,2.1698,2.1793,2.1902,2.2084,2.231,2.254,2.2685,2.2866,2.3053,2.3275,2.3392,2.3501,2.3696,2.3839,2.3797,2.3653,2.3559,2.3348,2.3312,2.3268,2.3127,2.2986,2.2927,2.2927,2.3024,2.3113,2.326,2.3392,2.3559,2.3724,2.3902,2.4051,2.672,2.6753,2.6897,2.7009,2.7142,2.726,2.739,2.7457,2.7424,2.7362,2.7348,2.7315,2.7234,2.7427,2.7462,2.7537,2.7431,2.7443,2.7527,2.7483,2.7338,2.6331,2.5231,2.4841,2.4735,2.4622,2.4559,2.4256,2.4045,2.4053,2.3852,2.3647,2.3515,2.3274,2.3061,2.2816,2.2596,2.2405,2.215,2.1911,2.173,2.154,2.1309,2.1135,2.0834,2.0644,2.0494,2.0166,1.9848,1.9523,1.925,1.904,1.8872,1.875,1.8627,1.8542,1.8418,1.8393,1.8354,1.8354,1.8361,1.8402,1.873,1.9259,1.9851,2.0515,2.1136,2.1674,2.1934,2.199,2.199,2.199,2.199,2.1949,2.1595,2.1458,2.1554,2.165,2.18,2.1935,2.199,2.1983,2.2037,2.2184,2.2363,2.2417,2.2586,2.2799,2.2994,2.3135,2.3275,2.353,2.3754,2.3824,2.3952,2.4185,2.4325,2.4325,2.4268,2.4204,2.4036,2.3875,2.3754,2.3625,2.3472,2.3421,2.3465,2.3516,2.3645,2.3782,2.3859,2.3979,2.4199,2.4397,2.4459,2.7754,2.7758,2.7919,2.8035,2.8128,2.828,2.8407,2.8402,2.8232,2.8189,2.8183,2.7979,2.796,2.8058,2.8139,2.8187,2.8203,2.8222,2.8203,2.815,2.7961,2.7237,2.6324,2.5982,2.5816,2.5686,2.5512,2.5365,2.5186,2.4987,2.4664,2.4231,2.3952,2.3601,2.3036,2.2782,2.2596,2.2377,2.2093,2.1861,2.1724,2.1442,2.1262,2.107,2.0801,2.0551,2.0289,2.0096,1.982,1.9531,1.9376,1.9272,1.9137,1.9003,1.8927,1.8889,1.8767,1.8774,1.8743,1.8736,1.8902,1.9138,1.9537,2.0107,2.0812,2.1426,2.1869,2.2366,2.2473,2.2487,2.2487,2.2495,2.2487,2.2487,2.2395,2.2263,2.2184,2.2203,2.2349,2.2441,2.2487,2.2495,2.2502,2.2685,2.2835,2.2926,2.3038,2.326,2.3443,2.3538,2.3668,2.3925,2.4135,2.4211,2.4377,2.4564,2.4686,2.4686,2.4734,2.471,2.4508,2.4351,2.4227,2.4101,2.3959,2.3867,2.3909,2.3952,2.4094,2.4177,2.4253,2.441,2.4591,2.4728,2.4823,2.9209,2.924,2.9383,2.9492,2.9456,2.9691,2.9627,2.9713,2.9205,2.8993,2.8989,2.8454,2.8454,2.8272,2.8728,2.8544,2.8576,2.8798,2.8676,2.8647,2.8491,2.818,2.7975,2.7295,2.7063,2.6925,2.6944,2.6642,2.63,2.6217,2.5773,2.5078,2.4728,2.416,2.3615,2.31,2.2771,2.2719,2.2538,2.2209,2.1952,2.1631,2.1368,2.107,2.0711,2.0373,2.0131,1.9998,1.9848,1.9611,1.9611,1.9465,1.9347,1.9302,1.9228,1.9153,1.9108,1.9101,1.9182,1.9248,1.9526,2.0016,2.0279,2.0805,2.1776,2.2162,2.2455,2.2935,2.2979,2.2979,2.2986,2.2986,2.2979,2.2979,2.3172,2.309,2.2866,2.2768,2.2844,2.2934,2.2986,2.2986,2.3031,2.3076,2.3216,2.3319,2.3436,2.3653,2.3832,2.3932,2.4051,2.4253,2.4426,2.4605,2.4766,2.4894,2.4997,2.5037,2.5092,2.5045,2.4839,2.4678,2.4605,2.4482,2.4385,2.4294,2.4253,2.4343,2.4441,2.4572,2.4597,2.4759,2.4966,2.5021,2.5084,2.9187,2.9292,2.9321,2.9414,2.9502,2.9654,2.9798,2.9893,2.9832,2.9799,2.9886,2.9855,2.9842,2.9919,2.9949,3.019,3.0098,3.0107,3.0223,3.0146,3.0024,2.9877,2.9385,2.8308,2.7484,2.7289,2.7046,2.6837,2.6658,2.6572,2.6112,2.573,2.5443,2.5139,2.4677,2.4216,2.416,2.3944,2.3646,2.3091,2.2514,2.22,2.1777,2.1237,2.0774,2.0423,2.0166,2.0025,1.9927,1.9784,1.9691,1.9567,1.9406,1.9376,1.9376,1.9376,1.9339,1.9376,1.9553,1.9945,2.0391,2.0705,2.1486,2.2278,2.246,2.2981,2.3256,2.3465,2.3472,2.3421,2.3421,2.3428,2.3465,2.3472,2.361,2.3703,2.3675,2.3516,2.3428,2.3428,2.3472,2.3421,2.3465,2.3566,2.366,2.3711,2.3832,2.4002,2.4177,2.4276,2.4434,2.4549,2.467,2.4846,2.4974,2.5131,2.5209,2.5278,2.5325,2.5333,2.5131,2.5005,2.4926,2.4854,2.4782,2.4686,2.4581,2.4589,2.4638,2.4766,2.4894,2.5013,2.5131,2.5209,2.5286,2.92,2.9298,2.9353,2.9482,2.9608,2.9745,2.9833,2.9917,3.0078,3.0195,3.0257,3.0388,3.049,3.0557,3.0646,3.0716,3.0796,3.079,3.0745,3.0633,3.0519,3.0407,3.0203,2.9308,2.8559,2.8331,2.8137,2.792,2.7714,2.7414,2.7094,2.644,2.618,2.5664,2.5175,2.4867,2.4533,2.4295,2.409,2.3638,2.3161,2.2854,2.2466,2.1808,2.1318,2.088,2.0597,2.019,2.0028,1.9935,1.9835,1.972,1.9589,1.9589,1.9589,1.9589,1.9669,1.9899,2.0257,2.0587,2.1084,2.1741,2.247,2.29,2.3232,2.3638,2.3744,2.3789,2.3789,2.3789,2.3809,2.3902,2.3909,2.3959,2.4044,2.4135,2.4151,2.4002,2.3859,2.3902,2.3952,2.3909,2.3952,2.4002,2.4101,2.4143,2.4185,2.431,2.4377,2.4515,2.4645,2.4799,2.4918,2.5084,2.5209,2.5333,2.5418,2.5448,2.5448,2.5502,2.5426,2.5333,2.5286,2.517,2.5013,2.5005,2.491,2.4871,2.4831,2.491,2.5037,2.5162,2.5248,2.5286,2.541,2.9267,2.9344,2.9482,2.9589,2.9719,2.9861,2.9917,2.9972,3.0118,3.023,3.0321,3.0437,3.053,3.0636,3.0694,3.0745,3.0782,3.0793,3.0765,3.0685,3.0567,3.0417,3.0203,2.9927,2.9647,2.9664,2.9257,2.904,2.881,2.8658,2.7875,2.7228,2.6857,2.6382,2.5564,2.5103,2.5017,2.4869,2.4564,2.4121,2.3752,2.3452,2.3096,2.2439,2.2038,2.1613,2.1288,2.0864,2.0485,2.0322,2.021,2.0139,2.0053,1.9843,1.9841,1.9812,2.0005,2.0409,2.09,2.1295,2.1965,2.3016,2.3254,2.3514,2.3941,2.4063,2.4094,2.4101,2.4094,2.4128,2.4162,2.4253,2.4343,2.4392,2.4482,2.4531,2.4564,2.4385,2.4328,2.4351,2.4385,2.4418,2.4426,2.4426,2.4523,2.4531,2.458,2.4613,2.4678,2.4759,2.4886,2.5005,2.5123,2.5248,2.5371,2.5418,2.554,2.5532,2.557,2.554,2.5548,2.5448,2.5355,2.5325,2.524,2.5193,2.5076,2.4997,2.4989,2.506,2.5107,2.5162,2.5248,2.5371,2.5456,2.9344,2.9463,2.9617,2.971,2.979,2.9874,2.9972,3.006,3.0161,3.0267,3.0396,3.0462,3.0575,3.0681,3.0754,3.0796,3.0791,3.0788,3.075,3.0681,3.0559,3.0406,3.0224,3.0074,2.9884,2.9692,2.9423,2.9163,2.8919,2.8617,2.8254,2.7821,2.7444,2.7,2.6653,2.6426,2.5967,2.5731,2.5471,2.5026,2.4454,2.4108,2.3631,2.2903,2.2547,2.2319,2.2139,2.1949,2.1827,2.1789,2.1203,2.1174,2.1175,2.0576,2.0175,2.022,2.0634,2.1072,2.1473,2.2317,2.2948,2.3545,2.3925,2.4227,2.4428,2.4467,2.4426,2.4475,2.4467,2.45,2.4508,2.4549,2.4605,2.4694,2.4726,2.4806,2.4918,2.495,2.4831,2.4799,2.4839,2.4846,2.4839,2.4839,2.4839,2.4886,2.4886,2.4926,2.4958,2.5037,2.517,2.5248,2.5317,2.544,2.5532,2.554,2.5578,2.557,2.5562,2.5532,2.5532,2.547,2.5386,2.5363,2.5286,2.524,2.5162,2.5076,2.5068,2.5099,2.5107,2.5123,2.5248,2.5341,2.5333,2.9462,2.9608,2.971,2.9808,2.99,2.9978,3.007,3.0184,3.0257,3.0344,3.0452,3.0547,3.0647,3.0738,3.0782,3.0795,3.079,3.0761,3.0709,3.0634,3.0511,3.0364,3.0192,3.003,2.9841,2.9617,2.9373,2.9132,2.8896,2.8578,2.83,2.7988,2.7668,2.7364,2.7103,2.6733,2.6521,2.6268,2.6002,2.5623,2.4991,2.4726,2.4191,2.3748,2.3273,2.301,2.2779,2.2371,2.2225,2.2141,2.1858,2.1873,2.185,2.1652,2.1178,2.1217,2.1528,2.1993,2.2376,2.315,2.3576,2.4091,2.4474,2.4558,2.4581,2.4581,2.4622,2.463,2.4766,2.4799,2.4799,2.4878,2.5013,2.5053,2.5053,2.5115,2.5216,2.5301,2.5262,2.5232,2.5193,2.5162,2.5201,2.5154,2.5154,2.5193,2.524,2.5232,2.5232,2.527,2.5355,2.5363,2.544,2.5486,2.5578,2.557,2.557,2.5562,2.5524,2.5524,2.5448,2.5386,2.5355,2.5333,2.5294,2.5162,2.5154,2.5068,2.5099,2.506,2.5092,2.5108,2.5225,2.5302,2.5217,2.956,2.9738,2.9808,2.9917,3.0044,3.0109,3.0217,3.0311,3.0386,3.0452,3.0547,3.0666,3.0748,3.0792,3.0794,3.0791,3.0798,3.0726,3.0669,3.0602,3.0471,3.0338,3.0165,2.9984,2.9781,2.9551,2.93,2.9075,2.8825,2.8536,2.8237,2.7902,2.7608,2.7301,2.7014,2.6742,2.6486,2.6233,2.6026,2.5733,2.5394,2.5123,2.4871,2.4614,2.4092,2.3685,2.348,2.3125,2.2894,2.2794,2.2648,2.2578,2.2648,2.2571,2.2578,2.264,2.2724,2.3033,2.3359,2.3772,2.4155,2.457,2.4639,2.467,2.4703,2.4743,2.4735,2.4743,2.4918,2.5053,2.5084,2.517,2.5256,2.5333,2.5325,2.5363,2.5462,2.5567,2.565,2.5575,2.5508,2.5508,2.5508,2.55,2.55,2.5508,2.5554,2.5508,2.55,2.5408,2.5462,2.5478,2.5524,2.5578,2.557,2.5516,2.5516,2.5508,2.5432,2.5402,2.5325,2.5278,2.5248,2.5178,2.5084,2.4958,2.5021,2.5021,2.4942,2.4878,2.4997,2.5005,2.4982,2.4982,2.4934,2.9746,2.9878,2.9943,3.0053,3.0171,3.023,3.0321,3.0396,3.0462,3.0575,3.0673,3.0748,3.0792,3.0792,3.0791,3.0794,3.0777,3.073,3.0651,3.0586,3.0458,3.0296,3.0109,2.9907,2.9728,2.9502,2.9243,2.8966,2.8728,2.8449,2.8119,2.7769,2.7439,2.7143,2.695,2.6691,2.6372,2.6107,2.5962,2.5704,2.5363,2.5131,2.4863,2.4639,2.4472,2.429,2.4097,2.3871,2.3871,2.3863,2.3432,2.3502,2.3833,2.3463,2.365,2.3838,2.3785,2.3468,2.3842,2.4249,2.4587,2.4863,2.4918,2.4918,2.4958,2.4989,2.5029,2.5201,2.5248,2.5248,2.5248,2.5294,2.5317,2.5432,2.5516,2.5575,2.5672,2.577,2.5881,2.5954,2.5881,2.5844,2.5881,2.5844,2.5844,2.5852,2.5824,2.5815,2.5725,2.5642,2.5559,2.5575,2.5524,2.5578,2.5532,2.5516,2.547,2.5424,2.5309,2.524,2.5162,2.5084,2.4974,2.4894,2.4799,2.4751,2.4751,2.4751,2.4678,2.4686,2.4694,2.4694,2.4638,2.4645,2.4605,2.9919,2.9959,3.006,3.018,3.0273,3.0376,3.0458,3.0521,3.0574,3.0664,3.0753,3.0773,3.0794,3.0791,3.0796,3.0765,3.074,3.0682,3.061,3.053,3.0412,3.0244,3.0089,2.9884,2.9691,2.9442,2.92,2.8938,2.8662,2.8371,2.8054,2.7701,2.7369,2.7111,2.6893,2.6623,2.6329,2.6026,2.5762,2.55,2.5317,2.5107,2.4902,2.4638,2.4581,2.4459,2.4343,2.431,2.431,2.4271,2.3956,2.3994,2.4187,2.4048,2.4081,2.4351,2.4259,2.4216,2.4398,2.4721,2.4895,2.5005,2.5037,2.5068,2.5154,2.5193,2.5232,2.5286,2.5317,2.5355,2.5394,2.5454,2.553,2.5605,2.5667,2.577,2.5873,2.5998,2.6079,2.6187,2.6214,2.6214,2.617,2.6126,2.6063,2.6043,2.6007,2.5917,2.5836,2.5709,2.5663,2.5626,2.5621,2.5578,2.5524,2.5432,2.5394,2.5309,2.5154,2.5084,2.5005,2.4934,2.4734,2.4564,2.4467,2.4426,2.4475,2.4475,2.4475,2.4467,2.4418,2.4377,2.4287,2.4294,2.4261,3.004,3.0085,3.0211,3.0289,3.0362,3.049,3.0569,3.0629,3.0681,3.0753,3.0796,3.0794,3.0791,3.0788,3.0772,3.0731,3.0678,3.0616,3.054,3.0458,3.0343,3.0208,3.0038,2.985,2.9626,2.9372,2.9178,2.8914,2.8612,2.8335,2.8017,2.7701,2.7369,2.707,2.6834,2.6615,2.6329,2.5962,2.5605,2.5394,2.5294,2.5146,2.491,2.4703,2.4581,2.4515,2.431,2.431,2.431,2.4261,2.4271,2.4256,2.4253,2.4214,2.4274,2.4482,2.4455,2.4552,2.468,2.4878,2.5013,2.5045,2.5123,2.5193,2.527,2.5317,2.5363,2.541,2.5462,2.55,2.5538,2.5626,2.5709,2.5762,2.5844,2.5962,2.6043,2.6151,2.6258,2.6364,2.6425,2.6468,2.6425,2.6374,2.6312,2.6266,2.6151,2.6018,2.5937,2.582,2.5746,2.5709,2.5621,2.557,2.5478,2.5386,2.5317,2.5201,2.5005,2.4839,2.4759,2.4564,2.44,2.4227,2.4128,2.4002,2.3959,2.4135,2.4268,2.4128,2.3986,2.3986,2.3944,2.3902,2.3774,3.023,3.0282,3.0357,3.0414,3.0489,3.0568,3.0636,3.0707,3.0773,3.0786,3.0794,3.0791,3.0798,3.0781,3.073,3.0678,3.062,3.0537,3.0462,3.0385,3.0251,3.0128,2.9975,2.9781,2.9551,2.9312,2.9102,2.8858,2.8587,2.8291,2.7989,2.7692,2.7369,2.7053,2.6742,2.6495,2.6258,2.5917,2.5575,2.5386,2.5286,2.5154,2.4942,2.4662,2.4589,2.4508,2.431,2.431,2.4276,2.425,2.4276,2.4284,2.4242,2.4268,2.4359,2.4449,2.4556,2.4645,2.4774,2.4894,2.5045,2.5115,2.5193,2.5325,2.5386,2.5386,2.5478,2.5554,2.5613,2.568,2.5725,2.5799,2.5836,2.5909,2.5954,2.6071,2.6178,2.6277,2.639,2.6537,2.6606,2.6598,2.6623,2.6547,2.6486,2.6399,2.6277,2.6154,2.6018,2.5946,2.5828,2.5754,2.5629,2.5562,2.5424,2.5301,2.5154,2.4958,2.4766,2.4556,2.4385,2.4227,2.4024,2.3882,2.3739,2.3574,2.3443,2.3574,2.3653,2.3645,2.3551,2.3501,2.337,2.3238,2.3061,3.0326,3.0429,3.0501,3.054,3.0549,3.0634,3.0691,3.0769,3.0786,3.0796,3.0791,3.079,3.0775,3.074,3.0724,3.0658,3.0602,3.053,3.0439,3.0323,3.0199,3.0047,2.9886,2.9673,2.9453,2.9215,2.8989,2.8737,2.8458,2.8219,2.7931,2.763,2.7347,2.7012,2.6733,2.6374,2.6071,2.5926,2.5675,2.5448,2.5325,2.5248,2.5037,2.4622,2.4581,2.4508,2.4343,2.431,2.4276,2.4242,2.4268,2.4242,2.4216,2.4276,2.4317,2.44,2.4508,2.4645,2.4726,2.4894,2.5084,2.5193,2.5309,2.5394,2.55,2.5538,2.5605,2.568,2.577,2.5807,2.5844,2.5909,2.5937,2.5982,2.6063,2.6214,2.6285,2.6382,2.6452,2.6598,2.6657,2.6683,2.6674,2.6666,2.6623,2.6537,2.6408,2.6252,2.6126,2.599,2.5873,2.5717,2.5621,2.5486,2.5317,2.5154,2.4958,2.4759,2.4523,2.431,2.4094,2.3839,2.3675,2.3494,2.3304,2.3127,2.2994,2.3008,2.3046,2.3061,2.3016,2.2934,2.2799,2.2572,2.2381,3.0418,3.054,3.062,3.0626,3.0636,3.0698,3.0769,3.0796,3.0789,3.079,3.0796,3.0788,3.0759,3.0714,3.0675,3.0636,3.0559,3.0479,3.0369,3.0266,3.0128,2.9984,2.979,2.9598,2.9422,2.9178,2.8919,2.8662,2.8415,2.8154,2.7882,2.7608,2.7315,2.6989,2.6657,2.6233,2.5926,2.586,2.5741,2.5532,2.5325,2.5294,2.5084,2.4662,2.4581,2.4508,2.4343,2.431,2.4276,2.4234,2.4234,2.4276,2.4234,2.4234,2.431,2.4392,2.4508,2.4597,2.4718,2.4918,2.5131,2.5286,2.5394,2.5508,2.5621,2.568,2.5709,2.5791,2.5881,2.597,2.5962,2.6063,2.6126,2.6206,2.6258,2.6372,2.6434,2.6503,2.6555,2.6623,2.6683,2.6708,2.6674,2.6674,2.6589,2.6546,2.6468,2.6312,2.6178,2.6035,2.5873,2.5717,2.5567,2.5394,2.5217,2.5005,2.4759,2.4508,2.4268,2.4017,2.3804,2.3538,2.3275,2.309,2.2859,2.2632,2.2495,2.2449,2.2441,2.2473,2.2381,2.2289,2.207,2.1881,2.1772,3.054,3.0604,3.0673,3.0691,3.0714,3.0779,3.0798,3.0792,3.0797,3.0789,3.0791,3.0792,3.0759,3.0691,3.0651,3.0577,3.048,3.0383,3.0273,3.0185,3.0068,2.9926,2.9763,2.9579,2.9351,2.9178,2.8896,2.8603,2.8389,2.8081,2.7824,2.7548,2.7207,2.694,2.6649,2.6225,2.5998,2.5889,2.5754,2.5538,2.5363,2.5294,2.5045,2.4759,2.4622,2.4508,2.44,2.4302,2.4268,2.4208,2.4276,2.4276,2.4208,2.4276,2.4351,2.4482,2.4556,2.4638,2.4814,2.5092,2.5248,2.5333,2.544,2.5592,2.5672,2.5729,2.5775,2.5864,2.5982,2.6071,2.6143,2.625,2.632,2.639,2.645,2.6485,2.6554,2.6606,2.6657,2.6649,2.6674,2.67,2.6674,2.6615,2.6572,2.6511,2.6485,2.6372,2.6231,2.6043,2.5881,2.5659,2.55,2.5262,2.5045,2.4759,2.4508,2.4261,2.4009,2.3754,2.3443,2.3127,2.2911,2.2692,2.241,2.2217,2.1983,2.1786,2.1725,2.1616,2.1636,2.1547,2.1326,2.1173,2.1055,3.0613,3.0673,3.0742,3.077,3.0782,3.0788,3.0789,3.0797,3.0788,3.0796,3.0782,3.0769,3.0701,3.0644,3.0614,3.054,3.0435,3.0364,3.0263,3.0123,3.0,2.9825,2.9664,2.9472,2.9258,2.9044,2.8785,2.8527,2.8273,2.7988,2.7689,2.7426,2.7064,2.6742,2.6495,2.6214,2.5982,2.5889,2.5754,2.5551,2.5325,2.5294,2.5139,2.4734,2.467,2.4556,2.4449,2.4351,2.4268,2.4208,2.4268,2.4284,2.425,2.4276,2.4359,2.4482,2.4556,2.4751,2.495,2.5193,2.5325,2.541,2.5524,2.5629,2.5701,2.5791,2.5864,2.5974,2.609,2.6206,2.6277,2.6364,2.6442,2.6477,2.6528,2.6563,2.6623,2.6666,2.6683,2.6674,2.67,2.6657,2.6632,2.6521,2.6477,2.639,2.6355,2.6337,2.6203,2.6007,2.5852,2.5592,2.5394,2.5146,2.4863,2.4589,2.4261,2.4009,2.3703,2.3436,2.3127,2.2761,2.2441,2.2177,2.1942,2.1759,2.141,2.1118,2.0865,2.0716,2.0716,2.0772,2.0736,2.0523,2.0302,3.0666,3.0742,3.0784,3.0791,3.0794,3.0796,3.0796,3.079,3.0796,3.0782,3.0754,3.0724,3.0668,3.0613,3.0559,3.0489,3.0367,3.0312,3.0208,3.0063,2.9945,2.9764,2.956,2.9381,2.9191,2.8961,2.8712,2.8458,2.821,2.7884,2.7561,2.7207,2.6851,2.6657,2.6442,2.6214,2.5998,2.5934,2.5799,2.5642,2.5432,2.5286,2.5178,2.4886,2.4718,2.4605,2.4531,2.4408,2.431,2.4276,2.4276,2.4325,2.4325,2.4367,2.4449,2.4572,2.4718,2.491,2.5107,2.527,2.5394,2.547,2.5554,2.565,2.5746,2.5864,2.5962,2.6107,2.6233,2.6312,2.639,2.6477,2.6546,2.6546,2.6572,2.664,2.6632,2.6674,2.6683,2.6674,2.664,2.6598,2.6546,2.6442,2.6345,2.6285,2.6197,2.6143,2.6096,2.5942,2.5741,2.5478,2.5248,2.4958,2.467,2.4385,2.4051,2.3746,2.3392,2.3083,2.2761,2.2395,2.203,2.1712,2.1513,2.1222,2.0785,2.0442,2.0175,1.992,1.9759,1.9869,1.999,1.9869,1.9585,3.0746,3.0794,3.0791,3.0796,3.0799,3.081,3.0789,3.0789,3.0792,3.076,3.0697,3.0694,3.0645,3.0588,3.0529,3.0425,3.0301,3.024,3.0128,2.9997,2.9869,2.9691,2.9521,2.9358,2.9134,2.8905,2.8678,2.8423,2.8182,2.7751,2.7369,2.7055,2.675,2.6589,2.645,2.6274,2.6096,2.5926,2.5889,2.5688,2.5462,2.5325,2.5209,2.5005,2.4846,2.4742,2.4628,2.449,2.4441,2.4351,2.4302,2.44,2.4457,2.4506,2.4628,2.4782,2.4989,2.5115,2.527,2.5347,2.544,2.5554,2.5642,2.5754,2.5873,2.5946,2.6035,2.6151,2.6285,2.6364,2.6477,2.6529,2.6623,2.6657,2.6674,2.6674,2.6666,2.6666,2.664,2.6615,2.6547,2.6529,2.6442,2.6345,2.6195,2.6071,2.5982,2.5881,2.5824,2.5758,2.5562,2.5325,2.5053,2.4766,2.4475,2.4143,2.3739,2.3392,2.2986,2.2625,2.2356,2.2023,2.1595,2.1264,2.1026,2.0736,2.0233,1.983,1.9525,1.9263,1.9093,1.9129,1.9352,1.9093,1.891,3.0731,3.0794,3.0796,3.0817,3.0859,3.0831,3.0791,3.079,3.0794,3.0757,3.0694,3.0653,3.0595,3.052,3.0457,3.0367,3.0257,3.0152,3.0044,2.9926,2.9798,2.9617,2.9453,2.9286,2.9067,2.8848,2.8603,2.8388,2.8072,2.7642,2.7284,2.7007,2.6717,2.6554,2.6459,2.6318,2.6123,2.597,2.5926,2.5725,2.5492,2.5394,2.527,2.5115,2.5005,2.4862,2.4742,2.4613,2.4556,2.45,2.45,2.4556,2.4564,2.4564,2.4686,2.4934,2.5076,2.5185,2.5339,2.5378,2.547,2.5608,2.565,2.5762,2.5881,2.5954,2.6035,2.6187,2.6285,2.6399,2.6468,2.6529,2.6623,2.6649,2.6674,2.664,2.664,2.6615,2.6589,2.6495,2.646,2.6304,2.625,2.6151,2.5998,2.5889,2.577,2.5659,2.5592,2.5486,2.5333,2.5092,2.4806,2.4515,2.4185,2.3804,2.3392,2.2979,2.2618,2.221,2.1881,2.1499,2.116,2.0766,2.0472,2.0074,1.972,1.9309,1.8999,1.8727,1.856,1.8613,1.8588,1.8367,1.817,3.0758,3.0796,3.0836,3.085,3.0853,3.0824,3.0793,3.0769,3.0757,3.0727,3.0705,3.065,3.055,3.046,3.0383,3.0299,3.0194,3.0104,2.9997,2.9841,2.9709,2.9541,2.939,2.9212,2.9021,2.8776,2.8569,2.8362,2.7988,2.7578,2.7215,2.7007,2.6708,2.658,2.6477,2.6329,2.6151,2.6007,2.5889,2.5725,2.5605,2.5454,2.5301,2.5224,2.5115,2.5005,2.4902,2.4766,2.4678,2.4622,2.4581,2.4638,2.4678,2.4759,2.4878,2.5115,2.5193,2.5262,2.5378,2.5478,2.5524,2.5608,2.5659,2.5754,2.5828,2.5901,2.6035,2.6195,2.6293,2.6425,2.646,2.6529,2.6563,2.6623,2.6589,2.6598,2.6563,2.6572,2.6477,2.6372,2.6258,2.6126,2.6018,2.5917,2.5799,2.5642,2.5492,2.5347,2.5278,2.524,2.5053,2.4814,2.4523,2.4227,2.389,2.3494,2.3038,2.2625,2.221,2.1793,2.141,2.1013,2.0616,2.0213,1.9759,1.9454,1.9146,1.8827,1.8506,1.8236,1.7969,1.7882,1.7789,1.7606,1.7418,3.0796,3.0807,3.0859,3.0853,3.0798,3.0798,3.0769,3.0701,3.0697,3.0705,3.0674,3.0615,3.053,3.0417,3.0336,3.0247,3.0161,3.0053,2.9917,2.9771,2.9654,2.95,2.9326,2.9152,2.8929,2.8728,2.8527,2.8255,2.7988,2.7587,2.7247,2.7007,2.6775,2.6615,2.6485,2.6347,2.6206,2.6079,2.5962,2.5828,2.5672,2.5522,2.5416,2.5339,2.5224,2.5107,2.5005,2.4886,2.4774,2.471,2.467,2.4774,2.4886,2.5005,2.5154,2.5232,2.5339,2.5378,2.5424,2.5516,2.557,2.5608,2.5667,2.5709,2.5783,2.5901,2.6071,2.6143,2.6233,2.6347,2.6382,2.6468,2.6537,2.6537,2.6537,2.6511,2.6442,2.6372,2.625,2.6143,2.6018,2.5893,2.5754,2.565,2.5554,2.5378,2.5177,2.5029,2.4918,2.4878,2.4718,2.4482,2.4185,2.3882,2.348,2.309,2.2678,2.227,2.1848,2.1416,2.1026,2.0573,2.0118,1.9708,1.9297,1.8987,1.8673,1.835,1.8078,1.781,1.7484,1.7155,1.6987,1.6869,1.6751,3.0824,3.0879,3.0835,3.0823,3.0798,3.0799,3.0757,3.0707,3.0645,3.0622,3.0597,3.0559,3.0488,3.039,3.0292,3.0208,3.0108,2.9991,2.985,2.9709,2.9569,2.9431,2.9262,2.9076,2.8848,2.8628,2.8397,2.8146,2.7777,2.7496,2.7287,2.7007,2.6817,2.6649,2.652,2.6382,2.6277,2.6123,2.6026,2.5901,2.5738,2.5621,2.5524,2.5432,2.5309,2.527,2.5201,2.517,2.517,2.5123,2.5131,2.517,2.5209,2.5248,2.5278,2.5355,2.5424,2.5462,2.5516,2.5562,2.5578,2.5624,2.5645,2.565,2.5754,2.5901,2.6018,2.6082,2.6154,2.6233,2.6312,2.6399,2.6442,2.6442,2.6442,2.638,2.6283,2.6123,2.5998,2.5909,2.5775,2.5672,2.553,2.5386,2.5286,2.5084,2.4871,2.467,2.4467,2.4392,2.4245,2.4051,2.3804,2.3494,2.309,2.267,2.2256,2.1834,2.1403,2.097,2.0579,2.0125,1.961,1.9245,1.8881,1.8566,1.8247,1.8035,1.7711,1.7379,1.7094,1.6761,1.6415,1.6239,1.6114,3.0498,3.0827,3.0823,3.0796,3.0789,3.0773,3.0711,3.0651,3.0614,3.0569,3.0519,3.0476,3.0421,3.0362,3.0259,3.0075,2.9984,2.9907,2.9781,2.9655,2.9472,2.934,2.9169,2.8998,2.8767,2.8552,2.8273,2.7959,2.7608,2.7496,2.7327,2.7048,2.6859,2.6716,2.6546,2.6399,2.6329,2.622,2.6079,2.5937,2.5811,2.5725,2.5592,2.5508,2.544,2.5394,2.5355,2.5325,2.5294,2.5294,2.5256,2.5286,2.5325,2.5317,2.5402,2.544,2.5516,2.5508,2.557,2.5624,2.5624,2.5624,2.5624,2.5629,2.5659,2.5807,2.5909,2.5937,2.5982,2.6054,2.6063,2.6151,2.6151,2.6143,2.6151,2.6079,2.5998,2.5873,2.5725,2.5642,2.5522,2.5424,2.5232,2.5021,2.4918,2.4766,2.4556,2.4343,2.4143,2.3839,2.3746,2.3566,2.3304,2.3098,2.2737,2.231,2.1786,2.1354,2.0963,2.0516,2.0067,1.961,1.9152,1.878,1.8458,1.8193,1.7931,1.7656,1.7273,1.688,1.6648,1.642,1.6009,1.5657,1.5536,2.9822,3.0431,3.0435,3.0526,3.0599,3.0552,3.0552,3.0584,3.0578,3.0432,3.0162,3.0148,3.0205,3.0279,3.0046,2.9888,2.9687,2.9436,2.9419,2.9354,2.9336,2.9228,2.9112,2.8938,2.8694,2.844,2.8164,2.7873,2.7578,2.7496,2.735,2.7089,2.6917,2.6809,2.658,2.6485,2.6397,2.6247,2.6115,2.6026,2.5937,2.582,2.568,2.5584,2.5516,2.5454,2.5386,2.5363,2.5333,2.5333,2.5371,2.541,2.5448,2.544,2.5486,2.557,2.5578,2.557,2.5624,2.5624,2.5624,2.5624,2.5624,2.5616,2.56,2.5629,2.5725,2.5754,2.5799,2.5873,2.5889,2.5889,2.5889,2.5844,2.5852,2.5815,2.5688,2.5567,2.5454,2.5339,2.5232,2.5131,2.4926,2.471,2.4508,2.44,2.4193,2.4024,2.3812,2.3451,2.3179,2.2986,2.2709,2.2495,2.2278,2.1888,2.1403,2.1006,2.061,2.0061,1.9552,1.9192,1.8774,1.8356,1.8035,1.7877,1.7545,1.7267,1.6885,1.655,1.6186,1.5946,1.571,1.5357,1.5005,2.86,2.87,2.8688,2.9055,2.9609,2.9661,2.9996,3.0529,3.0462,3.0111,2.9456,2.9302,2.9505,3.0151,2.9298,2.8929,2.882,2.8729,2.8605,2.8482,2.8929,2.9049,2.8998,2.8834,2.8585,2.8309,2.8081,2.7824,2.7578,2.7496,2.7319,2.7016,2.6992,2.6851,2.6546,2.6459,2.6432,2.6239,2.6168,2.6115,2.6035,2.5909,2.5791,2.5717,2.5672,2.5613,2.5562,2.5548,2.554,2.5532,2.5524,2.5562,2.5562,2.5562,2.557,2.5578,2.5624,2.5624,2.5624,2.5624,2.5624,2.5578,2.557,2.5524,2.5516,2.5478,2.55,2.5454,2.553,2.5672,2.568,2.565,2.565,2.5584,2.5554,2.5478,2.5355,2.5232,2.5107,2.495,2.4799,2.4686,2.4572,2.4359,2.4135,2.3932,2.366,2.3494,2.34,2.3046,2.2692,2.2402,2.2156,2.1935,2.1759,2.1458,2.1013,2.0666,2.0264,1.9708,1.9245,1.8875,1.8506,1.8084,1.7822,1.7662,1.7329,1.6992,1.671,1.6368,1.5831,1.5468,1.5294,1.5001,1.4647]}]]